[[{"header":{"parameterUnit":"m.s-1","parameterCategory":1,"la1":30.6,"la2":28.766,"lo1":-90.7593,"lo2":-88.6598,"dy":0.0162,"dx":0.0183,"nx":116,"ny":114,"refTime":"2023-05-30T06:00:00:Z","depth":0,"parameterNumber":2,"parameterNumberName":"U-component_of_WINDS"},"data":[0.0,0.0,0.0,0.0,0.0,0.0,0.0,0.0,0.0,0.0,0.0,0.0,0.0,0.0,0.0,0.0,0.0,0.0,0.0,0.0,0.0,0.0,0.0,0.0,0.0,0.0,0.0,0.0,0.0,0.0,0.0,0.0,0.0,0.0,0.0,0.0,0.0,0.0,0.0,0.0,0.0,0.0,0.0,0.0,0.0,0.0,0.0,0.0,0.0,0.0,0.0,0.0,0.0,0.0,0.0,0.0,0.0,0.0,0.0,0.0,0.0,0.0,0.0,0.0,0.0,0.0,0.0,0.0,0.0,0.0,0.0,0.0,0.0,0.0,0.0,0.0,0.0,0.0,0.0,0.0,0.0,0.0,0.0,0.0,0.0,0.0,0.0,0.0,0.0,0.0,0.0,0.0,0.0,0.0,0.0,0.0,0.0,0.0,0.0,0.0,0.0,0.0,0.0,0.0,0.0,0.0,0.0,0.0,0.0,0.0,0.0,0.0,0.0,0.0,0.0,0.0,0.0,0.0,0.0,0.0,0.0,0.0,0.0,0.0,0.0,0.0,0.0,0.0,0.0,0.0,0.0,0.0,0.0,0.0,0.0,0.0,0.0,0.0,0.0,0.0,0.0,0.0,0.0,0.0,0.0,0.0,0.0,0.0,0.0,0.0,0.0,0.0,0.0,0.0,0.0,0.0,0.0,0.0,0.0,0.0,0.0,0.0,0.0,0.0,0.0,0.0,0.0,0.0,0.0,0.0,0.0,0.0,0.0,0.0,0.0,0.0,0.0,0.0,0.0,0.0,0.0,0.0,0.0,0.0,0.0,0.0,0.0,0.0,0.0,0.0,0.0,0.0,0.0,0.0,0.0,0.0,0.0,0.0,0.0,0.0,0.0,0.0,0.0,0.0,0.0,0.0,0.0,0.0,0.0,0.0,0.0,0.0,0.0,0.0,0.0,0.0,0.0,0.0,0.0,0.0,0.0,0.0,0.0,0.0,0.0,0.0,0.0,0.0,0.0,0.0,0.0,0.0,0.0,0.0,0.0,0.0,0.0,0.0,0.0,0.0,0.0,0.0,0.0,0.0,0.0,0.0,0.0,0.0,0.0,0.0,0.0,0.0,0.0,0.0,0.0,0.0,0.0,0.0,0.0,0.0,0.0,0.0,0.0,0.0,0.0,0.0,0.0,0.0,0.0,0.0,0.0,0.0,0.0,0.0,0.0,0.0,0.0,0.0,0.0,0.0,0.0,0.0,0.0,0.0,0.0,0.0,0.0,0.0,0.0,0.0,0.0,0.0,0.0,0.0,0.0,0.0,0.0,0.0,0.0,0.0,0.0,0.0,0.0,0.0,0.0,0.0,0.0,0.0,0.0,0.0,0.0,0.0,0.0,0.0,0.0,0.0,0.0,0.0,0.0,0.0,0.0,0.0,0.0,0.0,0.0,0.0,0.0,0.0,0.0,0.0,0.0,0.0,0.0,0.0,0.0,0.0,0.0,0.0,0.0,0.0,0.0,0.0,0.0,0.0,0.0,0.0,0.0,0.0,0.0,0.0,0.0,0.0,0.0,0.0,0.0,0.0,0.0,0.0,0.0,0.0,0.0,0.0,0.0,0.0,0.0,0.0,0.0,0.0,0.0,0.0,0.0,0.0,0.0,0.0,0.0,0.0,0.0,0.0,0.0,0.0,0.0,0.0,0.0,0.0,0.0,0.0,0.0,0.0,0.0,0.0,0.0,0.0,0.0,0.0,0.0,0.0,0.0,0.0,0.0,0.0,0.0,0.0,0.0,0.0,0.0,0.0,0.0,0.0,0.0,0.0,0.0,0.0,0.0,0.0,0.0,0.0,0.0,0.0,0.0,0.0,0.0,0.0,0.0,0.0,0.0,0.0,0.0,0.0,0.0,0.0,0.0,0.0,0.0,0.0,0.0,0.0,0.0,0.0,0.0,0.0,0.0,0.0,0.0,0.0,0.0,0.0,0.0,0.0,0.0,0.0,0.0,0.0,0.0,0.0,0.0,0.0,0.0,0.0,0.0,0.0,0.0,0.0,0.0,0.0,0.0,0.0,0.0,0.0,0.0,0.0,0.0,0.0,0.0,0.0,0.0,0.0,0.0,0.0,0.0,0.0,0.0,0.0,0.0,0.0,0.0,0.0,0.0,0.0,0.0,0.0,0.0,0.0,0.0,0.0,0.0,0.0,0.0,0.0,0.0,0.0,0.0,0.0,0.0,0.0,0.0,0.0,0.0,0.0,0.0,0.0,0.0,0.0,0.0,0.0,0.0,0.0,0.0,0.0,0.0,0.0,0.0,0.0,0.0,0.0,0.0,0.0,0.0,0.0,0.0,0.0,0.0,0.0,0.0,0.0,0.0,0.0,0.0,0.0,0.0,0.0,0.0,0.0,0.0,0.0,0.0,0.0,0.0,0.0,0.0,0.0,0.0,0.0,0.0,0.0,0.0,0.0,0.0,0.0,0.0,0.0,0.0,0.0,0.0,0.0,0.0,0.0,0.0,0.0,0.0,0.0,0.0,0.0,0.0,0.0,0.0,0.0,0.0,0.0,0.0,0.0,0.0,0.0,0.0,0.0,0.0,0.0,0.0,0.0,0.0,0.0,0.0,0.0,0.0,0.0,0.0,0.0,0.0,0.0,0.0,0.0,0.0,0.0,0.0,0.0,0.0,0.0,0.0,0.0,0.0,0.0,0.0,0.0,0.0,0.0,0.0,0.0,0.0,0.0,0.0,0.0,0.0,0.0,0.0,0.0,0.0,0.0,0.0,0.0,0.0,0.0,0.0,0.0,0.0,0.0,0.0,0.0,0.0,0.0,0.0,0.0,0.0,0.0,0.0,0.0,0.0,0.0,0.0,0.0,0.0,0.0,0.0,0.0,0.0,0.0,0.0,0.0,0.0,0.0,0.0,0.0,0.0,0.0,0.0,0.0,0.0,0.0,0.0,0.0,0.0,0.0,0.0,0.0,0.0,0.0,0.0,0.0,0.0,0.0,0.0,0.0,0.0,0.0,0.0,0.0,0.0,0.0,0.0,0.0,0.0,0.0,0.0,0.0,0.0,0.0,0.0,0.0,0.0,0.0,0.0,0.0,0.0,0.0,0.0,0.0,0.0,0.0,0.0,0.0,0.0,0.0,0.0,0.0,0.0,0.0,0.0,0.0,0.0,0.0,0.0,0.0,0.0,0.0,0.0,0.0,0.0,0.0,0.0,0.0,0.0,0.0,0.0,0.0,0.0,0.0,0.0,0.0,0.0,0.0,0.0,0.0,0.0,0.0,0.0,0.0,0.0,0.0,0.0,0.0,0.0,0.0,0.0,0.0,0.0,0.0,0.0,0.0,0.0,0.0,0.0,0.0,0.0,0.0,0.0,0.0,0.0,0.0,0.0,0.0,0.0,0.0,0.0,0.0,0.0,0.0,0.0,0.0,0.0,0.0,0.0,0.0,0.0,0.0,0.0,0.0,0.0,0.0,0.0,0.0,0.0,0.0,0.0,0.0,0.0,0.0,0.0,0.0,0.0,0.0,0.0,0.0,0.0,0.0,0.0,0.0,0.0,0.0,0.0,0.0,0.0,0.0,0.0,0.0,0.0,0.0,0.0,0.0,0.0,0.0,0.0,0.0,0.0,0.0,0.0,0.0,0.0,0.0,0.0,0.0,0.0,0.0,0.0,0.0,0.0,0.0,0.0,0.0,0.0,0.0,0.0,0.0,0.0,0.0,0.0,0.0,0.0,0.0,0.0,0.0,0.0,0.0,0.0,0.0,0.0,0.0,0.0,0.0,0.0,0.0,0.0,0.0,0.0,0.0,0.0,0.0,0.0,0.0,0.0,0.0,0.0,0.0,0.0,0.0,0.0,0.0,0.0,0.0,0.0,0.0,0.0,0.0,0.0,0.0,0.0,0.0,0.0,0.0,0.0,0.0,0.0,0.0,0.0,0.0,0.0,0.0,0.0,0.0,0.0,0.0,0.0,0.0,0.0,0.0,0.0,0.0,0.0,0.0,0.0,0.0,0.0,0.0,0.0,0.0,0.0,0.0,0.0,0.0,0.0,0.0,0.0,0.0,0.0,0.0,0.0,0.0,0.0,0.0,0.0,0.0,0.0,0.0,0.0,0.0,0.0,0.0,0.0,0.0,0.0,0.0,0.0,0.0,0.0,0.0,0.0,0.0,0.0,0.0,0.0,0.0,0.0,0.0,0.0,0.0,0.0,0.0,0.0,0.0,0.0,0.0,0.0,0.0,0.0,0.0,0.0,0.0,0.0,0.0,0.0,0.0,0.0,0.0,0.0,0.0,0.0,0.0,0.0,0.0,0.0,0.0,0.0,0.0,0.0,0.0,0.0,0.0,0.0,0.0,0.0,0.0,0.0,0.0,0.0,0.0,0.0,0.0,0.0,0.0,0.0,0.0,0.0,0.0,0.0,0.0,0.0,0.0,0.0,0.0,0.0,0.0,0.0,0.0,0.0,0.0,0.0,0.0,0.0,0.0,0.0,0.0,0.0,0.0,0.0,0.0,0.0,0.0,0.0,0.0,0.0,0.0,0.0,0.0,0.0,0.0,0.0,0.0,0.0,0.0,0.0,0.0,0.0,0.0,0.0,0.0,0.0,0.0,0.0,0.0,0.0,0.0,0.0,0.0,0.0,0.0,0.0,0.0,0.0,0.0,0.0,0.0,0.0,0.0,0.0,0.0,0.0,0.0,0.0,0.0,0.0,0.0,0.0,0.0,0.0,0.0,0.0,0.0,0.0,0.0,0.0,0.0,0.0,0.0,0.0,0.0,0.0,0.0,0.0,0.0,0.0,0.0,0.0,0.0,0.0,0.0,0.0,0.0,0.0,0.0,0.0,0.0,0.0,0.0,0.0,0.0,0.0,0.0,0.0,0.0,0.0,0.0,0.0,0.0,0.0,0.0,0.0,0.0,0.0,0.0,0.0,0.0,0.0,0.0,0.0,0.0,0.0,0.0,0.0,0.0,0.0,0.0,0.0,0.0,0.0,0.0,0.0,0.0,0.0,0.0,0.0,0.0,0.0,0.0,0.0,0.0,0.0,0.0,0.0,0.0,0.0,0.0,0.0,0.0,0.0,0.0,0.0,0.0,0.0,0.0,0.0,0.0,0.0,0.0,0.0,0.0,0.0,0.0,0.0,0.0,0.0,0.0,0.0,0.0,0.0,0.0,0.0,0.0,0.0,0.0,0.0,0.0,0.0,0.0,0.0,0.0,0.0,0.0,0.0,0.0,0.0,0.0,0.0,0.0,0.0,0.0,0.0,0.0,0.0,0.0,0.0,0.0,0.0,0.0,0.0,0.0,0.0,0.0,0.0,0.0,0.0,0.0,0.0,0.0,0.0,0.0,0.0,0.0,0.0,0.0,0.0,0.0,0.0,0.0,0.0,0.0,0.0,0.0,0.0,0.0,0.0,0.0,0.0,0.0,0.0,0.0,0.0,0.0,0.0,0.0,0.0,0.0,0.0,0.0,0.0,0.0,0.0,0.0,0.0,0.0,0.0,0.0,0.0,0.0,0.0,0.0,0.0,0.0,0.0,0.0,0.0,0.0,0.0,0.0,0.0,0.0,0.0,0.0,0.0,0.0,0.0,0.0,0.0,0.0,0.0,0.0,0.0,0.0,0.0,0.0,0.0,0.0,0.0,0.0,0.0,0.0,0.0,0.0,0.0,0.0,0.0,0.0,0.0,0.0,0.0,0.0,0.0,0.0,0.0,0.0,0.0,0.0,0.0,0.0,0.0,0.0,0.0,0.0,0.0,0.0,0.0,0.0,0.0,0.0,0.0,0.0,0.0,0.0,0.0,0.0,0.0,0.0,0.0,0.0,0.0,0.0,0.0,0.0,0.0,0.0,0.0,0.0,0.0,0.0,0.0,0.0,0.0,0.0,0.0,0.0,0.0,0.0,0.0,0.0,0.0,0.0,0.0,0.0,0.0,0.0,0.0,0.0,0.0,0.0,0.0,0.0,0.0,0.0,0.0,0.0,0.0,0.0,0.0,0.0,0.0,0.0,0.0,0.0,0.0,0.0,0.0,0.0,0.0,0.0,0.0,0.0,0.0,0.0,0.0,0.0,0.0,0.0,0.0,0.0,1.1532,0.0,0.0,0.0,0.0,0.0,0.0,0.0,0.0,0.0,0.0,0.0,0.0,0.0,0.0,0.0,0.0,0.0,0.0,0.0,0.0,0.0,0.0,0.0,0.0,0.0,0.0,0.0,0.0,0.0,0.0,0.0,0.0,0.0,0.0,0.0,0.0,0.0,0.0,0.0,0.5799,0.5984,0.6182,0.6182,0.613,0.6054,0.0,0.0,0.0,0.0,0.0,0.0,0.0,0.0,0.0,0.0,0.0,0.0,0.0,0.0,0.0,0.0,0.0,0.0,0.0,0.0,0.0,0.0,0.0,0.0,0.0,0.0,0.0,0.0,0.0,0.0,0.0,0.0,0.0,0.0,0.0,0.0,0.0,0.0,0.0,0.0,0.0,0.0,0.0,0.0,0.0,0.0,0.0,0.0,0.0,0.0,0.0,0.0,0.0,0.0,0.0,0.0,0.0,0.0,0.0,0.0,0.0,0.0,0.0,0.0,0.0,0.0,0.0,0.0,0.0,0.0,0.0,1.2404,0.0,0.0,0.0,0.0,0.0,0.0,0.0,0.0,0.0,0.0,0.0,0.0,0.0,0.0,0.0,0.0,0.0,0.0,0.0,0.0,0.0,0.0,0.0,0.0,0.3932,0.3896,0.3728,0.3659,0.0,0.0,0.0,0.0,0.0,0.0,0.0,0.5507,0.5661,0.5719,0.6163,0.6539,0.6863,0.6938,0.6802,0.6468,0.636,0.0,0.0,0.0,0.0,0.0,0.0,0.0,0.0,0.0,0.0,0.0,0.0,0.0,0.0,0.0,0.0,0.0,0.0,0.0,0.0,0.0,0.0,0.0,0.0,0.0,0.0,0.0,0.0,0.0,0.0,0.0,0.0,0.0,0.0,0.0,0.0,0.0,0.0,0.0,0.0,0.0,0.0,0.0,0.0,0.0,0.0,0.0,0.0,0.0,0.0,0.0,0.0,0.0,0.0,0.0,0.0,0.0,0.0,0.0,0.0,0.0,0.0,0.0,1.3355,1.3846,1.4313,1.3861,1.3667,1.3637,1.3016,1.2503,1.2128,1.266,0.0,0.0,0.0,0.0,0.0,0.0,0.0,0.0,0.0,0.0,0.0,0.0,0.0,0.0,0.0,0.0,0.0,0.0,0.0,0.0,0.0,0.3309,0.336,0.3471,0.3399,0.3378,0.0,0.0,0.0,0.0,0.0,0.0,0.4704,0.5411,0.5909,0.621,0.6788,0.7095,0.7157,0.7506,0.7643,0.7567,0.6981,0.6727,0.6712,0.0,0.0,0.0,0.0,0.0,0.0,0.0,0.0,0.0,0.0,0.0,0.0,0.0,0.0,0.0,0.0,0.0,0.0,0.0,0.0,0.0,0.0,0.0,0.0,0.0,0.0,0.0,0.0,0.0,0.0,0.0,0.0,0.0,0.0,0.0,0.0,0.0,0.0,0.0,0.0,0.0,0.886,0.8911,0.0,0.0,0.0,0.0,0.0,0.0,0.0,0.0,0.0,0.0,0.0,0.0,0.0,1.1965,1.2308,1.2852,1.3127,1.3156,1.3397,1.3548,1.363,1.3558,1.3522,1.3515,1.3426,0.0,1.3182,1.323,0.0,0.0,0.0,0.0,0.0,0.0,0.0,0.0,0.0,0.0,0.0,0.0,0.0,0.0,0.0,0.0,0.0,0.0,0.0,0.0,0.0,0.2844,0.2753,0.2774,0.2724,0.2691,0.2719,0.3074,0.0,0.0,0.0,0.4153,0.4153,0.5008,0.5906,0.6806,0.7301,0.7647,0.7874,0.8176,0.8297,0.8288,0.7996,0.7553,0.7012,0.677,0.0,0.0,0.0,0.0,0.0,0.0,0.0,0.0,0.0,0.0,0.0,0.0,0.0,0.0,0.0,0.0,0.0,0.0,0.0,0.0,0.0,0.0,0.0,0.0,0.0,0.0,0.0,0.0,0.0,0.0,0.0,0.0,0.0,0.0,0.0,0.0,0.0,0.0,0.0,0.9674,0.9635,0.9665,0.994,1.0063,0.0,0.0,0.0,0.0,0.0,0.0,0.0,0.0,0.0,1.1384,1.1957,1.2409,1.2722,1.3527,1.4098,1.4447,1.4536,1.4765,1.5129,1.5129,1.5034,1.4853,1.4853,1.4528,1.3991,1.3502,1.3523,1.3835,0.0,0.0,0.0,0.0,1.3346,1.3453,0.0,0.0,0.0,0.0,0.0,0.0,0.0,0.0,0.0,0.0,0.0,0.0,0.2575,0.2356,0.221,0.2196,0.2166,0.2155,0.2155,0.2606,0.0,0.0,0.3254,0.3532,0.3548,0.4702,0.586,0.6999,0.734,0.7812,0.8369,0.847,0.8633,0.8847,0.8849,0.8344,0.7493,0.7185,0.7028,0.6962,0.0,0.0,0.0,0.0,0.0,0.0,0.0,0.0,0.0,0.0,0.0,0.0,0.0,0.0,0.0,0.0,0.0,0.0,0.0,0.0,0.0,0.0,0.0,0.0,0.0,0.0,0.0,0.0,0.0,0.0,0.0,0.0,0.0,0.0,0.0,0.0,0.0,0.9708,0.9807,0.981,1.0003,1.0065,0.0,0.0,0.0,0.0,0.0,0.0,1.0689,1.0728,1.0965,1.1484,1.2241,1.2733,1.2945,1.377,1.4413,1.4865,1.4865,1.5123,1.5621,1.5621,1.5571,1.5519,1.5519,1.5223,1.4667,1.3922,1.3798,1.402,1.3416,1.3522,1.3931,1.3385,1.3346,1.351,0.0,0.0,0.0,0.0,0.0,0.0,0.0,0.0,0.0,0.0,0.0,0.1523,0.1655,0.1713,0.1783,0.1915,0.1972,0.2009,0.2009,0.1986,0.1968,0.1964,0.2473,0.2792,0.2851,0.4649,0.5865,0.6434,0.6659,0.7295,0.8297,0.8116,0.8476,0.9281,0.9261,0.892,0.8311,0.7922,0.7638,0.743,0.6972,0.0,0.0,0.0,0.0,0.0,0.0,0.0,0.0,0.0,0.0,0.0,0.0,0.0,0.0,0.0,0.0,0.0,0.0,0.0,0.0,0.0,0.0,0.0,0.0,0.0,0.0,0.0,0.0,0.0,0.0,0.0,0.0,0.0,0.0,0.0,0.0,0.0,0.0,0.7957,0.8833,0.0,0.0,0.0,0.0,1.0343,1.0774,1.1183,1.152,1.1604,1.1949,1.2595,1.2679,1.2824,1.3083,1.328,1.3376,1.3406,1.3406,1.3418,1.3465,1.3465,1.3824,1.4487,1.4487,1.48,1.5307,1.4689,1.4158,1.3716,1.3683,1.381,1.3973,1.3748,1.3683,1.3662,0.0,0.0,0.0,0.0,0.0,0.0,0.0,0.0,0.14,0.14,0.1433,0.1514,0.1648,0.176,0.1881,0.2019,0.2049,0.2045,0.2006,0.1929,0.1896,0.1896,0.2077,0.2463,0.3053,0.3878,0.4717,0.5563,0.5932,0.6373,0.6877,0.6939,0.7289,0.7904,0.8521,0.876,0.8702,0.8337,0.8079,0.7846,0.7425,0.7179,0.0,0.0,0.0,0.0,0.0,0.0,0.0,0.0,0.0,0.0,0.0,0.0,0.0,0.0,0.0,0.0,0.0,0.0,0.0,0.0,0.0,0.0,0.0,0.0,0.0,0.0,0.0,0.0,0.0,0.0,0.0,0.0,0.0,0.0,0.0,0.0,0.0,0.9222,0.9822,0.0,0.9964,1.0331,1.047,1.0172,1.0412,1.0748,1.1142,1.1166,1.142,1.1915,1.2568,1.3013,1.33,1.3846,1.4148,1.4148,1.4021,1.3931,1.3931,1.3931,1.3979,1.4018,1.3873,1.4186,1.4737,1.4372,1.4328,1.4465,1.4278,1.4254,1.4311,1.4235,1.433,1.443,0.0,0.0,0.0,0.0,0.0,0.0,0.0,0.0,0.14,0.14,0.1481,0.1588,0.1723,0.1893,0.2037,0.212,0.213,0.2115,0.2069,0.1988,0.1951,0.1972,0.1992,0.235,0.3121,0.3476,0.4119,0.506,0.5197,0.5535,0.6056,0.5977,0.6247,0.6849,0.7566,0.8082,0.8384,0.8374,0.8411,0.8448,0.7925,0.7707,0.7643,0.0,0.0,0.0,0.0,0.0,0.0,0.0,0.0,0.0,0.0,0.0,0.0,0.0,0.0,0.0,0.0,0.0,0.0,0.0,0.0,0.0,0.0,0.0,0.0,0.0,0.0,0.0,0.0,0.0,0.0,0.0,0.0,0.0,0.0,0.0,1.0034,1.009,1.0494,1.0698,1.0486,1.0657,1.0629,1.0325,1.0555,1.0816,1.109,1.1241,1.1419,1.1692,1.2358,1.2777,1.2951,1.3406,1.3663,1.3657,1.3462,1.3369,1.3339,1.3298,1.3267,1.3304,1.3136,1.3459,1.401,1.3896,1.4036,1.4399,1.4685,1.4794,1.4794,1.4794,1.4926,1.5039,0.0,0.0,0.0,0.0,0.0,0.0,0.0,0.1401,0.1402,0.14,0.152,0.1655,0.1789,0.2046,0.2209,0.2213,0.2194,0.2199,0.2192,0.207,0.2028,0.2095,0.2157,0.2448,0.297,0.3505,0.4157,0.4946,0.4422,0.4763,0.5893,0.5257,0.5397,0.6246,0.6537,0.6906,0.7399,0.8012,0.8663,0.9227,0.8439,0.8372,0.859,0.0,0.0,0.0,0.0,0.0,0.0,0.0,0.0,0.0,0.0,0.0,0.0,0.0,0.0,0.0,0.0,0.0,0.0,0.0,0.0,0.0,0.0,0.0,0.0,0.0,0.0,0.0,0.0,0.0,0.0,0.0,0.0,0.0,0.9061,0.9622,1.0118,1.0296,1.0679,1.0844,1.0631,1.0806,1.0938,1.0919,1.1301,1.1507,1.1542,1.1893,1.2104,1.2078,1.21,1.2095,1.2068,1.1883,1.1775,1.1775,1.1563,1.1469,1.146,1.1268,1.1584,1.2251,1.2246,1.2637,1.3273,1.3245,1.3262,1.3439,1.4794,1.5341,1.5313,1.5326,1.5319,1.5368,0.0,0.0,0.0,0.0,0.0,0.0,0.0,0.1437,0.1461,0.1405,0.1605,0.1792,0.1926,0.2101,0.2236,0.2339,0.2261,0.2206,0.2206,0.203,0.2004,0.2172,0.2187,0.2364,0.2698,0.2945,0.3264,0.3616,0.3471,0.3592,0.3977,0.3772,0.3994,0.4598,0.5338,0.5934,0.6433,0.7142,0.8077,0.908,0.8997,0.8869,0.8656,0.0,0.0,0.0,0.0,0.0,0.0,0.0,0.0,0.0,0.0,0.0,0.0,0.0,0.0,0.0,0.0,0.0,0.0,0.0,0.0,0.0,0.0,0.0,0.0,0.0,0.0,0.0,0.0,0.0,0.0,0.0,0.0,0.9469,0.9753,1.0412,1.0841,1.0753,1.1215,1.1362,1.0874,1.1211,1.1548,1.1686,1.1702,1.1877,1.2271,1.2248,1.2123,1.1898,1.1973,1.1923,1.1733,1.154,1.1446,1.1442,1.1101,1.0914,1.093,1.0897,1.1014,1.1191,1.1068,1.1601,1.2543,1.2212,1.2546,1.3322,1.357,1.3656,1.3631,1.3506,1.388,1.4461,0.0,0.0,0.0,0.0,0.0,0.0,0.0,0.1429,0.1438,0.1405,0.1611,0.1796,0.1903,0.206,0.2196,0.2264,0.2102,0.2007,0.2031,0.1984,0.1988,0.2066,0.2254,0.2452,0.2635,0.2828,0.2993,0.315,0.3186,0.3259,0.3317,0.3394,0.3522,0.3759,0.4328,0.4829,0.5283,0.6056,0.6944,0.7876,0.8505,0.9009,0.9308,0.8841,0.8637,0.8576,0.8401,0.842,0.8496,0.8288,0.0,0.0,0.0,0.0,0.0,0.0,0.0,0.0,0.0,0.0,0.0,0.0,0.0,0.0,0.0,0.0,0.0,0.0,0.0,0.0,0.0,0.0,0.0,0.0,0.9908,1.0358,1.0897,1.119,1.1349,1.1396,1.1715,1.1797,1.1444,1.1686,1.1912,1.202,1.1972,1.2058,1.2369,1.227,1.2123,1.1925,1.2007,1.1977,1.181,1.1625,1.1501,1.1497,1.1138,1.0953,1.0949,1.0869,1.0851,1.0847,1.071,1.103,1.1614,1.1346,1.1567,1.214,0.0,0.0,0.0,0.0,1.3042,1.3514,0.0,0.0,0.0,0.0,0.0,0.0,0.0,0.1412,0.1414,0.1402,0.1586,0.1734,0.1782,0.1961,0.2084,0.2052,0.1837,0.1725,0.1778,0.1885,0.1946,0.1945,0.2349,0.2611,0.2697,0.2981,0.3132,0.3185,0.335,0.3462,0.3519,0.3656,0.3652,0.3529,0.3576,0.3816,0.4191,0.4902,0.5554,0.6217,0.7286,0.8623,0.9917,0.928,0.9117,0.9198,0.891,0.8822,0.8807,0.8581,0.0,0.0,0.0,0.0,0.0,0.0,0.0,0.0,0.0,0.0,0.0,0.0,0.0,0.0,0.0,0.0,0.0,0.0,0.0,0.0,0.0,0.0,0.0,0.0,1.0979,1.1462,1.2136,1.1855,1.1712,1.2057,1.2114,1.2117,1.2031,1.2059,1.2088,1.2088,1.2081,1.2094,1.2119,0.0,0.0,0.0,0.0,1.2025,1.1996,1.1807,1.1716,1.1718,1.1389,1.1229,1.1203,1.0971,1.088,1.088,1.088,1.0814,1.0717,1.0692,1.0599,1.06,1.2289,1.2817,1.2612,1.2445,1.242,1.2503,0.0,0.0,0.0,0.0,0.0,0.0,0.0,0.1493,0.1521,0.1412,0.1622,0.1766,0.1728,0.1898,0.1958,0.1787,0.1786,0.1747,0.1648,0.1668,0.1847,0.221,0.231,0.2465,0.269,0.3023,0.3151,0.3127,0.3409,0.3585,0.3672,0.3696,0.3721,0.3743,0.3706,0.3733,0.3795,0.3963,0.4647,0.5658,0.588,0.6807,0.812,0.8934,0.9092,0.894,0.9298,0.9568,0.9695,0.9271,0.9123,0.909,0.8887,0.8609,0.0,0.0,0.0,0.0,0.0,0.0,0.0,0.0,0.0,0.0,0.0,0.0,0.0,0.0,0.0,0.0,0.0,0.0,0.0,1.0797,1.1203,1.1652,1.2211,1.2205,1.2116,1.2034,1.2218,1.2147,1.1653,1.1795,1.1971,1.2034,1.1912,1.1962,1.2158,1.2022,1.1854,1.1623,1.1707,1.1656,1.1364,1.1331,1.1273,1.1161,1.091,0.0,1.0589,1.0635,1.0651,1.0651,1.0651,1.0733,1.0854,1.0677,1.0621,1.064,1.0702,1.0599,1.0407,1.0393,1.0735,1.1243,0.0,0.0,0.0,0.0,0.0,0.0,0.0,0.1487,0.1524,0.1463,0.1599,0.1667,0.156,0.1645,0.165,0.1506,0.1501,0.1311,0.0883,0.1291,0.1694,0.1986,0.2169,0.2402,0.2693,0.2825,0.3024,0.3241,0.3351,0.3491,0.3662,0.3724,0.3736,0.3707,0.3707,0.3707,0.3707,0.3707,0.4038,0.4616,0.4921,0.5395,0.6075,0.7566,0.7986,0.7786,0.8012,0.8469,0.8899,0.855,0.8825,0.9264,0.906,0.8931,0.8807,0.0,0.0,0.0,0.0,0.0,0.0,0.0,0.0,0.0,0.0,0.0,0.0,0.0,0.0,0.9583,0.0,0.0,1.0908,1.155,1.1888,1.2158,1.2487,1.254,1.2439,1.2167,1.2175,1.2066,1.1794,1.1807,1.1847,1.1907,1.1848,1.1863,1.1975,1.1893,1.1787,1.1638,1.1727,1.1677,1.15,1.1407,1.1317,1.1261,1.1045,1.0867,1.07,1.077,1.0756,1.0638,1.0638,1.0641,1.0629,1.0458,1.0418,1.0412,1.0133,0.9971,0.995,0.9845,1.0021,1.0345,0.0,0.0,0.0,0.0,0.0,0.0,0.0,0.1462,0.1501,0.1501,0.1541,0.1514,0.1413,0.1384,0.135,0.1287,0.12,0.0902,0.0331,0.1013,0.152,0.1719,0.2002,0.227,0.2577,0.2643,0.2841,0.3252,0.3281,0.3361,0.3506,0.3711,0.3717,0.3539,0.3661,0.3713,0.3725,0.3725,0.3725,0.3753,0.4227,0.4325,0.4335,0.5759,0.6415,0.658,0.6623,0.7078,0.7643,0.7439,0.7983,0.8721,0.8556,0.8597,0.864,0.8309,0.8272,0.0,0.0,0.0,0.0,0.0,0.0,0.0,0.0,0.0,0.9204,0.8981,0.9447,0.9894,0.9806,1.0351,1.0966,1.1465,1.1935,1.218,1.2022,1.247,1.2584,1.2008,1.2007,1.205,1.205,1.1898,1.1806,1.1806,1.1806,1.1806,1.1806,1.1806,1.1806,1.1806,1.1806,1.1806,1.1806,1.1626,1.1537,1.1496,1.135,1.1183,1.1045,1.1045,1.0947,1.0772,1.0708,1.0611,1.0446,1.029,1.0239,1.0223,1.0035,1.0017,1.0102,0.9845,0.9733,0.9705,0.0,0.0,0.0,0.0,0.0,0.0,0.0,0.0,0.1501,0.1501,0.1453,0.1413,0.14,0.1351,0.1279,0.1218,0.1042,0.0943,0.0979,0.1136,0.1394,0.1769,0.1884,0.2005,0.2162,0.262,0.2806,0.2691,0.3338,0.3475,0.3169,0.3595,0.3644,0.3336,0.3584,0.3737,0.3788,0.3788,0.3788,0.3784,0.3786,0.3785,0.3781,0.3781,0.4782,0.622,0.6637,0.6794,0.6814,0.6592,0.6624,0.6722,0.6764,0.6665,0.6536,0.6499,0.0,0.6076,0.6065,0.6541,0.7093,0.7191,0.7906,0.8714,0.0,0.0,0.9329,0.8472,0.8608,0.859,0.773,0.7961,0.8426,0.8772,1.0041,1.0534,0.9253,1.1204,1.2264,1.0797,1.1574,1.2276,1.2276,1.1975,1.1806,1.1806,1.1806,1.1806,1.1806,1.1806,1.1806,1.1806,1.1806,1.1806,1.1806,1.1786,1.1692,1.15,1.148,1.137,1.1167,1.1167,1.1098,1.0956,1.0793,1.068,1.0647,1.045,1.0377,1.0361,1.0227,1.0185,1.0133,0.9768,0.9538,0.9443,0.0,0.0,0.0,0.0,0.0,0.0,0.0,0.0,0.0,0.145,0.1411,0.136,0.1234,0.1135,0.0916,0.0541,0.0749,0.0801,0.0595,0.1,0.135,0.1558,0.1624,0.1794,0.2034,0.2108,0.2306,0.2611,0.275,0.2934,0.311,0.3296,0.3433,0.349,0.358,0.3688,0.3746,0.3746,0.3746,0.3743,0.3717,0.3663,0.3556,0.3414,0.376,0.439,0.457,0.493,0.0,0.5166,0.5586,0.6182,0.6192,0.6266,0.6266,0.6035,0.5957,0.0,0.563,0.5842,0.0,0.0,0.6683,0.7301,0.744,0.7792,0.8008,0.7694,0.7975,0.82,0.7906,0.8174,0.848,0.0,0.9188,0.9385,0.869,1.0228,1.1066,1.0211,1.1302,1.2146,1.2146,1.1922,1.1806,1.1806,1.1806,1.1806,1.1806,1.1806,1.1806,1.1806,1.1806,1.1806,1.1806,1.1806,1.177,1.1663,1.1663,1.1565,1.1378,1.1244,1.1131,1.0992,1.0915,1.0882,1.0866,1.066,1.0559,1.0566,1.0387,1.0322,1.0278,0.9912,0.973,0.9661,0.0,0.0,0.0,0.0,0.0,0.0,0.0,0.0,0.0,0.0,0.1353,0.1271,0.1063,0.096,0.0729,0.0284,0.0641,0.0761,0.0441,0.0947,0.1292,0.1362,0.143,0.1591,0.1851,0.1763,0.1956,0.2424,0.2354,0.2476,0.2826,0.2944,0.3098,0.3342,0.3412,0.3563,0.3707,0.3707,0.3717,0.3731,0.3714,0.3633,0.3481,0.3321,0.3185,0.3082,0.3045,0.3401,0.3844,0.3804,0.4357,0.5086,0.5116,0.5244,0.5341,0.5075,0.5097,0.5144,0.4804,0.0,0.0,0.5225,0.5857,0.6478,0.6426,0.6833,0.717,0.6924,0.7195,0.7414,0.7198,0.74,0.7573,0.7547,0.7892,0.7974,0.7443,0.8787,0.9723,0.9348,1.0517,1.1512,1.1821,1.1817,1.1806,1.1806,1.1806,1.1806,1.1806,1.1806,1.1806,1.1806,1.1806,1.1806,1.1806,1.1806,1.1806,1.1806,1.1806,1.1707,1.1569,1.1382,1.1204,1.1037,1.1021,1.0968,1.0915,1.0829,1.0741,1.0684,1.0611,1.0523,1.0442,1.0152,1.0002,0.9942,0.0,0.0,0.0,0.0,0.0,0.0,0.0,0.0,0.0,0.0,0.0,0.0,0.0,0.0896,0.0896,0.0868,0.0896,0.0926,0.0974,0.112,0.1229,0.1301,0.1369,0.1443,0.1502,0.1825,0.1992,0.2019,0.239,0.243,0.2133,0.2521,0.2697,0.2656,0.2977,0.3338,0.3707,0.3707,0.3742,0.3791,0.3731,0.3633,0.3477,0.3274,0.3121,0.3003,0.2923,0.2845,0.274,0.2737,0.2779,0.281,0.2872,0.2892,0.0,0.2964,0.2984,0.2985,0.2984,0.0,0.4657,0.4704,0.5861,0.701,0.7151,0.7531,0.7529,0.6302,0.6144,0.5852,0.4493,0.4409,0.4496,0.4372,0.5593,0.6015,0.4446,0.6688,0.8285,0.7827,0.896,1.0221,0.0,1.1705,1.1806,1.1806,1.1806,1.1806,1.1806,1.1806,1.1806,1.1806,1.1806,1.1806,1.1806,1.1806,1.1806,1.1806,1.1806,1.1806,1.179,1.1577,1.139,1.1175,1.107,1.0894,1.0712,1.0915,1.0882,1.0708,1.0911,1.087,1.0664,1.0458,1.0306,1.0154,0.0,0.0,0.0,0.0,0.0,0.0,0.0,0.0,0.0,0.0,0.0,0.0,0.0,0.0,0.0,0.0,0.0897,0.0926,0.1002,0.1081,0.1159,0.1229,0.1299,0.1375,0.1435,0.1534,0.1653,0.1744,0.1828,0.2026,0.2291,0.2257,0.252,0.3066,0.3056,0.3201,0.3501,0.3501,0.3514,0.3527,0.3466,0.3392,0.3274,0.3119,0.2986,0.285,0.0,0.2668,0.2625,0.2585,0.2598,0.2635,0.2655,0.2691,0.2756,0.2818,0.2925,0.3035,0.3075,0.353,0.4029,0.4153,0.462,0.5126,0.5254,0.5368,0.5315,0.4904,0.4729,0.4534,0.4044,0.4027,0.4053,0.4058,0.4514,0.468,0.4215,0.5727,0.674,0.6354,0.7596,0.0,0.0,0.0,0.0,1.1798,1.1806,1.1825,1.1939,1.1837,1.1829,1.1943,1.1837,1.1806,1.1806,1.1806,1.1806,1.1806,1.1806,1.1741,1.1593,1.1654,1.1581,1.1399,1.1216,1.1102,1.1033,1.0858,1.0749,1.07,1.0761,1.0749,1.0684,1.0627,1.0566,1.05,0.0,0.0,0.0,0.0,0.0,0.0,0.0,0.0,0.0,0.0,0.0,0.0,0.0,0.0,0.0,0.0,0.0,0.092,0.0954,0.103,0.1091,0.1168,0.123,0.1301,0.1362,0.1372,0.1416,0.1499,0.1444,0.165,0.2037,0.186,0.2178,0.2895,0.2789,0.2953,0.3288,0.3292,0.3294,0.3284,0.3249,0.3176,0.3087,0.2971,0.2844,0.0,0.2605,0.257,0.2563,0.2523,0.255,0.2601,0.2601,0.2658,0.272,0.2691,0.2814,0.2949,0.2987,0.327,0.3578,0.3593,0.3795,0.3968,0.3934,0.3878,0.384,0.3767,0.3717,0.3678,0.3625,0.3684,0.3791,0.386,0.3929,0.4007,0.4076,0.4785,0.539,0.5596,0.6467,0.7349,0.0,0.0,0.0,1.1084,1.1582,1.189,1.1939,1.1894,1.189,1.1939,1.1833,1.1806,1.1806,1.1806,1.1806,1.1806,1.1806,1.1745,1.1602,1.1749,1.1705,1.1492,1.1374,1.1248,1.1118,1.0952,1.0806,1.07,1.0793,1.0749,1.0692,1.0692,1.0692,1.0651,0.0,0.0,0.0,0.0,0.0,0.0,0.0,0.0,0.0,0.0,0.0,0.0,0.0,0.0,0.0,0.0,0.0,0.0,0.0898,0.0953,0.1027,0.1083,0.1163,0.1227,0.1288,0.1301,0.1299,0.13,0.1308,0.1336,0.1405,0.139,0.169,0.2187,0.2254,0.2561,0.3044,0.306,0.3047,0.3047,0.306,0.2992,0.2862,0.282,0.2702,0.2594,0.2531,0.2493,0.2495,0.2495,0.2536,0.2586,0.2613,0.2698,0.275,0.2573,0.26,0.2687,0.2628,0.2951,0.328,0.3139,0.3434,0.3677,0.3284,0.3254,0.3219,0.2944,0.3076,0.3212,0.0,0.0,0.3482,0.3548,0.3712,0.3853,0.3888,0.39,0.4299,0.0,0.0,0.0,0.0,0.0,0.0,0.9694,0.0,1.1936,1.1855,1.1959,1.1971,1.1839,1.1823,1.1815,1.1806,1.1806,1.1806,1.1806,1.1806,1.1806,1.1806,1.1806,1.1713,1.1512,1.1504,1.1301,1.1025,1.1155,1.1013,1.0712,1.0923,1.0886,1.0708,1.0708,1.0708,1.0684,0.0,0.0,0.0,0.0,0.0,0.0,0.0,0.0,0.0,0.0,0.0,0.0,0.0,0.0,0.0,0.0,0.0,0.0,0.0898,0.0919,0.0931,0.0946,0.1055,0.1134,0.1155,0.1208,0.1246,0.1308,0.1297,0.1384,0.1554,0.1401,0.1606,0.2125,0.1928,0.2061,0.2423,0.2432,0.2434,0.2454,0.2583,0.2632,0.2598,0.2646,0.2628,0.2594,0.2531,0.254,0.2538,0.2336,0.2311,0.2433,0.2732,0.2701,0.2581,0.2626,0.2669,0.2711,0.2732,0.2989,0.3225,0.3228,0.3289,0.3326,0.3237,0.3083,0.2973,0.2914,0.2806,0.2693,0.0,0.0,0.0,0.2897,0.3069,0.0,0.3614,0.3733,0.0,0.4025,0.0,0.4385,0.496,0.6935,0.0,0.0,1.0695,1.213,1.2385,1.2284,1.2215,1.2174,1.2036,1.1906,1.1811,1.1806,1.1806,1.1806,1.1806,1.1806,1.1806,1.1806,1.1782,1.1729,1.1561,1.137,1.1159,1.1175,1.1013,1.0712,1.0923,1.0968,1.0927,1.0927,1.0927,1.0919,0.0,0.0,0.0,0.0,0.0,0.0,0.0,0.0,0.0,0.0,0.0,0.0,0.0,0.0,0.0,0.0,0.0,0.0,0.0,0.0906,0.0894,0.0894,0.0968,0.1022,0.1048,0.1098,0.1148,0.1215,0.1215,0.1276,0.1385,0.1272,0.1441,0.1824,0.1669,0.1824,0.2194,0.2194,0.2202,0.0,0.0,0.2371,0.2364,0.2404,0.2481,0.2537,0.2404,0.2345,0.2342,0.0,0.0,0.251,0.2781,0.2775,0.2671,0.269,0.0,0.2519,0.2486,0.2729,0.2971,0.2842,0.286,0.2882,0.2682,0.2536,0.2432,0.2343,0.2274,0.0,0.2194,0.2284,0.0,0.0,0.0,0.0,0.3294,0.3376,0.3391,0.0,0.3407,0.0,0.4111,0.5727,0.7082,0.0,1.0654,1.2316,1.2474,1.1816,1.1417,1.1337,1.1173,1.1295,1.1811,1.1806,1.1806,1.1806,1.1806,1.1806,1.1806,1.1806,1.1806,1.1798,1.1667,1.1516,1.1342,1.1342,1.1179,1.0936,1.1041,1.1082,1.1082,1.1082,1.1082,1.107,0.0,0.0,0.0,0.0,0.0,0.0,0.0,0.0,0.0,0.0,0.0,0.0,0.0,0.0,0.0,0.0,0.0,0.0,0.0,0.0,0.0894,0.0897,0.0893,0.0935,0.0994,0.0999,0.1031,0.1092,0.1092,0.1106,0.1098,0.1098,0.1217,0.1443,0.1443,0.1666,0.2063,0.2063,0.2077,0.2108,0.2127,0.2151,0.2157,0.0,0.2333,0.2434,0.231,0.2175,0.0,0.0,0.2566,0.2722,0.277,0.2825,0.2856,0.269,0.2473,0.2262,0.2152,0.2374,0.2579,0.2258,0.2377,0.2416,0.1976,0.1883,0.1796,0.163,0.0,0.1816,0.1768,0.1949,0.2166,0.2373,0.0,0.2607,0.2912,0.2948,0.2983,0.3032,0.3041,0.3469,0.4594,0.511,0.6012,0.7428,1.0309,1.1948,1.1805,1.0762,1.0044,0.9851,0.9884,1.0426,1.153,1.1716,1.1806,1.1806,1.1806,1.1806,1.1806,1.1806,1.1806,1.1806,1.1806,1.1701,1.15,1.1524,1.1411,1.1195,1.1219,1.1228,1.1228,1.1228,1.1228,1.1207,0.0,0.0,0.0,0.0,0.0,0.0,0.0,0.0,0.0,0.0,0.1457,0.1438,0.0,0.0,0.0,0.0,0.0,0.0,0.0,0.0,0.0,0.0896,0.0902,0.0934,0.0995,0.1004,0.1031,0.1092,0.1092,0.1095,0.1101,0.1101,0.112,0.1177,0.1177,0.1212,0.1297,0.1297,0.1425,0.1638,0.1811,0.191,0.1984,0.2315,0.0,0.0,0.2522,0.2465,0.2258,0.2242,0.2499,0.2766,0.267,0.268,0.2695,0.2496,0.2346,0.222,0.2174,0.2222,0.2288,0.2208,0.2145,0.2067,0.1849,0.1728,0.0,0.0,0.1494,0.1477,0.1483,0.1554,0.1661,0.1808,0.1884,0.212,0.2607,0.2662,0.27,0.0,0.2779,0.2841,0.3073,0.4202,0.0,0.0,0.7837,0.8924,0.924,0.9029,0.8789,0.8534,0.9434,0.9988,1.0142,1.125,1.1806,1.1806,1.1806,1.1806,1.1806,1.1806,1.1806,1.1806,1.1806,0.0,1.1512,1.1667,1.1529,1.1207,1.139,1.1451,1.1451,1.1451,1.1451,1.1447,0.0,0.0,0.0,0.0,0.0,0.0,0.0,0.1426,0.1469,0.1497,0.1502,0.1503,0.1501,0.1441,0.0,0.0,0.0,0.0,0.0,0.0,0.0,0.0,0.0,0.0,0.1205,0.1134,0.1145,0.121,0.0,0.121,0.121,0.1311,0.1361,0.1361,0.1361,0.1422,0.1512,0.145,0.1489,0.1619,0.1778,0.1868,0.1926,0.0,0.0,0.0,0.0,0.0,0.2173,0.2342,0.2486,0.2564,0.2487,0.2525,0.2586,0.253,0.2333,0.2142,0.2189,0.2211,0.2215,0.2186,0.2084,0.1935,0.1814,0.0,0.0,0.0,0.1433,0.1391,0.1391,0.1461,0.0,0.1623,0.1699,0.1856,0.2194,0.2247,0.2269,0.2387,0.2413,0.2425,0.0,0.3195,0.3865,0.4201,0.5202,0.6637,0.8507,0.7852,0.7671,0.8242,0.8632,0.9528,1.0942,1.1509,1.1806,1.1806,1.1806,1.1806,1.1806,1.1806,1.1806,1.1806,1.1806,1.1758,1.165,1.177,1.1701,1.152,1.161,1.1676,1.1676,1.1676,1.1676,1.163,0.0,0.0,0.0,0.0,0.0,0.0,0.0,0.1771,0.1819,0.1864,0.1878,0.1872,0.187,0.1651,0.1478,0.0,0.0,0.0,0.0,0.0,0.0,0.0,0.0,0.0,0.0,0.0,0.0,0.1362,0.1362,0.0,0.0,0.0,0.0,0.0,0.1597,0.1681,0.1822,0.1736,0.1706,0.0,0.0,0.1936,0.0,0.0,0.0,0.0,0.0,0.0,0.0,0.0,0.2413,0.2276,0.2171,0.2304,0.2444,0.245,0.2291,0.2127,0.2178,0.2183,0.2199,0.2192,0.2032,0.1852,0.1788,0.1624,0.0,0.1424,0.1391,0.1391,0.1391,0.1451,0.1497,0.0,0.1643,0.1734,0.1893,0.1917,0.198,0.0,0.2165,0.0,0.2179,0.242,0.0,0.2694,0.3297,0.4838,0.7543,0.6473,0.6423,0.7837,0.789,0.9061,1.1561,1.1772,1.1843,1.1806,1.1806,1.1806,1.1806,1.1806,1.1806,1.1806,1.1806,1.1806,1.1806,1.1806,1.1806,1.1806,1.1806,1.1806,1.1806,1.1806,1.1806,1.1786,0.0,0.0,0.0,0.0,0.0,0.0,0.0,0.2765,0.2835,0.3024,0.2888,0.2853,0.303,0.2126,0.1469,0.0,0.0,0.0,0.0,0.0,0.0,0.0,0.0,0.0,0.0,0.0,0.0,0.1564,0.1564,0.0,0.0,0.0,0.0,0.0,0.0,0.1614,0.1634,0.1685,0.0,0.0,0.0,0.0,0.0,0.0,0.0,0.0,0.0,0.0,0.0,0.0,0.0,0.1904,0.1712,0.1979,0.2266,0.204,0.0,0.0,0.2187,0.2202,0.2193,0.2199,0.2001,0.1792,0.1729,0.0,0.1476,0.142,0.1391,0.1391,0.1391,0.1395,0.1449,0.0,0.0,0.1683,0.1861,0.1966,0.2027,0.2093,0.0,0.0,0.2116,0.2205,0.2357,0.266,0.3028,0.3666,0.4641,0.4266,0.4768,0.6439,0.7331,0.861,1.0256,1.1422,1.1926,1.1806,1.1806,1.1806,1.1806,1.1806,1.1806,1.1806,1.1806,1.1806,1.1806,1.1806,1.1806,1.1806,1.1806,1.1806,1.1806,1.1806,1.1806,1.1806,0.0,0.0,0.0,0.0,0.0,0.0,0.2898,0.2905,0.2926,0.3009,0.2989,0.3025,0.3183,0.2684,0.2335,0.0,0.0,0.0,0.0,0.0,0.0,0.0,0.0,0.0,0.0,0.0,0.153,0.166,0.1706,0.0,0.0,0.0,0.0,0.0,0.0,0.1968,0.1955,0.1853,0.0,0.0,0.0,0.0,0.0,0.0,0.0,0.0,0.0,0.0,0.2193,0.0,0.0,0.0,0.1735,0.1869,0.0,0.0,0.1939,0.2046,0.2124,0.2172,0.2188,0.214,0.1969,0.1794,0.1721,0.0,0.1427,0.1415,0.1391,0.1391,0.1391,0.1391,0.1424,0.146,0.1476,0.0,0.1705,0.1776,0.1865,0.1968,0.2037,0.0,0.0,0.0,0.2323,0.266,0.2828,0.3129,0.3599,0.437,0.5457,0.698,0.8231,0.9589,1.1125,1.1641,1.1845,1.1806,1.1806,1.1806,1.1806,1.1806,1.1806,1.1806,1.1806,1.1806,1.1806,1.1806,1.1806,1.1806,1.1806,1.1806,1.1806,1.1806,1.1806,1.1806,0.0,0.0,0.0,0.0,0.0,0.3319,0.3319,0.331,0.3341,0.3427,0.3399,0.3447,0.3624,0.3443,0.3332,0.3372,0.0,0.0,0.0,0.0,0.0,0.0,0.0,0.0,0.0,0.0,0.1651,0.1787,0.1874,0.1946,0.0,0.0,0.2204,0.2204,0.0,0.0,0.0,0.0,0.0,0.0,0.0,0.0,0.0,0.0,0.0,0.0,0.0,0.0,0.0,0.0,0.0,0.0,0.0,0.1831,0.1846,0.0,0.1844,0.1954,0.2035,0.2107,0.2147,0.2095,0.1931,0.1793,0.0,0.0,0.1391,0.1391,0.1391,0.1391,0.1391,0.1391,0.1391,0.1391,0.142,0.1457,0.1572,0.1662,0.1729,0.1845,0.0,0.203,0.2125,0.218,0.2289,0.2526,0.2559,0.2659,0.2893,0.43,0.5804,0.7436,0.831,0.9726,1.1771,1.1726,1.1734,1.1806,1.1806,1.1806,1.1806,1.1806,1.1806,1.1806,1.1806,1.1806,1.1806,1.1806,1.1806,1.1806,1.1806,1.1806,1.1806,1.1806,1.1806,1.1806,0.0,0.0,0.0,0.0,0.0,0.0,0.0,0.4287,0.4381,0.465,0.4453,0.439,0.4659,0.4449,0.4338,0.4474,0.0,0.0,0.0,0.0,0.0,0.0,0.0,0.0,0.0,0.0,0.1869,0.2002,0.2127,0.2203,0.2204,0.2204,0.2204,0.2204,0.0,0.0,0.0,0.0,0.0,0.0,0.0,0.0,0.0,0.0,0.0,0.0,0.0,0.0,0.0,0.0,0.0,0.0,0.0,0.1795,0.1773,0.1644,0.1701,0.1826,0.1887,0.1998,0.209,0.2027,0.1913,0.1789,0.0,0.0,0.1391,0.1391,0.1391,0.1391,0.1391,0.1391,0.1391,0.1391,0.146,0.1512,0.1579,0.1667,0.1727,0.0,0.0,0.1914,0.2007,0.2118,0.2188,0.2188,0.2188,0.2222,0.2222,0.353,0.5302,0.7436,0.7006,0.8364,1.1771,1.1592,1.1605,1.1806,1.1806,1.1806,1.1806,1.1806,1.1806,1.1806,1.1806,1.1806,1.1806,1.1806,1.1806,1.1806,1.1806,1.1806,1.1806,1.1806,1.1806,1.1806,0.0,0.0,0.0,0.0,0.0,0.0,0.0,0.4508,0.4541,0.4623,0.4558,0.4597,0.4813,0.4636,0.4596,0.4823,0.0,0.0,0.0,0.0,0.0,0.0,0.0,0.0,0.0,0.0,0.2618,0.234,0.2569,0.2507,0.2204,0.2204,0.2204,0.2204,0.2204,0.2204,0.0,0.0,0.0,0.0,0.0,0.0,0.0,0.0,0.0,0.0,0.0,0.0,0.0,0.0,0.0,0.0,0.0,0.0,0.0,0.1585,0.1553,0.0,0.1732,0.1827,0.1902,0.1871,0.1774,0.1649,0.1634,0.1515,0.1391,0.1391,0.1391,0.1391,0.1391,0.1391,0.1427,0.1467,0.1488,0.1529,0.0,0.0,0.0,0.1785,0.1966,0.211,0.0,0.0,0.2211,0.219,0.2188,0.2188,0.2188,0.2567,0.3974,0.6543,0.7522,0.9042,1.1245,1.1321,1.1517,1.1806,1.1806,1.1806,1.1806,1.1806,1.1806,1.1806,1.1806,1.1806,1.1806,1.1806,1.1806,1.1806,1.1806,1.1806,1.1806,1.1806,1.1806,1.1806,0.0,0.0,0.0,0.0,0.0,0.0,0.0,0.4596,0.4618,0.4666,0.4629,0.4666,0.4839,0.4703,0.47,0.4938,0.0,0.0,0.0,0.0,0.0,0.0,0.0,0.0,0.0,0.3149,0.3132,0.2921,0.3182,0.3204,0.2989,0.2989,0.2989,0.2989,0.2989,0.2989,0.0,0.0,0.0,0.0,0.0,0.0,0.2491,0.0,0.0,0.0,0.0,0.0,0.0,0.0,0.0,0.0,0.0,0.0,0.0,0.0,0.1465,0.1539,0.0,0.1706,0.1754,0.1751,0.1684,0.0,0.0,0.1469,0.1391,0.1391,0.1391,0.1391,0.1391,0.1391,0.1425,0.1462,0.1453,0.1485,0.0,0.0,0.0,0.1812,0.0,0.0,0.0,0.2192,0.2209,0.219,0.2188,0.2188,0.2188,0.2622,0.3871,0.6061,0.7058,0.8677,1.098,1.1084,1.1341,1.1806,1.1806,1.1806,1.1806,1.1806,1.1806,1.1806,1.1806,1.1806,0.0,1.1806,1.1806,1.1806,1.1806,1.1806,1.1806,1.1806,1.1806,1.1806,0.0,0.0,0.0,0.0,0.0,0.0,0.0,0.0,0.4677,0.4801,0.4709,0.4677,0.4801,0.4698,0.4692,0.487,0.0,0.0,0.0,0.0,0.0,0.0,0.0,0.0,0.0,0.3343,0.3487,0.3652,0.392,0.414,0.4303,0.4303,0.4303,0.4303,0.4303,0.4309,0.428,0.0,0.0,0.0,0.0,0.0,0.0,0.0,0.0,0.0,0.0,0.0,0.0,0.0,0.0,0.0,0.0,0.0,0.0,0.0,0.0,0.0,0.0,0.1622,0.1679,0.1678,0.0,0.0,0.0,0.1453,0.0,0.1391,0.1391,0.1391,0.1416,0.1414,0.1393,0.1421,0.142,0.144,0.0,0.1567,0.0,0.0,0.1974,0.0,0.2097,0.2153,0.2188,0.2188,0.2186,0.2185,0.2185,0.3408,0.4689,0.5938,0.6038,0.7645,1.0958,1.0867,1.1129,1.1806,1.1806,1.1806,1.1806,1.1806,1.1806,1.1806,1.1806,1.1806,1.1806,1.1806,1.1806,1.1806,1.1806,1.1806,1.1806,1.1806,1.1806,1.1806,0.0,0.0,0.0,0.0,0.0,0.0,0.0,0.0,0.0,0.0,0.493,0.4919,0.4952,0.493,0.4846,0.0,0.0,0.0,0.0,0.0,0.0,0.0,0.0,0.0,0.4182,0.4352,0.4347,0.4139,0.4463,0.4504,0.4303,0.4303,0.4303,0.4303,0.4303,0.4386,0.4514,0.4379,0.0,0.0,0.0,0.0,0.0,0.0,0.0,0.0,0.3516,0.3172,0.0,0.0,0.0,0.0,0.0,0.0,0.0,0.0,0.1391,0.1417,0.1439,0.0,0.1473,0.1467,0.1455,0.1443,0.0,0.0,0.0,0.0,0.0,0.142,0.1466,0.1429,0.1435,0.1528,0.152,0.1502,0.1562,0.1727,0.0,0.1974,0.2067,0.215,0.21,0.2166,0.2188,0.2188,0.2166,0.212,0.212,0.3325,0.4601,0.5877,0.6907,0.8542,1.0818,1.0808,1.1129,1.1806,1.1806,1.1806,1.1806,1.1806,1.1806,1.1806,1.1806,1.1806,1.1806,1.1806,1.1806,1.1806,1.1806,1.1806,1.1806,1.1806,1.1806,1.1806,0.0,0.0,0.0,0.0,0.0,0.0,0.0,0.0,0.0,0.0,0.0,0.0,0.0,0.0,0.0,0.0,0.0,0.0,0.0,0.0,0.0,0.0,0.0,0.4606,0.4501,0.469,0.4787,0.4767,0.513,0.5295,0.5269,0.5353,0.5349,0.5269,0.5269,0.5326,0.5413,0.5204,0.5171,0.0,0.5068,0.0,0.0,0.0,0.0,0.0,0.3808,0.3326,0.0,0.2752,0.2823,0.2829,0.0,0.0,0.0,0.0,0.1391,0.1391,0.1391,0.1391,0.1391,0.1391,0.1391,0.1391,0.1391,0.0,0.0,0.0,0.0,0.1418,0.1457,0.1424,0.1433,0.1543,0.1516,0.154,0.0,0.0,0.1919,0.1977,0.2087,0.2166,0.213,0.2179,0.2188,0.2188,0.2126,0.2109,0.2109,0.3871,0.5185,0.5874,0.7764,0.9417,1.0789,1.0789,1.1129,1.1806,1.1806,1.1806,1.1806,1.1806,1.1806,1.1806,1.1806,1.1806,1.1806,1.1806,1.1806,1.1806,1.1806,1.1806,1.1806,1.1806,1.1806,1.1794,0.0,0.0,0.0,0.0,0.0,0.0,0.0,0.0,0.0,0.0,0.0,0.0,0.0,0.0,0.0,0.0,0.0,0.0,0.0,0.0,0.0,0.0,0.0,0.4561,0.4617,0.4771,0.5026,0.5391,0.5766,0.6095,0.6408,0.6612,0.6616,0.6444,0.6444,0.6444,0.6414,0.6053,0.5903,0.5893,0.5524,0.0,0.0,0.0,0.0,0.0,0.0,0.0,0.0,0.2692,0.2796,0.2829,0.2379,0.0,0.0,0.0,0.0,0.0,0.1458,0.1436,0.1391,0.1391,0.1391,0.1391,0.1391,0.0,0.0,0.0,0.0,0.0,0.1418,0.1423,0.0,0.1513,0.1529,0.0,0.1712,0.1829,0.1929,0.1977,0.2076,0.2125,0.2179,0.2186,0.2186,0.2181,0.2119,0.2198,0.2389,0.4614,0.5979,0.6197,0.8557,1.0126,1.0789,1.0789,1.1129,1.1806,1.1806,1.1806,1.1806,1.1806,1.1806,1.1806,1.1806,1.1806,1.1806,1.1806,1.1806,1.1806,1.1806,1.1806,1.1806,1.1806,1.1806,1.1782,0.0,0.0,0.0,0.0,0.0,0.0,0.0,0.0,0.0,0.0,0.0,0.0,0.0,0.0,0.0,0.0,0.0,0.0,0.0,0.0,0.0,0.5267,0.4881,0.483,0.5165,0.5092,0.5305,0.5807,0.6041,0.6229,0.6408,0.6612,0.6685,0.6652,0.6656,0.666,0.6664,0.6761,0.6861,0.6978,0.7076,0.0,0.0,0.0,0.0,0.0,0.0,0.0,0.0,0.2692,0.2796,0.2851,0.2558,0.0,0.0,0.0,0.0,0.0,0.1682,0.157,0.1391,0.1391,0.1391,0.1391,0.1391,0.0,0.0,0.0,0.0,0.0,0.0,0.1495,0.1498,0.0,0.0,0.1714,0.0,0.0,0.1977,0.2014,0.2095,0.2172,0.2119,0.2173,0.2177,0.2119,0.212,0.2573,0.3648,0.5105,0.641,0.7546,0.9034,1.0126,1.0789,1.0789,1.1129,1.1806,1.1806,1.1806,1.1806,1.1806,1.1806,1.1806,1.1806,1.1806,1.1806,1.1806,1.1806,1.1806,1.1806,1.1806,1.1806,1.1806,1.1806,1.1782,0.0,0.0,0.0,0.0,0.0,0.0,0.0,0.0,0.0,0.0,0.0,0.0,0.0,0.0,0.0,0.0,0.0,0.0,0.0,0.0,0.0,0.5405,0.5161,0.5077,0.5184,0.5204,0.5432,0.5903,0.6,0.6164,0.6404,0.6501,0.666,0.6865,0.6746,0.6701,0.6722,0.7002,0.7147,0.7222,0.0,0.0,0.0,0.0,0.0,0.0,0.0,0.0,0.0,0.0,0.2796,0.2851,0.2581,0.0,0.0,0.0,0.0,0.0,0.1592,0.1503,0.1391,0.1391,0.1391,0.1391,0.1391,0.0,0.0,0.0,0.0,0.0,0.0,0.0,0.1528,0.163,0.0,0.1775,0.1876,0.1924,0.1969,0.1981,0.2055,0.2082,0.2084,0.213,0.2133,0.2086,0.2729,0.3394,0.3966,0.5885,0.7273,0.7886,0.9143,1.0126,1.0789,1.0789,1.1129,1.1806,1.1806,1.1806,1.1806,1.1806,1.1749,1.163,1.1766,1.1749,1.1626,1.1626,1.1687,1.1794,1.1667,1.1691,1.1806,1.1806,1.1741,1.163,0.0,0.0,0.0,0.0,0.0,0.0,0.0,0.0,0.0,0.0,0.0,0.0,0.0,0.0,0.0,0.0,0.0,0.0,0.0,0.0,0.5637,0.5548,0.5397,0.5309,0.5259,0.533,0.5559,0.5964,0.5964,0.6147,0.6468,0.6526,0.6705,0.7001,0.6876,0.6807,0.6796,0.7072,0.7206,0.7222,0.0,0.0,0.0,0.0,0.0,0.0,0.0,0.0,0.0,0.0,0.0,0.0,0.0,0.0,0.0,0.2064,0.1885,0.1749,0.1548,0.1458,0.1391,0.1391,0.0,0.0,0.0,0.0,0.0,0.0,0.0,0.0,0.0,0.1538,0.0,0.1691,0.1784,0.1851,0.1904,0.1939,0.1979,0.2024,0.2029,0.2041,0.2104,0.21,0.2093,0.2086,0.3265,0.4116,0.4443,0.6643,0.8041,0.8346,0.9299,1.0126,1.0789,1.0789,1.1129,1.1806,1.1806,1.1806,1.1806,1.1762,1.1664,1.1504,1.1606,1.1565,1.1435,1.1435,1.152,1.163,1.1492,1.1549,1.1745,1.179,1.1687,1.1585,0.0,0.0,0.0,0.0,0.0,0.0,0.0,0.0,0.0,0.0,0.0,0.0,0.0,0.0,0.0,0.0,0.0,0.0,0.0,0.0,0.563,0.5678,0.5496,0.5503,0.5743,0.5631,0.5781,0.6175,0.6175,0.6347,0.668,0.6873,0.6981,0.7014,0.7114,0.7094,0.6984,0.7143,0.7206,0.7222,0.7415,0.0,0.0,0.0,0.0,0.0,0.0,0.0,0.0,0.0,0.0,0.0,0.0,0.0,0.2491,0.2469,0.2131,0.1794,0.1772,0.1592,0.1391,0.1391,0.1391,0.0,0.1483,0.1496,0.0,0.1567,0.0,0.0,0.0,0.1635,0.1722,0.1787,0.1907,0.1998,0.2,0.2051,0.2088,0.2092,0.2093,0.2105,0.2103,0.2113,0.2084,0.2024,0.3245,0.4501,0.5696,0.7126,0.8437,0.9636,0.9761,1.0126,1.0789,1.0789,1.1129,1.1806,1.1806,1.1806,1.1798,1.1598,1.1512,1.1492,1.133,1.1224,1.1211,1.1211,1.1219,1.1232,1.1219,1.1329,1.1541,1.1741,1.1798,1.179,0.0,0.0,0.0,0.0,0.0,0.0,0.0,0.0,0.0,0.0,0.0,0.0,0.0,0.0,0.0,0.0,0.0,0.0,0.0,0.6403,0.6075,0.5895,0.5859,0.5881,0.5982,0.5857,0.5957,0.6331,0.6449,0.6571,0.6705,0.6902,0.7049,0.7127,0.7177,0.7169,0.7135,0.7309,0.7387,0.7391,0.7475,0.6976,0.0,0.0,0.0,0.0,0.0,0.0,0.0,0.0,0.2827,0.2897,0.2897,0.2829,0.2694,0.2401,0.2199,0.1974,0.1637,0.148,0.1391,0.1391,0.1391,0.0,0.0,0.154,0.1566,0.1583,0.1646,0.0,0.0,0.0,0.1772,0.1806,0.1917,0.2013,0.2001,0.2007,0.2048,0.2033,0.2052,0.2046,0.2025,0.2048,0.2036,0.1993,0.3973,0.5378,0.5867,0.7917,0.9299,0.9792,0.9792,1.005,1.0614,1.074,1.1018,1.1435,1.1549,1.1545,1.1427,1.1358,1.1269,1.12,1.1208,1.1163,1.1094,1.1094,1.1196,1.1407,1.1524,1.161,1.1713,1.1782,1.1806,1.1806,0.0,0.0,0.0,0.0,0.0,0.0,0.0,0.0,0.0,0.0,0.0,0.0,0.0,0.0,0.0,0.0,0.0,0.0,0.7133,0.662,0.6215,0.598,0.5976,0.6,0.6068,0.5903,0.5973,0.6331,0.6477,0.6595,0.6701,0.6902,0.7068,0.721,0.7266,0.7287,0.7295,0.7435,0.7503,0.7503,0.7503,0.6836,0.0,0.0,0.0,0.0,0.0,0.0,0.0,0.0,0.2846,0.2897,0.2897,0.2851,0.2694,0.2312,0.2131,0.1974,0.1525,0.1391,0.1391,0.1391,0.0,0.0,0.1551,0.161,0.1642,0.1649,0.1704,0.1721,0.1731,0.0,0.0,0.181,0.1924,0.1993,0.2004,0.1996,0.1996,0.1985,0.1994,0.2011,0.1989,0.2351,0.259,0.259,0.5042,0.654,0.654,0.8623,0.9792,0.9792,0.9748,0.9977,1.0495,1.0577,1.0822,1.1143,1.1273,1.1293,1.1191,1.1167,1.1078,1.1,1.1029,1.1021,1.0996,1.0996,1.1143,1.135,1.1533,1.1602,1.161,1.1667,1.1758,1.1806,0.0,0.0,0.0,0.0,0.0,0.0,0.0,0.0,0.0,0.0,0.0,0.0,0.0,0.0,0.0,0.0,0.0,0.0,0.784,0.6644,0.5911,0.5898,0.5779,0.5795,0.5996,0.5746,0.5806,0.6191,0.6195,0.6371,0.67,0.691,0.7072,0.7218,0.7407,0.7503,0.7503,0.7503,0.7503,0.7503,0.7484,0.6531,0.5106,0.0,0.0,0.0,0.0,0.0,0.0,0.0,0.2846,0.2897,0.2897,0.2716,0.2469,0.2266,0.2019,0.1749,0.148,0.1391,0.1391,0.1391,0.0,0.0,0.1661,0.1688,0.1723,0.1788,0.1793,0.1787,0.1791,0.1796,0.0,0.1807,0.191,0.2008,0.2011,0.2001,0.1987,0.1987,0.2024,0.2019,0.2016,0.3168,0.3907,0.3907,0.6385,0.7889,0.7889,0.9113,0.9788,0.9788,0.9683,0.9902,1.0491,1.0357,1.0538,1.0996,1.0996,1.1086,1.1183,1.107,1.0996,1.0984,1.0797,1.0798,1.0996,1.0996,1.0996,1.1017,1.1159,1.1195,1.1219,1.1431,1.1614,1.1802,0.0,0.0,0.0,0.0,0.0,0.0,0.0,0.0,0.0,0.0,0.0,0.0,0.0,0.0,0.0,0.0,0.0,0.0,0.7358,0.6827,0.6411,0.6128,0.6114,0.6214,0.6418,0.6383,0.6244,0.5996,0.6363,0.6669,0.6914,0.7062,0.7236,0.7407,0.7479,0.7503,0.7503,0.7503,0.7576,0.7655,0.6937,0.6127,0.5241,0.0,0.0,0.0,0.0,0.0,0.0,0.0,0.0,0.0,0.2897,0.2716,0.2469,0.2266,0.2019,0.1749,0.148,0.1391,0.1418,0.1462,0.0,0.0,0.0,0.1692,0.0,0.0,0.1873,0.1877,0.1857,0.1877,0.1857,0.1874,0.1938,0.1986,0.2008,0.2015,0.1989,0.1989,0.2781,0.3331,0.3345,0.453,0.5314,0.5314,0.6907,0.7889,0.7889,0.9028,0.9673,0.9673,0.97,0.9859,1.0154,1.0242,1.0448,1.0801,1.0679,1.0731,1.0846,1.0798,1.0801,1.0797,1.0744,1.0724,1.0813,1.0943,1.1065,1.1167,1.1346,1.1415,1.1423,1.148,1.1451,1.1407,0.0,0.0,0.0,0.0,0.0,0.0,0.0,0.0,0.0,0.0,0.0,0.0,0.0,0.0,0.0,0.0,0.0,0.0,0.0,0.676,0.6485,0.6327,0.6303,0.6329,0.6403,0.6517,0.6403,0.602,0.6473,0.6799,0.701,0.7139,0.7358,0.7613,0.7613,0.7613,0.7617,0.7686,0.7739,0.7744,0.7202,0.6353,0.5344,0.0,0.0,0.0,0.0,0.0,0.0,0.0,0.0,0.0,0.2784,0.2581,0.2334,0.2109,0.1861,0.1615,0.1436,0.1391,0.1422,0.1488,0.1521,0.1579,0.171,0.0,0.0,0.0,0.1915,0.1889,0.1902,0.1909,0.1911,0.1905,0.1945,0.2008,0.2008,0.2008,0.2192,0.2683,0.3447,0.412,0.4642,0.5896,0.6693,0.6693,0.7876,0.8579,0.8579,0.9179,0.9517,0.9517,0.9657,0.9756,0.9836,1.0007,1.0178,1.0339,1.0389,1.0469,1.0527,1.0637,1.0692,1.0696,1.0769,1.0829,1.0842,1.0997,1.109,1.1135,1.1244,1.133,1.1378,1.1313,1.1309,1.135,0.0,0.0,0.0,0.0,0.0,0.0,0.0,0.0,0.0,0.0,0.0,0.0,0.0,0.0,0.0,0.0,0.0,0.0,0.0,0.0,0.6285,0.6468,0.6391,0.6295,0.6163,0.633,0.6359,0.624,0.6551,0.6808,0.701,0.7155,0.7431,0.78,0.7816,0.7824,0.7833,0.7947,0.7935,0.7841,0.7787,0.6835,0.54,0.523,0.0,0.0,0.0,0.0,0.0,0.0,0.0,0.0,0.2581,0.2357,0.2154,0.1885,0.1615,0.1391,0.1391,0.1415,0.1431,0.1491,0.1562,0.0,0.1771,0.187,0.1908,0.1967,0.0,0.1902,0.19,0.1913,0.1903,0.1901,0.1958,0.2008,0.2008,0.2097,0.2587,0.3752,0.4085,0.4727,0.5957,0.7266,0.8055,0.8055,0.9004,0.9588,0.9588,0.9445,0.939,0.939,0.9525,0.9582,0.9582,0.9693,0.9789,0.9816,1.0119,1.0257,1.0312,1.0582,1.0692,1.07,1.0899,1.0972,1.0984,1.111,1.1094,1.0996,1.0996,1.1066,1.1179,1.1025,1.1192,1.1431,0.0,0.0,0.0,0.0,0.0,0.0,0.0,0.0,0.0,0.0,0.0,0.0,0.0,0.0,0.0,0.0,0.0,0.0,0.0,0.0,0.6224,0.6266,0.6588,0.6704,0.6564,0.6616,0.6626,0.6596,0.6669,0.6808,0.7014,0.7296,0.7564,0.7808,0.7918,0.7959,0.7959,0.8,0.8077,0.8052,0.6572,0.5829,0.548,0.4003,0.3218,0.0,0.0,0.0,0.0,0.0,0.0,0.0,0.2581,0.2357,0.2154,0.1885,0.1615,0.1391,0.1391,0.143,0.0,0.1571,0.1681,0.1767,0.1848,0.19,0.1903,0.1909,0.1949,0.199,0.1966,0.1992,0.199,0.1966,0.2003,0.2008,0.2008,0.2778,0.3464,0.3871,0.5625,0.6972,0.7418,0.8534,0.9231,0.9231,0.9366,0.9432,0.9432,0.9315,0.923,0.923,0.9367,0.9456,0.9456,0.9476,0.9596,0.9789,0.9871,1.0064,1.0312,1.0582,1.0692,1.0692,1.0764,1.0753,1.078,1.0794,1.0871,1.0996,1.0996,1.1021,1.1049,1.1008,1.0956,1.0887,0.0,0.0,0.0,0.0,0.0,0.0,0.0,0.0,0.0,0.0,0.0,0.0,0.0,0.0,0.0,0.0,0.0,0.0,0.0,0.0,0.6393,0.6536,0.671,0.6776,0.6704,0.6701,0.6692,0.6701,0.6855,0.6989,0.7108,0.7467,0.7731,0.791,0.8065,0.8146,0.815,0.8239,0.8284,0.8211,0.7296,0.643,0.5586,0.461,0.3965,0.352,0.3053,0.0,0.0,0.0,0.0,0.0,0.0,0.0,0.2267,0.1907,0.1705,0.157,0.1436,0.1457,0.0,0.1617,0.0,0.1796,0.1857,0.1887,0.1913,0.1898,0.1955,0.2008,0.2008,0.2008,0.2008,0.2008,0.1964,0.2168,0.2746,0.3338,0.4176,0.5436,0.6711,0.7802,0.8551,0.9153,0.95,0.95,0.9386,0.9301,0.9301,0.9158,0.9052,0.9052,0.9283,0.9323,0.9158,0.9323,0.9461,0.9599,0.9734,1.0036,1.05,1.0637,1.0692,1.0692,1.0692,1.0692,1.0692,1.0692,1.0749,1.0866,1.0866,1.0919,1.0988,1.0899,1.0858,1.0866,0.0,0.0,0.0,0.0,0.0,0.0,0.0,0.0,0.0,0.0,0.0,0.0,0.0,0.0,0.0,0.0,0.0,0.0,0.0,0.0,0.0,0.6883,0.6772,0.6704,0.6738,0.6717,0.6725,0.6786,0.7064,0.7238,0.7307,0.767,0.7898,0.7999,0.8239,0.8358,0.837,0.8525,0.8501,0.8353,0.835,0.7386,0.5919,0.5764,0.5208,0.4409,0.3476,0.3631,0.4166,0.3208,0.0,0.0,0.0,0.0,0.2357,0.193,0.1772,0.1682,0.1458,0.1466,0.1547,0.166,0.1744,0.0,0.1809,0.1831,0.1887,0.1887,0.1947,0.2001,0.2006,0.2008,0.2008,0.2008,0.2134,0.2562,0.3552,0.4056,0.506,0.715,0.7573,0.8154,0.9291,0.9386,0.9373,0.9373,0.923,0.9145,0.9145,0.9001,0.8912,0.8912,0.9158,0.9185,0.8912,0.9161,0.9312,0.9363,0.9693,1.0128,1.0647,1.068,1.0692,1.0692,1.0692,1.0692,1.0692,1.0692,1.0692,1.0692,1.0692,1.0813,1.0931,1.0749,1.0817,1.0951,0.0,0.0,0.0,0.0,0.0,0.0,0.0,0.0,0.0,0.0,0.0,0.0,0.0,0.0,0.0,0.0,0.0,0.0,0.0,0.0,0.0,0.6887,0.6772,0.6751,0.6865,0.6766,0.6846,0.7137,0.7185,0.7382,0.7735,0.789,0.7992,0.8008,0.8399,0.8554,0.8554,0.8578,0.8574,0.8488,0.7643,0.7139,0.683,0.6008,0.563,0.0,0.0,0.4188,0.4166,0.3208,0.2897,0.0,0.0,0.0,0.2176,0.1885,0.1637,0.1436,0.1413,0.0,0.1601,0.0,0.1739,0.1803,0.0,0.0,0.1826,0.0,0.1916,0.1945,0.2003,0.2008,0.2008,0.2008,0.2831,0.3522,0.3671,0.5445,0.6895,0.7343,0.8335,0.9089,0.9367,0.9291,0.9241,0.9241,0.9049,0.894,0.894,0.8923,0.8912,0.8912,0.8937,0.8937,0.8912,0.8835,0.8902,0.9142,0.9704,1.0138,1.0446,1.0623,1.0692,1.0692,1.0692,1.0692,1.0692,1.0692,1.0692,1.0692,1.0692,1.0708,1.0752,1.07,1.0708,1.0729,0.0,0.0,0.0,0.0,0.0,0.0,0.0,0.0,0.0,0.0,0.0,0.0,0.0,0.0,0.0,0.0,0.0,0.0,0.0,0.0,0.0,0.6773,0.6738,0.6725,0.6791,0.6909,0.7052,0.7206,0.7322,0.7524,0.0,0.7935,0.8069,0.8178,0.8468,0.859,0.859,0.859,0.859,0.8568,0.812,0.7297,0.6273,0.0,0.0,0.0,0.0,0.0,0.0,0.0,0.2897,0.2873,0.2761,0.0,0.0,0.0,0.1839,0.1597,0.1479,0.1502,0.1561,0.0,0.1695,0.1743,0.1803,0.1789,0.1803,0.1851,0.1842,0.186,0.192,0.1956,0.1956,0.1956,0.2905,0.3868,0.4566,0.6077,0.7415,0.8153,0.8704,0.9059,0.9127,0.9072,0.9032,0.9032,0.8946,0.8912,0.8912,0.8912,0.8912,0.8912,0.8912,0.8872,0.8784,0.8875,0.9094,0.9429,0.9904,1.0172,1.0282,1.0386,1.0528,1.0692,1.0692,1.0692,1.0692,1.0692,1.0692,1.0692,1.0692,1.0692,1.0692,1.0692,1.0692,1.0692,0.0,0.0,0.0,0.0,0.0,0.0,0.0,0.0,0.0,0.0,0.0,0.0,0.0,0.0,0.0,0.0,0.0,0.0,0.0,0.0,0.0,0.6755,0.6721,0.6737,0.683,0.7072,0.723,0.727,0.0,0.0,0.7849,0.7955,0.8138,0.0,0.8529,0.859,0.0,0.0,0.0,0.859,0.8322,0.0,0.0,0.0,0.0,0.0,0.0,0.0,0.0,0.0,0.0,0.0,0.2829,0.2627,0.0,0.0,0.0,0.198,0.1577,0.0,0.1503,0.1556,0.1622,0.1691,0.0,0.0,0.1781,0.1806,0.1789,0.1827,0.1857,0.1875,0.1886,0.1886,0.3104,0.4384,0.5268,0.6633,0.7878,0.8799,0.8912,0.8912,0.8912,0.8912,0.8912,0.8912,0.8912,0.8912,0.8912,0.8912,0.8912,0.8912,0.8875,0.8798,0.8713,0.8978,0.9256,0.9588,0.9941,1.0117,1.0121,1.0192,1.0357,1.0627,1.0627,1.0651,1.0692,1.0692,1.0692,1.0692,1.0692,1.0692,1.0692,1.0692,1.0692,1.0692,0.0,0.0,0.0,0.0,0.0,0.0,0.0,0.0,0.0,0.0,0.0,0.0,0.0,0.9106,0.8865,0.9027,0.0,0.0,0.0,0.0,0.0,0.6882,0.6774,0.0,0.7173,0.7197,0.7287,0.7491,0.0,0.0,0.8,0.7987,0.8207,0.8574,0.8586,0.859,0.859,0.0,0.0,0.0,0.0,0.0,0.0,0.0,0.0,0.0,0.0,0.0,0.0,0.0,0.0,0.0,0.0,0.0,0.0,0.0,0.0,0.0,0.0,0.1459,0.0,0.1499,0.1551,0.1628,0.0,0.0,0.1716,0.1775,0.1809,0.1791,0.1794,0.1847,0.1886,0.1886,0.3826,0.5325,0.5382,0.7365,0.8826,0.8881,0.8912,0.8912,0.8912,0.8912,0.8912,0.8912,0.8912,0.8912,0.8912,0.8912,0.8912,0.8912,0.877,0.872,0.871,0.8975,0.9149,0.9239,0.9697,0.9926,0.993,1.0105,1.0266,1.0422,1.0422,1.0515,1.0692,1.0692,1.0692,1.0692,1.0692,1.0692,1.0692,1.0692,1.0692,1.0692,0.0,0.0,0.0,0.0,0.0,0.0,0.0,0.0,0.0,0.0,0.0,0.0,0.0,0.8765,0.8515,0.8765,0.8056,0.0,0.0,0.0,0.0,0.6775,0.685,0.6994,0.7202,0.7334,0.7419,0.7503,0.0,0.7667,0.7991,0.7991,0.8211,0.859,0.859,0.859,0.859,0.859,0.0,0.0,0.0,0.0,0.0,0.0,0.0,0.0,0.0,0.0,0.0,0.0,0.0,0.0,0.0,0.0,0.0,0.0,0.0,0.0,0.0,0.0,0.0,0.3294,0.2884,0.2502,0.2529,0.2093,0.1711,0.1741,0.1747,0.1724,0.1735,0.1787,0.1827,0.1827,0.3852,0.541,0.541,0.7427,0.8912,0.8912,0.8912,0.8912,0.8912,0.8821,0.8767,0.8767,0.8703,0.8689,0.876,0.8699,0.8693,0.8764,0.8645,0.8625,0.8689,0.8827,0.9013,0.9212,0.954,0.9697,0.9721,0.9786,0.9981,1.0262,1.0262,1.0424,1.0692,1.0692,1.0692,1.0692,1.0692,1.0692,1.0692,1.0692,1.0692,1.0692,0.0,0.0,0.0,0.0,0.0,0.0,0.0,0.0,0.0,0.0,0.0,0.0,0.0,0.0,0.7929,0.7921,0.7576,0.7323,0.7239,0.6892,0.6739,0.6796,0.6962,0.7145,0.7287,0.7366,0.7423,0.7503,0.7423,0.7606,0.7991,0.7991,0.8211,0.859,0.859,0.859,0.0,0.0,0.0,0.7051,0.0,0.0,0.4275,0.0,0.0,0.0,0.0,0.0,0.0,0.0,0.0,0.0,0.0,0.0,0.0,0.0,0.0,0.0,0.4376,0.0,0.0,0.0,0.3871,0.3345,0.3043,0.2525,0.2048,0.1721,0.1971,0.2247,0.2234,0.2576,0.2726,0.237,0.4336,0.5897,0.5897,0.7587,0.8835,0.8835,0.8835,0.8814,0.8764,0.8693,0.8632,0.8632,0.854,0.8526,0.8628,0.8537,0.8532,0.856,0.8492,0.852,0.8718,0.8781,0.8977,0.9335,0.9505,0.9603,0.9603,0.9664,0.9876,1.019,1.0255,1.042,1.0692,1.0692,1.0692,1.0692,1.0692,1.0692,1.0692,1.0692,1.0692,1.0692,0.0,0.0,0.0,0.0,0.0,0.0,0.0,0.0,0.0,0.9143,0.0,0.0,0.0,0.0,0.0,0.6672,0.6683,0.6725,0.6725,0.6717,0.6799,0.6988,0.0,0.0,0.0,0.7317,0.7299,0.7503,0.7303,0.7489,0.7991,0.7999,0.8215,0.859,0.859,0.859,0.8546,0.0,0.7117,0.694,0.0,0.4322,0.4192,0.0,0.0,0.0,0.2789,0.2758,0.0,0.2893,0.0,0.0,0.0,0.0,0.0,0.0,0.0,0.0,0.0,0.0,0.0,0.0,0.0,0.0,0.3187,0.3024,0.2781,0.1885,0.2583,0.3356,0.3335,0.4219,0.4616,0.3558,0.5355,0.6883,0.6883,0.7942,0.8703,0.8703,0.8703,0.8645,0.8522,0.8505,0.8502,0.8502,0.8498,0.8498,0.8502,0.8502,0.8437,0.8294,0.8291,0.8466,0.8775,0.88,0.9076,0.9579,0.9603,0.9603,0.9616,0.9807,1.0015,1.0206,1.0332,1.0507,1.0692,1.0692,1.0692,1.0692,1.0692,1.0692,1.0692,1.0692,1.0692,1.0692,0.0,0.0,0.0,0.0,0.0,0.0,0.0,0.0,0.9355,0.0,0.0,0.0,0.7731,0.7447,0.726,0.7245,0.7134,0.7055,0.7055,0.6974,0.6982,0.7143,0.7181,0.7287,0.7499,0.7435,0.7435,0.7503,0.7589,0.7752,0.7995,0.815,0.8362,0.0,0.859,0.859,0.859,0.83,0.0,0.6985,0.5786,0.4939,0.0,0.0,0.0,0.0,0.0,0.2565,0.2366,0.0,0.2596,0.3338,0.0,0.0,0.0,0.0,0.0,0.0,0.6403,0.0,0.0,0.0,0.0,0.0,0.5048,0.4567,0.4093,0.3821,0.4105,0.4391,0.4387,0.539,0.6061,0.5604,0.6235,0.6757,0.6757,0.7796,0.8547,0.8547,0.8547,0.8553,0.8512,0.8413,0.8355,0.8355,0.8225,0.8211,0.8349,0.8355,0.8258,0.8084,0.8274,0.8428,0.8506,0.8907,0.9158,0.9307,0.9505,0.9668,0.9815,0.9864,1.0059,1.0363,1.0385,1.0507,1.0692,1.0692,1.0692,1.0692,1.0692,1.0692,1.0692,1.0692,1.0692,1.0692,0.0,0.0,0.0,0.0,0.0,0.0,0.935,0.9016,0.8716,0.0,0.0,0.0,0.7374,0.7222,0.7167,0.7282,0.718,0.7122,0.7122,0.7093,0.7114,0.7202,0.7274,0.7415,0.7613,0.7544,0.7572,0.7703,0.7764,0.7906,0.813,0.8239,0.8411,0.859,0.0,0.0,0.0,0.0,0.0,0.0,0.5681,0.0,0.0,0.3892,0.3322,0.0,0.0,0.0,0.2916,0.2291,0.2941,0.0,0.0,0.0,0.0,0.0,0.0,0.0,0.0,0.0,0.0,0.0,0.0,0.0,0.5942,0.5468,0.5001,0.4658,0.5028,0.5401,0.5445,0.6435,0.7198,0.7098,0.7163,0.7279,0.7362,0.7975,0.842,0.842,0.842,0.8396,0.8303,0.8221,0.8174,0.8174,0.8164,0.8225,0.8344,0.8224,0.8183,0.8166,0.8308,0.8506,0.8733,0.9034,0.9261,0.9356,0.9602,0.9786,0.9913,1.0042,1.0233,1.0413,1.0482,1.0599,1.0692,1.0692,1.0692,1.0692,1.0692,1.0692,1.0692,1.0692,1.0692,1.0692,0.0,0.0,0.0,0.0,0.0,0.0,0.8382,0.8155,0.7892,0.0,0.7658,0.7589,0.7238,0.7088,0.7029,0.7045,0.7049,0.7057,0.7077,0.7175,0.7254,0.7291,0.7443,0.7621,0.7824,0.7646,0.7695,0.7991,0.7902,0.8,0.8292,0.8334,0.8431,0.859,0.0,0.0,0.0,0.0,0.0,0.7132,0.5415,0.5168,0.0,0.0,0.4228,0.3852,0.3995,0.4112,0.4022,0.3063,0.3791,0.0,0.0,0.0,0.0,0.0,0.7515,0.0,0.0,0.0,0.0,0.0,0.0,0.0,0.6285,0.6021,0.5783,0.5049,0.5671,0.639,0.6501,0.7332,0.7989,0.7989,0.7978,0.8064,0.825,0.827,0.827,0.827,0.827,0.8191,0.803,0.7988,0.7988,0.7988,0.8209,0.8357,0.8407,0.8137,0.8113,0.8382,0.8432,0.8684,0.9187,0.9236,0.9368,0.9632,0.9811,0.993,0.9957,1.026,1.0417,1.0446,1.0627,1.0692,1.0692,1.0692,1.0692,1.0692,1.0692,1.0692,1.0692,1.0692,1.0692,1.0692,0.0,0.0,0.0,0.0,0.0,0.0,0.0,0.8376,0.8022,0.8059,0.7529,0.7159,0.7202,0.7171,0.7228,0.7385,0.7397,0.7462,0.7633,0.7515,0.7561,0.7825,0.778,0.7809,0.7959,0.7927,0.7943,0.7991,0.813,0.8244,0.8296,0.8464,0.8554,0.859,0.0,0.0,0.0,0.0,0.0,0.8362,0.7252,0.0,0.7035,0.6221,0.5886,0.581,0.5642,0.5455,0.5307,0.5403,0.5667,0.6088,0.0,0.0,0.0,0.0,0.0,0.0,0.0,0.0,0.0,0.0,0.0,0.0,0.7168,0.7184,0.7176,0.6899,0.711,0.734,0.737,0.7632,0.7831,0.7831,0.7935,0.8027,0.8054,0.806,0.806,0.806,0.806,0.8047,0.7992,0.7988,0.7988,0.7988,0.8038,0.8162,0.8382,0.8137,0.8113,0.8382,0.8602,0.8878,0.9187,0.9406,0.9622,0.9835,0.9893,1.0038,1.0304,1.0373,1.0482,1.0643,1.0676,1.0692,1.0692,1.0692,1.0692,1.0692,1.0692,1.0692,1.0692,1.0692,1.0692,1.0692,0.0,0.0,0.0,0.0,0.0,0.0,0.0,0.7767,0.7526,0.7584,0.7318,0.7155,0.7334,0.7439,0.7548,0.7633,0.7719,0.7784,0.7902,0.7801,0.7825,0.7983,0.7931,0.7967,0.8146,0.815,0.8195,0.8292,0.8403,0.8452,0.8452,0.8545,0.859,0.859,0.0,0.0,0.0,0.0,0.8688,0.8715,0.7805,0.0,0.8141,0.7274,0.6896,0.6772,0.665,0.6077,0.5518,0.6262,0.6415,0.0,0.0,0.7379,0.778,0.0,0.7736,0.7776,0.0,0.0,0.0,0.7797,0.0,0.0,0.0,0.7508,0.7488,0.741,0.7457,0.7532,0.7587,0.7716,0.7811,0.7811,0.7915,0.7988,0.7988,0.7988,0.7988,0.7988,0.7988,0.7988,0.7988,0.7988,0.8113,0.8382,0.8162,0.8187,0.8581,0.8212,0.8187,0.8577,0.8726,0.904,0.9533,0.9683,0.9847,1.0048,1.0115,1.0227,1.0409,1.0498,1.0611,1.0692,1.0692,1.0692,1.0692,1.0692,1.0692,1.0692,1.0692,1.0692,1.0692,1.0692,1.0692,1.0692,0.0,0.0,0.0,0.0,0.0,0.0,0.0,0.0,0.7065,0.7135,0.7255,0.7395,0.7585,0.0,0.0,0.0,0.7935,0.8008,0.0,0.0,0.0,0.8117,0.8085,0.8154,0.8362,0.8366,0.844,0.859,0.859,0.859,0.859,0.859,0.859,0.0,0.0,0.0,0.0,0.0,0.0,0.8798,0.0,0.8341,0.8967,0.797,0.7599,0.7549,0.7223,0.6551,0.5904,0.6531,0.6709,0.6711,0.6711,0.7313,0.0,0.0,0.0,0.0,0.0,0.0,0.0,0.0,0.0,0.7793,0.0,0.0,0.0,0.7444,0.7437,0.7478,0.7577,0.7716,0.7801,0.7773,0.7898,0.7978,0.7973,0.7969,0.7983,0.7985,0.7988,0.7988,0.7988,0.7988,0.8212,0.8676,0.8333,0.8258,0.8701,0.8357,0.8357,0.8775,0.888,0.9237,0.9884,0.9946,1.0056,1.0243,1.0336,1.0426,1.0462,1.0627,1.0692,1.0692,1.0692,1.0692,1.0692,1.0692,1.0692,1.0692,1.0692,1.0692,1.0692,1.0692,1.0692,1.0692,0.8611,0.8818,0.0,0.0,0.0,0.0,0.0,0.0,0.7309,0.7665,0.7726,0.7784,0.0,0.0,0.0,0.0,0.0,0.0,0.8247,0.0,0.0,0.8513,0.8366,0.8366,0.8554,0.8558,0.857,0.859,0.859,0.859,0.859,0.859,0.859,0.0,0.859,0.0,0.0,0.0,0.8897,0.0,0.9155,0.9264,0.0,0.8058,0.817,0.8783,0.7353,0.7353,0.7882,0.0,0.7061,0.7814,0.0,0.7914,0.7985,0.7993,0.0,0.0,0.0,0.0,0.0,0.0,0.7978,0.0,0.0,0.0,0.7726,0.76,0.0,0.758,0.7597,0.0,0.0,0.7645,0.7834,0.7966,0.7834,0.7814,0.7861,0.7975,0.7988,0.7988,0.7988,0.7988,0.8113,0.8432,0.8382,0.8382,0.8432,0.8602,0.8726,0.88,0.9193,0.9564,0.9884,1.0076,1.0247,1.0377,1.0397,1.0486,1.0664,1.0684,1.0692,1.0692,1.0692,1.0692,1.0692,1.0692,1.0692,1.0692,1.0692,1.0692,1.0692,1.0692,1.0692,1.0692,0.8511,0.8444,0.0,0.0,0.0,0.0,0.0,0.7521,0.7609,0.778,0.7866,0.0,0.0,0.0,0.0,0.0,0.0,0.8387,0.0,0.0,0.0,0.0,0.0,0.0,0.0,0.859,0.859,0.859,0.859,0.859,0.859,0.859,0.859,0.0,0.859,0.0,0.8718,0.0,0.8986,0.0,0.0,0.0,0.0,0.8943,0.8952,0.9059,0.8081,0.8006,0.8283,0.0,0.764,0.0,0.0,0.0,0.0,0.0,0.0,0.0,0.0,0.0,0.0,0.0,0.0,0.0,0.782,0.0,0.777,0.0,0.0,0.0,0.0,0.0,0.0,0.0,0.7875,0.7962,0.7807,0.7811,0.7844,0.7971,0.7935,0.7915,0.7982,0.7988,0.8187,0.8602,0.8482,0.8531,0.8857,0.8829,0.8874,0.9031,0.9342,0.9682,1.0072,1.0229,1.0408,1.0559,1.0559,1.0623,1.0692,1.0692,1.0692,1.0692,1.0692,1.0692,1.0692,1.0692,1.0692,1.0692,1.0692,1.0692,1.0692,1.0692,1.0692,1.0692,0.8188,0.0,0.0,0.0,0.0,0.0,0.0,0.0,0.0,0.0,0.0,0.0,0.8158,0.8284,0.0,0.0,0.8509,0.859,0.0,0.0,0.859,0.0,0.0,0.0,0.0,0.859,0.859,0.859,0.859,0.859,0.859,0.859,0.8615,0.8659,0.0,0.8735,0.8874,0.0,0.914,0.9408,0.9433,0.9462,0.948,0.9402,0.9031,0.8482,0.801,0.8035,0.8209,0.7739,0.7764,0.0,0.7988,0.0,0.0,0.0,0.0,0.0,0.8077,0.0,0.0,0.0,0.0,0.0,0.0,0.0,0.0,0.0,0.0,0.0,0.0,0.0,0.7837,0.0,0.0,0.7949,0.778,0.7753,0.7794,0.7951,0.7928,0.7973,0.8099,0.8113,0.8258,0.8651,0.8655,0.8758,0.908,0.9051,0.9076,0.9187,0.9519,0.9846,1.0212,1.0391,1.0566,1.0692,1.0692,1.0692,1.0692,1.0692,1.0692,1.0692,1.0692,1.0692,1.0692,1.0692,1.0692,1.0692,1.0692,1.0692,1.0692,1.0692,1.0692,1.0692,0.7212,0.712,0.0,0.0,0.0,0.0,0.0,0.0,0.0,0.0,0.0,0.0,0.0,0.0,0.0,0.0,0.0,0.859,0.859,0.0,0.859,0.0,0.0,0.859,0.0,0.859,0.859,0.859,0.859,0.859,0.859,0.859,0.868,0.8789,0.8789,0.8913,0.91,0.929,0.9392,0.9416,0.9547,0.9451,0.9187,0.0,0.8024,0.683,0.6559,0.0,0.0,0.6811,0.7138,0.0,0.0,0.0,0.0,0.0,0.0,0.0,0.0,0.0,0.0,0.8287,0.0,0.0,0.0,0.0,0.7982,0.0,0.0,0.0,0.7975,0.7978,0.7959,0.0,0.0,0.0,0.0,0.7607,0.7674,0.7889,0.8067,0.8244,0.8368,0.8382,0.8382,0.8407,0.8886,0.9055,0.8825,0.9303,0.9455,0.9212,0.9845,1.0182,1.0186,1.0536,1.0684,1.0692,1.0692,1.0692,1.0692,1.0692,1.0692,1.0692,1.0692,1.0692,1.0692,1.0692,1.0692,1.0692,1.0692,1.0692,1.0692,1.0692,1.0692,1.0692,0.0,0.0,0.0,0.0,0.0,0.0,0.0,0.798,0.0,0.0,0.0,0.0,0.0,0.894,0.894,0.0,0.0,0.8735,0.8735,0.8651,0.0,0.0,0.0,0.859,0.0,0.0,0.859,0.859,0.859,0.859,0.859,0.859,0.8623,0.868,0.0,0.8922,0.0,0.0,0.0,0.0,0.0,0.9286,0.9158,0.0,0.8404,0.7832,0.7562,0.769,0.0,0.7587,0.769,0.7988,0.7988,0.7988,0.7988,0.7988,0.805,0.8091,0.0,0.0,0.8298,0.8298,0.0,0.0,0.0,0.0,0.0,0.0,0.0,0.0,0.0,0.0,0.0,0.0,0.0,0.0,0.0,0.7773,0.7899,0.82,0.0,0.0,0.0,0.8262,0.8288,0.8321,0.8633,0.8915,0.9175,0.9461,0.9631,0.9669,1.0008,1.0247,1.0339,1.0574,1.0692,1.0692,1.0692,1.0692,1.0692,1.0692,1.0692,1.0692,1.0692,1.0692,1.0692,1.0692,1.0692,1.0692,1.0692,1.0692,1.0692,1.0692,1.0692,1.0692,0.7589,0.0,0.0,0.0,0.0,0.0,0.0,0.0,0.0,0.0,0.8962,0.0,0.9275,0.0,0.9213,0.0,0.9023,0.8866,0.8801,0.8779,0.0,0.8594,0.8647,0.0,0.0,0.0,0.859,0.859,0.859,0.859,0.859,0.8651,0.868,0.0,0.0,0.9076,0.9225,0.9284,0.9372,0.0,0.0,0.9006,0.0,0.0,0.8602,0.8506,0.0,0.7988,0.7988,0.7988,0.805,0.8098,0.8098,0.8131,0.8172,0.8172,0.8209,0.8253,0.8253,0.835,0.0,0.8386,0.8372,0.0,0.8211,0.0,0.8159,0.0,0.0,0.0,0.0,0.0,0.0,0.0,0.0,0.0,0.0,0.8115,0.0,0.8454,0.0,0.0,0.0,0.8322,0.829,0.8438,0.8636,0.8927,0.938,0.9531,0.968,0.9905,1.0092,1.0249,1.0405,1.0607,1.0692,1.0692,1.0692,1.0692,1.0692,1.0692,1.0692,1.0692,1.0692,1.0692,1.0692,1.0692,1.0692,1.0692,1.0692,1.0692,1.0692,1.0692,1.0692,1.0692,0.0,0.0,0.0,0.0,0.7947,0.0,0.0,0.0,0.8878,0.0,0.9397,0.962,0.9628,0.9523,0.9441,0.9429,0.9246,0.9043,0.8838,0.9003,0.0,0.0,0.8747,0.8759,0.8619,0.0,0.0,0.0,0.8602,0.8598,0.8594,0.8731,0.8789,0.0,0.9185,0.0,0.9368,0.9232,0.9183,0.9133,0.8878,0.8627,0.8407,0.8382,0.8552,0.8701,0.8187,0.7988,0.7988,0.7988,0.8136,0.8284,0.8284,0.8376,0.8488,0.8488,0.8564,0.8676,0.8676,0.8686,0.8665,0.8546,0.8512,0.0,0.0,0.0,0.8468,0.0,0.0,0.0,0.0,0.0,0.0,0.0,0.0,0.0,0.0,0.0,0.8601,0.0,0.0,0.0,0.0,0.8564,0.8415,0.866,0.8878,0.9104,0.9364,0.9522,0.9684,0.9917,1.0097,1.028,1.0417,1.0611,1.0692,1.0692,1.0692,1.0692,1.0692,1.0692,1.0692,1.0692,1.0692,1.0692,1.0692,1.0692,1.0692,1.0692,1.0692,1.0692,1.0692,1.0692,1.0692,1.0692,0.7939,0.8077,0.822,0.0,0.8305,0.8235,0.0,0.0,0.0,0.0,0.9624,0.9872,1.0035,1.0007,0.9926,0.9783,0.9592,0.0,0.0,0.0,0.0,0.8966,0.9003,0.9007,0.8962,0.8962,0.0,0.8755,0.0,0.0,0.8612,0.8635,0.0,0.0,0.0,0.0,0.9104,0.8954,0.8779,0.8606,0.8531,0.8457,0.8382,0.0,0.8258,0.8457,0.8113,0.7988,0.7988,0.7988,0.804,0.8074,0.8074,0.8098,0.8128,0.8128,0.8155,0.8186,0.8186,0.837,0.853,0.8519,0.8567,0.8632,0.0,0.0,0.0,0.0,0.0,0.0,0.0,0.0,0.0,0.0,0.0,0.0,0.0,0.0,0.0,0.8605,0.0,0.0,0.8491,0.8467,0.8405,0.8341,0.8606,0.8898,0.9165,0.9433,0.977,1.0105,1.0162,1.0341,1.0623,1.0672,1.0692,1.0692,1.0692,1.0692,1.0692,1.0692,1.0692,1.0692,1.0692,1.0692,1.0692,1.0692,1.0692,1.0692,1.0692,1.0692,1.0692,1.0692,1.0692,1.0692,0.8117,0.0,0.0,0.857,0.0,0.0,0.8641,0.8901,0.0,0.9466,0.9812,0.0,1.0178,1.0259,1.0237,1.0136,0.9961,0.0,0.9514,0.0,0.0,0.9108,0.9193,0.9197,0.91,0.9096,0.0,0.8797,0.0,0.0,0.8594,0.0,0.0,0.0,0.0,0.9072,0.8983,0.8856,0.8651,0.8382,0.8283,0.8233,0.0,0.8063,0.8088,0.8212,0.8063,0.7988,0.7988,0.7988,0.8101,0.8206,0.8206,0.8301,0.8379,0.8379,0.8379,0.8379,0.8379,0.848,0.8567,0.8526,0.8598,0.8676,0.8547,0.8604,0.8662,0.0,0.8581,0.8557,0.0,0.0,0.0,0.0,0.0,0.0,0.0,0.0,0.0,0.0,0.8761,0.0,0.8611,0.8467,0.8404,0.8447,0.8605,0.8859,0.9206,0.9474,0.9791,1.0178,1.0186,1.0357,1.0688,1.0692,1.0692,1.0692,1.0692,1.0692,1.0692,1.0692,1.0692,1.0692,1.0692,1.0692,1.0692,1.0692,1.0692,1.0692,1.0692,1.0692,1.0704,1.0813,1.0789,1.0712,0.8296,0.0,0.0,0.0,0.0,0.0,0.0,0.9206,0.0,0.9632,0.0,1.0259,1.0259,1.0371,1.0434,1.0409,0.0,1.008,0.9697,0.9839,0.973,0.9222,0.9368,0.9368,0.9173,0.9169,0.9064,0.0,0.0,0.0,0.0,0.0,0.0,0.0,0.0,0.0,0.0,0.879,0.8602,0.8333,0.8088,0.7988,0.7988,0.7988,0.7988,0.7988,0.7988,0.7988,0.7988,0.7988,0.8186,0.8428,0.8475,0.8635,0.8825,0.8825,0.8838,0.8841,0.8804,0.874,0.8672,0.852,0.8611,0.8672,0.8444,0.8659,0.8875,0.874,0.8713,0.8706,0.8713,0.0,0.0,0.0,0.0,0.0,0.0,0.0,0.0,0.0,0.0,0.0,0.8996,0.8589,0.8463,0.8822,0.8811,0.8973,0.9368,0.9531,0.9791,1.0178,1.0186,1.0357,1.0688,1.0692,1.0692,1.0692,1.0692,1.0692,1.0692,1.0692,1.0692,1.0692,1.0692,1.0692,1.0692,1.0692,1.0692,1.0692,1.0692,1.0708,1.0749,1.0964,1.0927,1.0806,0.0,0.0,0.0,0.0,0.0,0.9198,0.9466,0.9786,1.0023,1.0084,1.0406,1.0599,1.0599,1.0627,1.059,1.0422,1.0377,0.0,0.0,0.0,0.0,0.9783,0.9799,0.9713,0.9514,0.951,0.9352,0.0,0.0,0.0,0.0,0.0,0.0,0.0,0.0,0.0,0.8516,0.8471,0.0,0.8063,0.8017,0.7988,0.7988,0.7988,0.7988,0.7988,0.7988,0.7988,0.7988,0.7988,0.805,0.8115,0.8291,0.8369,0.8413,0.8413,0.8472,0.8509,0.8236,0.8422,0.8672,0.852,0.8693,0.8858,0.8804,0.8855,0.8902,0.8875,0.8872,0.8831,0.8733,0.0,0.0,0.0,0.0,0.0,0.0,0.0,0.0,0.0,0.0,0.8996,0.0,0.8953,0.8969,0.9047,0.9186,0.9319,0.94,0.9531,0.9791,1.0178,1.0186,1.0357,1.0688,1.0692,1.0692,1.0692,1.0692,1.0692,1.0692,1.0692,1.0692,1.0692,1.0692,1.0692,1.0692,1.0692,1.0692,1.0692,1.0692,1.0813,1.0968,1.1114,1.1126,1.111,0.0,0.0,0.0,0.0,0.0,0.0,0.0,1.027,1.0398,1.0211,1.0337,1.0443,1.0443,1.061,1.066,1.0547,1.0566,1.0493,1.0314,1.0302,1.0176,0.9921,0.9909,0.9803,0.9607,0.9603,0.9425,0.9041,0.0,0.0,0.0,0.0,0.0,0.0,0.0,0.8635,0.0,0.0,0.8382,0.8352,0.8097,0.8064,0.815,0.8044,0.7988,0.7988,0.7988,0.7988,0.7988,0.7988,0.8118,0.8282,0.8383,0.8489,0.8618,0.8618,0.8665,0.8659,0.8517,0.8578,0.8693,0.8618,0.8713,0.8794,0.8794,0.8855,0.8912,0.8912,0.8912,0.8865,0.8737,0.8632,0.0,0.0,0.0,0.0,0.0,0.0,0.0,0.0,0.0,0.0,0.0,0.0,0.0,0.0,0.0,0.9421,0.949,0.9555,0.9791,1.0178,1.0186,1.0357,1.0688,1.0692,1.0692,1.0692,1.0692,1.0692,1.0692,1.0692,1.0692,1.0692,1.0692,1.0692,1.0692,1.0692,1.0692,1.07,1.0798,1.0919,1.1029,1.1269,1.1366,1.1378,0.0,0.9096,0.0,0.0,0.9581,0.9857,1.0242,1.0511,1.061,1.0402,1.0325,1.03,1.03,1.0553,1.0692,1.0692,1.0692,1.0635,1.047,1.0462,1.03,0.9987,0.997,0.9843,0.9607,0.9554,0.9343,0.0,0.0,0.0,0.0,0.0,0.0,0.0,0.0,0.0,0.0,0.8635,0.8553,0.8633,0.8226,0.818,0.8321,0.8084,0.8037,0.8057,0.8027,0.7988,0.7988,0.7988,0.8218,0.8475,0.8536,0.8696,0.8862,0.8862,0.8885,0.8896,0.8831,0.8774,0.8723,0.872,0.8706,0.8733,0.8733,0.8825,0.8912,0.8912,0.8912,0.8865,0.8737,0.8611,0.0,0.0,0.0,0.0,0.0,0.0,0.0,0.0,0.0,0.0,0.9257,0.943,0.9494,0.9449,0.9437,0.9502,0.9595,0.9603,0.9791,1.0178,1.0186,1.0357,1.0688,1.0692,1.0692,1.0692,1.0692,1.0692,1.0692,1.0692,1.0692,1.0692,1.0692,1.0692,1.0692,1.0764,1.0753,1.0769,1.098,1.1078,1.1143,1.1395,1.1524,1.1577,0.0,0.0,0.0,0.0,0.0,1.0097,0.9969,1.038,1.0764,1.0919,1.0776,1.0643,1.0643,1.0672,1.0692,1.0692,1.0692,1.0684,1.0668,1.0668,1.0509,1.0178,1.0162,1.0003,0.9607,0.9356,0.9151,0.0,0.0,0.8545,0.0,0.0,0.0,0.0,0.0,0.8761,0.8754,0.8704,0.8613,0.8501,0.8332,0.8359,0.8457,0.8121,0.8101,0.8257,0.8064,0.7988,0.7988,0.7988,0.815,0.8362,0.8604,0.871,0.873,0.873,0.8801,0.8852,0.8601,0.8716,0.8855,0.872,0.8787,0.8889,0.8889,0.8899,0.8912,0.8912,0.8912,0.8865,0.8737,0.8699,0.8638,0.0,0.0,0.0,0.0,0.0,0.8422,0.0,0.0,0.0,0.948,0.9356,0.9327,0.9554,0.9579,0.9583,0.9603,0.9603,0.9791,1.0178,1.0186,1.0357,1.0688,1.0692,1.0692,1.0692,1.0692,1.0692,1.0692,1.0692,1.0692,1.0692,1.0692,1.0692,1.0704,1.0903,1.0972,1.0988,1.1131,1.1301,1.1451,1.1488,1.1606,1.1782,0.0,0.0,0.0,0.0,0.0,0.0,0.0,1.0281,1.0527,1.0683,1.0819,1.0842,1.0704,1.0692,1.0692,1.0692,1.0692,1.0692,1.0692,1.0555,1.0317,0.9971,0.9773,0.948,0.9133,0.9002,0.8848,0.0,0.0,0.0,0.0,0.0,0.8383,0.8505,0.8389,0.8474,0.8696,0.8394,0.8367,0.8495,0.8352,0.8328,0.8376,0.8316,0.8231,0.8136,0.8167,0.8091,0.803,0.8147,0.8243,0.8332,0.8509,0.8635,0.8726,0.8794,0.8865,0.8885,0.8764,0.8818,0.8896,0.8835,0.8865,0.8964,0.9158,0.9213,0.9213,0.9213,0.9047,0.8892,0.8831,0.8743,0.8743,0.8895,0.0,0.0,0.0,0.0,0.0,0.0,0.0,0.0,0.0,0.9406,0.948,0.0,0.0,0.0,0.9603,0.9726,0.99,1.0178,1.027,1.0444,1.0688,1.0692,1.0692,1.0692,1.0692,1.0692,1.0692,1.0692,1.0692,1.0692,1.0692,1.0692,1.0708,1.0919,1.0996,1.1025,1.1277,1.1435,1.1512,1.1626,1.1741,1.1806,0.9624,0.0,0.9316,0.0,0.9526,0.9621,1.0102,1.0173,1.0245,1.0412,1.0623,1.0699,1.0602,1.05,1.0445,1.0445,1.0445,1.0445,1.0445,1.0253,0.9996,0.9657,0.9433,0.0,0.8808,0.8726,0.8577,0.8407,0.8407,0.0,0.0,0.7837,0.7959,0.8255,0.8068,0.8227,0.8565,0.8229,0.8279,0.8537,0.8417,0.8386,0.8427,0.844,0.8289,0.8091,0.818,0.8133,0.803,0.8167,0.826,0.8328,0.8515,0.8655,0.877,0.8879,0.8912,0.8912,0.8912,0.8912,0.8912,0.8912,0.8912,0.8968,0.9185,0.9241,0.9268,0.9379,0.9213,0.9075,0.9158,0.9095,0.9099,0.9343,0.0,0.0,0.0,0.9208,0.0,0.0,0.9057,0.9133,0.9307,0.9406,0.0,0.0,0.0,0.0,0.9603,0.9791,0.9995,1.0182,1.0339,1.049,1.0688,1.0692,1.0692,1.0692,1.0692,1.0692,1.0692,1.0692,1.0692,1.0692,1.0692,1.0692,1.0712,1.0948,1.107,1.1078,1.1439,1.1581,1.1598,1.1758,1.1806,1.1806,0.9476,0.9666,0.9798,0.9806,0.986,0.9979,1.0268,1.0069,1.0014,1.0276,1.0177,1.016,1.03,1.0009,0.9816,0.9816,0.9816,0.9816,0.9816,0.9816,0.9644,0.0,0.0,0.9146,0.8808,0.8528,0.8407,0.8407,0.0,0.0,0.779,0.7811,0.8011,0.8379,0.8113,0.8126,0.8298,0.8294,0.8464,0.8696,0.854,0.857,0.8672,0.841,0.8298,0.8274,0.8071,0.7992,0.7988,0.7992,0.8143,0.8349,0.8615,0.8784,0.8909,0.8912,0.8912,0.8912,0.8912,0.8912,0.8912,0.8912,0.8912,0.8912,0.8912,0.8912,0.8992,0.9323,0.9406,0.9489,0.9734,0.9785,0.9785,0.9785,0.0,0.0,0.0,0.9425,0.0,0.9476,0.9076,0.9023,0.9554,0.9356,0.0,0.0,0.0,0.0,0.9603,0.9791,0.9995,1.0182,1.0339,1.049,1.0688,1.0692,1.0692,1.0692,1.0692,1.0692,1.0692,1.0692,1.0692,1.0692,1.0692,1.0692,1.072,1.1074,1.1191,1.1228,1.1626,1.1802,1.1806,1.1806,1.1806,1.1806,0.6968,0.7508,0.7955,0.7955,0.8757,0.9418,0.9346,0.9557,0.9691,0.968,0.9639,0.965,0.9686,0.9761,0.9789,0.0,0.9789,0.9789,0.0,0.9623,0.9528,0.9499,0.9015,0.8754,0.8726,0.8339,0.8137,0.8137,0.8269,0.8271,0.8148,0.8148,0.8142,0.8113,0.8038,0.8155,0.8434,0.8338,0.8406,0.855,0.8529,0.8391,0.825,0.8489,0.8471,0.8315,0.8442,0.8367,0.8197,0.8197,0.8321,0.8457,0.8526,0.8659,0.8777,0.8882,0.8912,0.8912,0.8912,0.8912,0.8912,0.8912,0.8912,0.8968,0.9185,0.9241,0.9268,0.9379,0.9213,0.9158,0.9461,0.9517,0.9655,1.0064,1.0147,0.0,1.0022,0.0,0.9818,0.9596,0.9562,0.9623,0.9778,0.9727,0.0,0.0,0.0,0.0,0.9799,0.9999,1.0186,1.0343,1.0517,1.0635,1.0692,1.0692,1.0692,1.0692,1.0692,1.0757,1.0911,1.0911,1.0944,1.1053,1.1053,1.0988,1.0939,1.1265,1.1309,1.1228,1.163,1.1806,1.1806,1.1806,1.1806,1.1806,0.5641,0.6424,0.7112,0.7209,0.8258,0.9115,0.9161,0.9273,0.9346,0.9393,0.9296,0.9213,0.9213,0.9351,0.9461,0.9461,0.9461,0.9461,0.9461,0.9296,0.9197,0.9188,0.8744,0.8491,0.8437,0.8139,0.7988,0.7988,0.8136,0.8184,0.8184,0.8184,0.8133,0.7992,0.8074,0.8197,0.8313,0.8308,0.8349,0.843,0.843,0.8323,0.8209,0.852,0.8509,0.8393,0.8496,0.8454,0.8287,0.8204,0.8316,0.8509,0.8509,0.8625,0.8787,0.8882,0.8912,0.8912,0.8912,0.8912,0.8912,0.8912,0.8912,0.8968,0.9158,0.9213,0.9241,0.9379,0.9241,0.9185,0.9485,0.9541,0.9682,1.0064,1.0119,1.0128,1.0231,0.0,1.0072,0.0,0.0,1.0015,1.0015,1.0015,0.9987,0.0,0.0,0.9876,1.0007,1.0125,1.0272,1.0401,1.0603,1.0692,1.0692,1.0692,1.0692,1.0692,1.0789,1.0891,1.1094,1.1094,1.1122,1.1195,1.1195,1.1159,1.1082,1.1305,1.1366,1.135,1.1581,1.1745,1.1806,1.1806,1.1806,1.1806,0.514,0.6151,0.7055,0.7236,0.8189,0.905,0.9483,0.9199,0.9033,0.9323,0.9103,0.8912,0.8912,0.8912,0.8912,0.8912,0.8912,0.8912,0.8912,0.8912,0.8811,0.8579,0.8519,0.8353,0.8075,0.8027,0.7988,0.7988,0.7988,0.7988,0.7988,0.7988,0.7988,0.7995,0.8191,0.818,0.804,0.8211,0.8298,0.8298,0.8308,0.8386,0.8495,0.8515,0.8515,0.8492,0.8369,0.8315,0.8274,0.8091,0.8255,0.8509,0.8522,0.8703,0.8912,0.8912,0.8912,0.8912,0.8912,0.8912,0.8912,0.8912,0.8912,0.8937,0.8937,0.8937,0.9023,0.9323,0.9406,0.9489,0.9761,0.9816,0.9844,0.9871,0.9871,0.9974,1.0268,1.0151,1.0126,1.0362,1.0278,1.0206,1.0206,1.0206,1.0133,0.9962,0.0,0.0,1.0206,1.0206,1.0292,1.0422,1.0607,1.0692,1.0692,1.0692,1.07,1.0712,1.0927,1.1078,1.1211,1.1211,1.1219,1.1232,1.1232,1.1224,1.1211,1.1228,1.1354,1.15,1.1516,1.1626,1.1806,1.1806,1.1806,1.1806,0.2639,0.4349,0.5819,0.5878,0.7691,0.9104,0.9085,0.9108,0.909,0.9037,0.8937,0.8912,0.8912,0.8912,0.8912,0.8912,0.8912,0.8912,0.8912,0.8912,0.8989,0.9187,0.8737,0.8553,0.8684,0.8229,0.7988,0.7988,0.7988,0.7988,0.7988,0.7988,0.7988,0.7992,0.8054,0.814,0.8243,0.8281,0.8298,0.8304,0.8413,0.8413,0.8369,0.857,0.8584,0.8519,0.8577,0.8462,0.8308,0.8353,0.8425,0.8529,0.8618,0.8757,0.8912,0.8912,0.8912,0.8912,0.8912,0.8912,0.8912,0.8912,0.9103,0.9296,0.9296,0.9296,0.9296,0.9379,0.9406,0.9489,0.9761,1.0009,1.0257,1.0445,1.05,1.0456,1.0382,1.0353,1.0299,1.0245,1.031,1.0345,1.0345,1.0345,1.0324,1.028,0.0,1.0247,1.0336,1.0345,1.0452,1.0627,1.0672,1.0692,1.0692,1.0692,1.0789,1.0935,1.1078,1.1256,1.1435,1.1435,1.1512,1.1676,1.1676,1.1565,1.1443,1.1585,1.1585,1.1516,1.1654,1.177,1.1806,1.1806,1.1806,1.1806,0.1791,0.3328,0.4796,0.538,0.7031,0.8467,0.8961,0.9049,0.9025,0.8923,0.8912,0.8912,0.8912,0.8912,0.8912,0.8912,0.8912,0.8912,0.8912,0.8912,0.8961,0.9081,0.8756,0.8633,0.8718,0.84,0.8211,0.8143,0.805,0.7988,0.7988,0.7988,0.7988,0.7992,0.8088,0.8153,0.817,0.8267,0.8257,0.817,0.8248,0.8275,0.8315,0.8475,0.8499,0.8519,0.8577,0.8503,0.8406,0.8481,0.8553,0.8601,0.8682,0.8787,0.8912,0.8912,0.8912,0.8912,0.8912,0.8912,0.8912,0.8912,0.9158,0.9406,0.9406,0.9489,0.9596,0.9596,0.9596,0.9623,0.9761,0.9954,1.0115,1.0253,1.028,1.0304,1.0349,1.0364,1.0382,1.0416,1.0493,1.0554,1.0554,1.0554,1.0494,1.0413,1.0416,1.0412,1.0405,1.0482,1.0595,1.0688,1.0692,1.0692,1.0692,1.0777,1.098,1.1241,1.1305,1.1447,1.1626,1.1626,1.1713,1.1806,1.1806,1.1749,1.1626,1.1672,1.1638,1.1626,1.1676,1.1733,1.1806,1.1806,1.1806,1.1806,0.1819,0.2833,0.4095,0.5373,0.6479,0.7664,0.9009,0.9032,0.8912,0.8912,0.8912,0.8912,0.8912,0.8912,0.8912,0.8912,0.8912,0.8912,0.8912,0.8912,0.8852,0.8723,0.8723,0.8648,0.8546,0.8498,0.8406,0.826,0.8077,0.7988,0.7988,0.7988,0.7988,0.7995,0.8177,0.8163,0.8023,0.818,0.816,0.7992,0.804,0.8153,0.8298,0.8318,0.8403,0.8509,0.8509,0.8509,0.8512,0.8536,0.8604,0.8713,0.8737,0.8804,0.8912,0.8912,0.8912,0.8912,0.8912,0.8937,0.8992,0.902,0.9296,0.9544,0.9544,0.9706,0.9871,0.9871,0.9871,0.9871,0.9871,0.9899,0.9926,0.9926,0.9926,1.0036,1.0312,1.0363,1.0445,1.0665,1.0692,1.0692,1.0692,1.0692,1.0631,1.0458,1.0607,1.0627,1.0454,1.0611,1.0692,1.0692,1.072,1.0772,1.0773,1.0984,1.1228,1.15,1.1529,1.1622,1.1806,1.1806,1.1806,1.1806,1.1806,1.1806,1.1794,1.1606,1.1664,1.179,1.1606,1.1638,1.1806,1.1806,1.1806,1.1806,0.1883,0.2851,0.4088,0.5383,0.6479,0.7664,0.9009,0.9032,0.8912,0.8912,0.8912,0.8912,0.8912,0.8912,0.8912,0.8912,0.8912,0.8912,0.8912,0.8912,0.8899,0.8875,0.875,0.8699,0.8676,0.8457,0.8228,0.805,0.8027,0.7988,0.7988,0.7988,0.7988,0.7992,0.804,0.8037,0.7992,0.804,0.8037,0.8027,0.818,0.8274,0.8308,0.843,0.8488,0.8509,0.8509,0.8509,0.8529,0.8632,0.8693,0.8733,0.8835,0.8892,0.8912,0.8912,0.8912,0.8912,0.8912,0.9103,0.9379,0.9596,0.9899,1.0174,1.0174,1.0202,1.0229,1.0229,1.0229,1.0229,1.0229,1.0417,1.0555,1.0555,1.0555,1.0582,1.0637,1.0637,1.0637,1.0692,1.0692,1.0692,1.0692,1.0692,1.068,1.0655,1.0676,1.068,1.0655,1.0676,1.0692,1.0692,1.087,1.1021,1.111,1.1325,1.1443,1.15,1.1658,1.1778,1.1806,1.1806,1.1806,1.1806,1.1806,1.1806,1.1806,1.1774,1.1782,1.1806,1.1774,1.1782,1.1806,1.1806,1.1806,1.1806,0.1913,0.2387,0.3407,0.5423,0.6043,0.6957,0.8986,0.9083,0.8912,0.8912,0.8912,0.8912,0.8912,0.8912,0.8912,0.8912,0.8912,0.8912,0.8912,0.8912,0.8912,0.8912,0.8841,0.8804,0.8804,0.8618,0.8431,0.8279,0.8201,0.8098,0.7988,0.7988,0.7988,0.7988,0.7988,0.7988,0.7988,0.7988,0.7988,0.803,0.8208,0.8298,0.8311,0.8454,0.8509,0.8519,0.8574,0.8604,0.8628,0.8754,0.8804,0.8818,0.8889,0.8912,0.8912,0.8912,0.8912,0.8937,0.913,0.9296,0.9461,0.9734,1.0064,1.0312,1.0312,1.0417,1.0531,1.0531,1.0531,1.0531,1.0531,1.061,1.0692,1.0692,1.0692,1.0692,1.0692,1.0692,1.0692,1.0692,1.0692,1.0692,1.0692,1.0692,1.0692,1.0692,1.0692,1.0692,1.0692,1.0692,1.0692,1.0692,1.0903,1.1049,1.1191,1.1407,1.1549,1.165,1.1766,1.1806,1.1806,1.1806,1.1806,1.1806,1.1806,1.1806,1.1806,1.1806,1.1806,1.1806,1.1806,1.1806,1.1806,1.1806,1.1806,1.1806,0.1911,0.2205,0.3174,0.55,0.5947,0.6774,0.9065,0.9188,0.9,0.8967,0.896,0.8973,0.9011,0.8953,0.8926,0.8956,0.8929,0.8912,0.8912,0.8912,0.8912,0.8912,0.8912,0.8896,0.8858,0.8743,0.8618,0.8457,0.8349,0.8191,0.7988,0.7988,0.7988,0.7988,0.7988,0.7988,0.7988,0.7988,0.8037,0.8077,0.8247,0.8315,0.8359,0.8464,0.8532,0.855,0.8669,0.8733,0.8754,0.8872,0.8912,0.8912,0.8912,0.8912,0.8912,0.8912,0.8912,0.8992,0.9379,0.9544,0.9682,0.9954,1.0198,1.0394,1.0394,1.0555,1.0692,1.0692,1.0692,1.0692,1.0692,1.0692,1.0692,1.0692,1.0692,1.0692,1.0692,1.0692,1.0692,1.0692,1.0692,1.0692,1.0692,1.0692,1.0692,1.0692,1.0692,1.0692,1.0692,1.0692,1.0712,1.0785,1.096,1.1131,1.135,1.1492,1.1634,1.1806,1.1806,1.1806,1.1806,1.1806,1.1806,1.1806,1.1806,1.1806,1.1806,1.1806,1.1806,1.1806,1.1806,1.1806,1.1806,1.1806,1.1806,1.1806,0.2004,0.2956,0.4214,0.5651,0.6756,0.7872,0.9198,0.9393,0.9328,0.9186,0.9165,0.922,0.9362,0.9075,0.8963,0.9155,0.9015,0.8912,0.8912,0.8912,0.8912,0.8912,0.8912,0.8845,0.873,0.8716,0.857,0.8311,0.8301,0.8191,0.7988,0.7988,0.7988,0.7988,0.7988,0.7988,0.7988,0.7988,0.8098,0.8281,0.8291,0.8376,0.8495,0.8505,0.857,0.8696,0.8706,0.8774,0.8896,0.8906,0.8912,0.8912,0.8912,0.8912,0.8912,0.8912,0.8912,0.902,0.9623,1.0009,1.0312,1.0582,1.0637,1.0665,1.0665,1.0692,1.0692,1.0692,1.0692,1.0692,1.0692,1.0692,1.0692,1.0692,1.0692,1.0692,1.0692,1.0692,1.0692,1.0692,1.0692,1.0692,1.0692,1.0692,1.0692,1.0692,1.0692,1.0692,1.0692,1.0692,1.0797,1.0972,1.1114,1.1374,1.1762,1.1778,1.1794,1.1806,1.1806,1.1806,1.1806,1.1806,1.1806,1.1806,1.1806,1.1806,1.1806,1.1806,1.1806,1.1806,1.1806,1.1806,1.1806,1.1806,1.1806,1.1806,0.2003,0.2376,0.3388,0.5531,0.6189,0.7132,0.9203,0.939,0.9281,0.9318,0.924,0.924,0.9393,0.9223,0.9121,0.9204,0.9022,0.8912,0.8912,0.8912,0.8912,0.8912,0.8912,0.8885,0.8825,0.8825,0.8723,0.8543,0.8543,0.8465,0.8313,0.8313,0.8313,0.8313,0.8313,0.8313,0.8313,0.8313,0.8347,0.8437,0.8506,0.8574,0.8635,0.8703,0.8774,0.8825,0.8825,0.8862,0.8912,0.8912,0.8912,0.8912,0.8912,0.8912,0.8912,0.8912,0.9158,0.9513,0.9734,0.9899,1.0091,1.0582,1.0692,1.0692,1.0692,1.0692,1.0692,1.0692,1.0692,1.0692,1.0692,1.0692,1.0692,1.0692,1.0692,1.0692,1.0692,1.0692,1.0692,1.0692,1.0692,1.0692,1.0692,1.0692,1.0741,1.0882,1.0894,1.0907,1.1013,1.1021,1.1106,1.1293,1.1362,1.1459,1.1606,1.1749,1.1806,1.1806,1.1806,1.1806,1.1806,1.1806,1.1806,1.1806,1.1806,1.1806,1.1806,1.1806,1.1806,1.1806,1.1806,1.1806,1.1806,1.1806,1.1806,1.1806,0.2001,0.2315,0.3297,0.55,0.6183,0.7125,0.9284,0.9469,0.9413,0.9445,0.939,0.9383,0.9503,0.9328,0.922,0.9318,0.9076,0.8929,0.9001,0.8936,0.8912,0.8912,0.8912,0.8912,0.8912,0.8912,0.8835,0.871,0.871,0.8632,0.8509,0.8509,0.8509,0.8509,0.8509,0.8509,0.8509,0.8509,0.8536,0.8564,0.8669,0.8737,0.8767,0.8872,0.8912,0.8912,0.8912,0.8912,0.8912,0.8912,0.8912,0.8912,0.8912,0.8912,0.8912,0.902,0.9351,0.9706,0.9899,0.9954,1.0091,1.0582,1.0692,1.0692,1.0692,1.0692,1.0708,1.0765,1.0777,1.0798,1.085,1.0814,1.0777,1.0777,1.0729,1.0692,1.0692,1.0692,1.0692,1.0692,1.0692,1.0716,1.0801,1.0777,1.0882,1.1061,1.1049,1.1098,1.1187,1.1195,1.128,1.1492,1.15,1.1529,1.1585,1.1741,1.1806,1.1806,1.1806,1.1806,1.1806,1.1806,1.1806,1.1806,1.1806,1.1806,1.1806,1.1806,1.1806,1.1806,1.1806,1.1806,1.1806,1.1806,1.1806,1.1806,0.2001,0.302,0.4304,0.5651,0.6999,0.8275,0.942,0.97,0.9737,0.9629,0.9608,0.9663,0.9771,0.9451,0.9305,0.9581,0.9169,0.8973,0.92,0.9018,0.8912,0.8912,0.8912,0.8912,0.8912,0.8912,0.8838,0.8713,0.8713,0.8635,0.8512,0.8512,0.8512,0.8512,0.8512,0.8512,0.8512,0.8512,0.8574,0.8713,0.8713,0.8777,0.8912,0.8912,0.8912,0.8912,0.8912,0.8912,0.8912,0.8912,0.8912,0.8912,0.8912,0.8912,0.8968,0.9296,0.9406,0.9544,1.0147,1.0312,1.0366,1.0637,1.0692,1.0692,1.0692,1.0692,1.0749,1.096,1.1,1.1049,1.1191,1.1086,1.1,1.0996,1.0842,1.0696,1.0692,1.0696,1.0696,1.0696,1.0696,1.0769,1.0984,1.1,1.107,1.1183,1.1199,1.1199,1.1199,1.1199,1.1313,1.1496,1.15,1.1589,1.1806,1.1806,1.1806,1.1806,1.1806,1.1806,1.1806,1.1806,1.1806,1.1806,1.1806,1.1806,1.1806,1.1806,1.1806,1.1806,1.1806,1.1806,1.1806,1.1806,1.1806,1.1806,0.2001,0.2315,0.3266,0.55,0.6232,0.7208,0.9271,0.9646,0.9656,0.9615,0.9608,0.9625,0.9666,0.9554,0.9422,0.9328,0.9196,0.9062,0.9008,0.8933,0.8912,0.8912,0.8912,0.8912,0.8912,0.8912,0.8889,0.8841,0.8841,0.8821,0.8774,0.8774,0.8774,0.8774,0.8774,0.8774,0.8774,0.8774,0.8801,0.8841,0.8841,0.8872,0.8912,0.8912,0.8912,0.8912,0.8912,0.8912,0.8912,0.8912,0.8912,0.8912,0.8912,0.9047,0.9268,0.9379,0.9706,1.0091,1.038,1.0607,1.0771,1.0724,1.0692,1.0692,1.0692,1.0821,1.0931,1.0988,1.1066,1.1163,1.1183,1.1179,1.111,1.1017,1.1025,1.1025,1.0931,1.0988,1.1062,1.1062,1.1062,1.1057,1.1143,1.1147,1.1224,1.1403,1.1537,1.161,1.161,1.161,1.1634,1.1721,1.1725,1.1749,1.1806,1.1806,1.1806,1.1806,1.1806,1.1806,1.1806,1.1806,1.1806,1.1806,1.1806,1.1806,1.1806,1.1806,1.1806,1.1806,1.1806,1.1806,1.1806,1.1806,1.1806,1.1806,0.2001,0.2008,0.2837,0.5439,0.5896,0.6764,0.928,0.9693,0.9693,0.9693,0.9693,0.9693,0.9693,0.9642,0.9537,0.9379,0.925,0.9121,0.8919,0.8912,0.8912,0.8912,0.8912,0.8912,0.8912,0.8912,0.8912,0.8912,0.8912,0.8912,0.8912,0.8912,0.8912,0.8912,0.8912,0.8912,0.8912,0.8912,0.8912,0.8912,0.8912,0.8912,0.8912,0.8912,0.8912,0.8912,0.8912,0.8912,0.8912,0.8912,0.8912,0.8912,0.9047,0.9241,0.9434,0.9682,1.0009,1.0347,1.0639,1.0856,1.0988,1.0911,1.0903,1.0903,1.0903,1.0988,1.109,1.1192,1.1261,1.1354,1.1427,1.1382,1.1297,1.1196,1.1204,1.1159,1.1082,1.1155,1.1195,1.1195,1.1195,1.1224,1.1325,1.133,1.1411,1.1593,1.1741,1.1806,1.1806,1.1806,1.1806,1.1806,1.1806,1.1806,1.1806,1.1806,1.1806,1.1806,1.1806,1.1806,1.1806,1.1806,1.1806,1.1806,1.1806,1.1806,1.1806,1.1806,1.1806,1.1806,1.1806,1.1806,1.1806,1.1806,1.1806,1.1806,0.2002,0.2008,0.2837,0.5439,0.5896,0.6778,0.9357,0.9771,0.9781,0.9754,0.9775,0.9785,0.9771,0.9686,0.9598,0.9571,0.9332,0.9107,0.8919,0.8912,0.8912,0.8912,0.8912,0.8912,0.8912,0.8912,0.8912,0.8912,0.8912,0.8912,0.8912,0.8912,0.8912,0.8912,0.8912,0.8912,0.8912,0.8912,0.8912,0.8912,0.8912,0.8912,0.8912,0.8912,0.8912,0.8912,0.8912,0.8912,0.8912,0.8926,0.8929,0.8988,0.9335,0.9449,0.9584,1.0165,1.0355,1.0477,1.0908,1.1045,1.1086,1.1228,1.1244,1.1232,1.1203,1.1207,1.1264,1.1464,1.1512,1.1577,1.1774,1.1638,1.152,1.15,1.137,1.124,1.1219,1.1232,1.1244,1.1244,1.1244,1.1338,1.1508,1.1524,1.1593,1.1794,1.1806,1.1806,1.1806,1.1806,1.1806,1.1806,1.1806,1.1806,1.1806,1.1806,1.1806,1.1806,1.1806,1.1806,1.1806,1.1806,1.1806,1.1806,1.1806,1.1806,1.1806,1.1806,1.1806,1.1806,1.1806,1.1806,1.1806,1.1806,1.1806,1.1806,0.2006,0.2008,0.2837,0.5439,0.5896,0.6701,0.9124,0.9673,0.9737,0.9507,0.9676,0.9748,0.9666,0.9629,0.9513,0.9301,0.9089,0.8946,0.8912,0.8912,0.8912,0.8912,0.8912,0.8912,0.8912,0.8912,0.8912,0.8912,0.8912,0.8912,0.8912,0.8912,0.8912,0.8912,0.8912,0.8912,0.8912,0.8912,0.8912,0.8912,0.8912,0.8912,0.8912,0.8912,0.8912,0.8912,0.8912,0.8912,0.8929,0.9069,0.9134,0.9211,0.9645,0.9942,1.0168,1.0568,1.0854,1.1061,1.1305,1.1386,1.1427,1.161,1.1658,1.1581,1.126,1.1305,1.1451,1.1492,1.1644,1.1762,1.1798,1.1774,1.1667,1.1524,1.1585,1.1606,1.1459,1.1565,1.1658,1.1658,1.1658,1.1701,1.1741,1.1715,1.1766,1.1806,1.1806,1.1806,1.1806,1.1806,1.1806,1.1806,1.1806,1.1806,1.1806,1.1806,1.1806,1.1806,1.1806,1.1806,1.1806,1.1806,1.1806,1.1806,1.1806,1.1806,1.1806,1.1806,1.1806,1.1806,1.1806,1.1806,1.1806,1.1806,1.1806,1.1806,0.2008,0.2499,0.3541,0.5559,0.6418,0.7479,0.9314,0.9724,0.9737,0.9612,0.9666,0.9693,0.9618,0.9544,0.9408,0.9231,0.9022,0.8912,0.8912,0.8912,0.8912,0.8912,0.8912,0.8912,0.8912,0.8912,0.8912,0.8912,0.8912,0.8912,0.8912,0.8912,0.8912,0.8912,0.8912,0.8912,0.8912,0.8912,0.8912,0.8912,0.8912,0.8912,0.8912,0.8912,0.8912,0.8919,0.9015,0.9089,0.9161,0.9264,0.9291,0.9362,0.973,0.9957,1.0156,1.0618,1.0849,1.1029,1.1389,1.15,1.1545,1.1762,1.1806,1.1723,1.1533,1.1561,1.163,1.163,1.1737,1.1806,1.1806,1.1806,1.1774,1.1646,1.1741,1.1774,1.1676,1.1745,1.1806,1.1806,1.1806,1.1806,1.1806,1.1806,1.1806,1.1806,1.1806,1.1806,1.1806,1.1806,1.1806,1.1806,1.1806,1.1806,1.1806,1.1806,1.1806,1.1806,1.1806,1.1806,1.1806,1.1806,1.1806,1.1806,1.1806,1.1806,1.1806,1.1806,1.1806,1.1806,1.1806,1.1806,1.1806,1.1806,1.1806,1.1806,0.2284,0.3173,0.4396,0.5957,0.7151,0.831,0.9576,0.9775,0.9781,0.9758,0.9683,0.9608,0.9608,0.9449,0.9308,0.9158,0.9008,0.8923,0.8946,0.8926,0.8923,0.8946,0.8923,0.8912,0.8912,0.8912,0.8912,0.8912,0.8912,0.8912,0.8912,0.8912,0.8912,0.8912,0.8912,0.8912,0.8912,0.8912,0.8926,0.895,0.895,0.8963,0.8983,0.8956,0.8963,0.9,0.9148,0.9281,0.9413,0.9441,0.9418,0.948,0.9796,0.992,1.0095,1.0645,1.0848,1.1,1.1416,1.1545,1.1585,1.177,1.1806,1.1806,1.1806,1.1806,1.1806,1.1806,1.1806,1.1806,1.1806,1.1806,1.1806,1.1806,1.1806,1.1806,1.1806,1.1806,1.1806,1.1806,1.1806,1.1806,1.1806,1.1806,1.1806,1.1806,1.1806,1.1806,1.1806,1.1806,1.1806,1.1806,1.1806,1.1806,1.1806,1.1806,1.1806,1.1806,1.1806,1.1806,1.1806,1.1806,1.1806,1.1806,1.1806,1.1806,1.1806,1.1806,1.1806,1.1806,1.1806,1.1806,1.1806,1.1806,1.1806,1.1806,0.3416,0.3784,0.4702,0.7182,0.7764,0.8281,0.9447,0.971,0.9748,0.9652,0.9622,0.9608,0.9608,0.9383,0.9155,0.8953,0.8923,0.8963,0.9145,0.9008,0.8967,0.9148,0.9005,0.8912,0.8912,0.8912,0.8912,0.8912,0.8912,0.8912,0.8912,0.8912,0.8912,0.8912,0.8912,0.8912,0.8912,0.8912,0.9011,0.9152,0.9152,0.9233,0.9306,0.9203,0.9237,0.9306,0.9223,0.9281,0.943,0.9534,0.9578,0.9657,1.0081,1.0421,1.0752,1.1113,1.1421,1.1677,1.1732,1.177,1.1774,1.1798,1.1806,1.1806,1.1806,1.1806,1.1806,1.1806,1.1806,1.1806,1.1806,1.1806,1.1806,1.1806,1.1806,1.1806,1.1806,1.1806,1.1806,1.1806,1.1806,1.1806,1.1806,1.1806,1.1806,1.1806,1.1806,1.1806,1.1806,1.1806,1.1806,1.1806,1.1806,1.1806,1.1806,1.1806,1.1806,1.1806,1.1806,1.1806,1.1806,1.1806,1.1806,1.1806,1.1806,1.1806,1.1806,1.1806,1.1806,1.1806,1.1806,1.1806,1.1806,1.1806,1.1806,1.1806,0.3784,0.51,0.651,0.7703,0.8501,0.9124,0.9643,0.9751,0.9768,0.9707,0.9659,0.9608,0.9608,0.9366,0.9189,0.9184,0.9007,0.9007,0.9294,0.9169,0.9155,0.9301,0.9222,0.9147,0.9059,0.9059,0.9059,0.9059,0.895,0.8912,0.8912,0.8912,0.8912,0.8912,0.8912,0.8912,0.8912,0.8912,0.8946,0.9042,0.9148,0.9223,0.9284,0.9301,0.9352,0.9413,0.943,0.9503,0.9639,0.9703,0.9697,0.9737,0.995,1.0243,1.0577,1.091,1.1246,1.1557,1.1746,1.1806,1.1806,1.1806,1.1806,1.1806,1.1806,1.1806,1.1806,1.1806,1.1806,1.1806,1.1806,1.1806,1.1806,1.1806,1.1806,1.1806,1.1806,1.1806,1.1806,1.1806,1.1806,1.1806,1.1806,1.1806,1.1806,1.1806,1.1806,1.1806,1.1806,1.1806,1.1806,1.1806,1.1806,1.1806,1.1806,1.1806,1.1806,1.1806,1.1806,1.1806,1.1806,1.1806,1.1806,1.1806,1.1806,1.1806,1.1806,1.1806,1.1806,1.1806,1.1806,1.1806,1.1806,1.1806,1.1806,1.1806]},{"header":{"parameterUnit":"m.s-1","parameterCategory":1,"la1":30.6,"la2":28.766,"lo1":-90.7593,"lo2":-88.6598,"dy":0.0162,"dx":0.0183,"nx":116,"ny":114,"refTime":"2023-05-30T06:00:00:Z","depth":0,"parameterNumber":3,"parameterNumberName":"V-component_of_WINDS"},"data":[0.0,0.0,0.0,0.0,0.0,0.0,0.0,0.0,0.0,0.0,0.0,0.0,0.0,0.0,0.0,0.0,0.0,0.0,0.0,0.0,0.0,0.0,0.0,0.0,0.0,0.0,0.0,0.0,0.0,0.0,0.0,0.0,0.0,0.0,0.0,0.0,0.0,0.0,0.0,0.0,0.0,0.0,0.0,0.0,0.0,0.0,0.0,0.0,0.0,0.0,0.0,0.0,0.0,0.0,0.0,0.0,0.0,0.0,0.0,0.0,0.0,0.0,0.0,0.0,0.0,0.0,0.0,0.0,0.0,0.0,0.0,0.0,0.0,0.0,0.0,0.0,0.0,0.0,0.0,0.0,0.0,0.0,0.0,0.0,0.0,0.0,0.0,0.0,0.0,0.0,0.0,0.0,0.0,0.0,0.0,0.0,0.0,0.0,0.0,0.0,0.0,0.0,0.0,0.0,0.0,0.0,0.0,0.0,0.0,0.0,0.0,0.0,0.0,0.0,0.0,0.0,0.0,0.0,0.0,0.0,0.0,0.0,0.0,0.0,0.0,0.0,0.0,0.0,0.0,0.0,0.0,0.0,0.0,0.0,0.0,0.0,0.0,0.0,0.0,0.0,0.0,0.0,0.0,0.0,0.0,0.0,0.0,0.0,0.0,0.0,0.0,0.0,0.0,0.0,0.0,0.0,0.0,0.0,0.0,0.0,0.0,0.0,0.0,0.0,0.0,0.0,0.0,0.0,0.0,0.0,0.0,0.0,0.0,0.0,0.0,0.0,0.0,0.0,0.0,0.0,0.0,0.0,0.0,0.0,0.0,0.0,0.0,0.0,0.0,0.0,0.0,0.0,0.0,0.0,0.0,0.0,0.0,0.0,0.0,0.0,0.0,0.0,0.0,0.0,0.0,0.0,0.0,0.0,0.0,0.0,0.0,0.0,0.0,0.0,0.0,0.0,0.0,0.0,0.0,0.0,0.0,0.0,0.0,0.0,0.0,0.0,0.0,0.0,0.0,0.0,0.0,0.0,0.0,0.0,0.0,0.0,0.0,0.0,0.0,0.0,0.0,0.0,0.0,0.0,0.0,0.0,0.0,0.0,0.0,0.0,0.0,0.0,0.0,0.0,0.0,0.0,0.0,0.0,0.0,0.0,0.0,0.0,0.0,0.0,0.0,0.0,0.0,0.0,0.0,0.0,0.0,0.0,0.0,0.0,0.0,0.0,0.0,0.0,0.0,0.0,0.0,0.0,0.0,0.0,0.0,0.0,0.0,0.0,0.0,0.0,0.0,0.0,0.0,0.0,0.0,0.0,0.0,0.0,0.0,0.0,0.0,0.0,0.0,0.0,0.0,0.0,0.0,0.0,0.0,0.0,0.0,0.0,0.0,0.0,0.0,0.0,0.0,0.0,0.0,0.0,0.0,0.0,0.0,0.0,0.0,0.0,0.0,0.0,0.0,0.0,0.0,0.0,0.0,0.0,0.0,0.0,0.0,0.0,0.0,0.0,0.0,0.0,0.0,0.0,0.0,0.0,0.0,0.0,0.0,0.0,0.0,0.0,0.0,0.0,0.0,0.0,0.0,0.0,0.0,0.0,0.0,0.0,0.0,0.0,0.0,0.0,0.0,0.0,0.0,0.0,0.0,0.0,0.0,0.0,0.0,0.0,0.0,0.0,0.0,0.0,0.0,0.0,0.0,0.0,0.0,0.0,0.0,0.0,0.0,0.0,0.0,0.0,0.0,0.0,0.0,0.0,0.0,0.0,0.0,0.0,0.0,0.0,0.0,0.0,0.0,0.0,0.0,0.0,0.0,0.0,0.0,0.0,0.0,0.0,0.0,0.0,0.0,0.0,0.0,0.0,0.0,0.0,0.0,0.0,0.0,0.0,0.0,0.0,0.0,0.0,0.0,0.0,0.0,0.0,0.0,0.0,0.0,0.0,0.0,0.0,0.0,0.0,0.0,0.0,0.0,0.0,0.0,0.0,0.0,0.0,0.0,0.0,0.0,0.0,0.0,0.0,0.0,0.0,0.0,0.0,0.0,0.0,0.0,0.0,0.0,0.0,0.0,0.0,0.0,0.0,0.0,0.0,0.0,0.0,0.0,0.0,0.0,0.0,0.0,0.0,0.0,0.0,0.0,0.0,0.0,0.0,0.0,0.0,0.0,0.0,0.0,0.0,0.0,0.0,0.0,0.0,0.0,0.0,0.0,0.0,0.0,0.0,0.0,0.0,0.0,0.0,0.0,0.0,0.0,0.0,0.0,0.0,0.0,0.0,0.0,0.0,0.0,0.0,0.0,0.0,0.0,0.0,0.0,0.0,0.0,0.0,0.0,0.0,0.0,0.0,0.0,0.0,0.0,0.0,0.0,0.0,0.0,0.0,0.0,0.0,0.0,0.0,0.0,0.0,0.0,0.0,0.0,0.0,0.0,0.0,0.0,0.0,0.0,0.0,0.0,0.0,0.0,0.0,0.0,0.0,0.0,0.0,0.0,0.0,0.0,0.0,0.0,0.0,0.0,0.0,0.0,0.0,0.0,0.0,0.0,0.0,0.0,0.0,0.0,0.0,0.0,0.0,0.0,0.0,0.0,0.0,0.0,0.0,0.0,0.0,0.0,0.0,0.0,0.0,0.0,0.0,0.0,0.0,0.0,0.0,0.0,0.0,0.0,0.0,0.0,0.0,0.0,0.0,0.0,0.0,0.0,0.0,0.0,0.0,0.0,0.0,0.0,0.0,0.0,0.0,0.0,0.0,0.0,0.0,0.0,0.0,0.0,0.0,0.0,0.0,0.0,0.0,0.0,0.0,0.0,0.0,0.0,0.0,0.0,0.0,0.0,0.0,0.0,0.0,0.0,0.0,0.0,0.0,0.0,0.0,0.0,0.0,0.0,0.0,0.0,0.0,0.0,0.0,0.0,0.0,0.0,0.0,0.0,0.0,0.0,0.0,0.0,0.0,0.0,0.0,0.0,0.0,0.0,0.0,0.0,0.0,0.0,0.0,0.0,0.0,0.0,0.0,0.0,0.0,0.0,0.0,0.0,0.0,0.0,0.0,0.0,0.0,0.0,0.0,0.0,0.0,0.0,0.0,0.0,0.0,0.0,0.0,0.0,0.0,0.0,0.0,0.0,0.0,0.0,0.0,0.0,0.0,0.0,0.0,0.0,0.0,0.0,0.0,0.0,0.0,0.0,0.0,0.0,0.0,0.0,0.0,0.0,0.0,0.0,0.0,0.0,0.0,0.0,0.0,0.0,0.0,0.0,0.0,0.0,0.0,0.0,0.0,0.0,0.0,0.0,0.0,0.0,0.0,0.0,0.0,0.0,0.0,0.0,0.0,0.0,0.0,0.0,0.0,0.0,0.0,0.0,0.0,0.0,0.0,0.0,0.0,0.0,0.0,0.0,0.0,0.0,0.0,0.0,0.0,0.0,0.0,0.0,0.0,0.0,0.0,0.0,0.0,0.0,0.0,0.0,0.0,0.0,0.0,0.0,0.0,0.0,0.0,0.0,0.0,0.0,0.0,0.0,0.0,0.0,0.0,0.0,0.0,0.0,0.0,0.0,0.0,0.0,0.0,0.0,0.0,0.0,0.0,0.0,0.0,0.0,0.0,0.0,0.0,0.0,0.0,0.0,0.0,0.0,0.0,0.0,0.0,0.0,0.0,0.0,0.0,0.0,0.0,0.0,0.0,0.0,0.0,0.0,0.0,0.0,0.0,0.0,0.0,0.0,0.0,0.0,0.0,0.0,0.0,0.0,0.0,0.0,0.0,0.0,0.0,0.0,0.0,0.0,0.0,0.0,0.0,0.0,0.0,0.0,0.0,0.0,0.0,0.0,0.0,0.0,0.0,0.0,0.0,0.0,0.0,0.0,0.0,0.0,0.0,0.0,0.0,0.0,0.0,0.0,0.0,0.0,0.0,0.0,0.0,0.0,0.0,0.0,0.0,0.0,0.0,0.0,0.0,0.0,0.0,0.0,0.0,0.0,0.0,0.0,0.0,0.0,0.0,0.0,0.0,0.0,0.0,0.0,0.0,0.0,0.0,0.0,0.0,0.0,0.0,0.0,0.0,0.0,0.0,0.0,0.0,0.0,0.0,0.0,0.0,0.0,0.0,0.0,0.0,0.0,0.0,0.0,0.0,0.0,0.0,0.0,0.0,0.0,0.0,0.0,0.0,0.0,0.0,0.0,0.0,0.0,0.0,0.0,0.0,0.0,0.0,0.0,0.0,0.0,0.0,0.0,0.0,0.0,0.0,0.0,0.0,0.0,0.0,0.0,0.0,0.0,0.0,0.0,0.0,0.0,0.0,0.0,0.0,0.0,0.0,0.0,0.0,0.0,0.0,0.0,0.0,0.0,0.0,0.0,0.0,0.0,0.0,0.0,0.0,0.0,0.0,0.0,0.0,0.0,0.0,0.0,0.0,0.0,0.0,0.0,0.0,0.0,0.0,0.0,0.0,0.0,0.0,0.0,0.0,0.0,0.0,0.0,0.0,0.0,0.0,0.0,0.0,0.0,0.0,0.0,0.0,0.0,0.0,0.0,0.0,0.0,0.0,0.0,0.0,0.0,0.0,0.0,0.0,0.0,0.0,0.0,0.0,0.0,0.0,0.0,0.0,0.0,0.0,0.0,0.0,0.0,0.0,0.0,0.0,0.0,0.0,0.0,0.0,0.0,0.0,0.0,0.0,0.0,0.0,0.0,0.0,0.0,0.0,0.0,0.0,0.0,0.0,0.0,0.0,0.0,0.0,0.0,0.0,0.0,0.0,0.0,0.0,0.0,0.0,0.0,0.0,0.0,0.0,0.0,0.0,0.0,0.0,0.0,0.0,0.0,0.0,0.0,0.0,0.0,0.0,0.0,0.0,0.0,0.0,0.0,0.0,0.0,0.0,0.0,0.0,0.0,0.0,0.0,0.0,0.0,0.0,0.0,0.0,0.0,0.0,0.0,0.0,0.0,0.0,0.0,0.0,0.0,0.0,0.0,0.0,0.0,0.0,0.0,0.0,0.0,0.0,0.0,0.0,0.0,0.0,0.0,0.0,0.0,0.0,0.0,0.0,0.0,0.0,0.0,0.0,0.0,0.0,0.0,0.0,0.0,0.0,0.0,0.0,0.0,0.0,0.0,0.0,0.0,0.0,0.0,0.0,0.0,0.0,0.0,0.0,0.0,0.0,0.0,0.0,0.0,0.0,0.0,0.0,0.0,0.0,0.0,0.0,0.0,0.0,0.0,0.0,0.0,0.0,0.0,0.0,0.0,0.0,0.0,0.0,0.0,0.0,0.0,0.0,0.0,0.0,0.0,0.0,0.0,0.0,0.0,0.0,0.0,0.0,0.0,0.0,0.0,0.0,0.0,0.0,0.0,0.0,0.0,0.0,0.0,0.0,0.0,0.0,0.0,0.0,0.0,0.0,0.0,0.0,0.0,0.0,0.0,0.0,0.0,0.0,0.0,0.0,0.0,0.0,0.0,0.0,0.0,0.0,0.0,0.0,0.0,0.0,0.0,0.0,0.0,0.0,0.0,0.0,0.0,0.0,0.0,0.0,0.0,0.0,0.0,0.0,0.0,0.0,0.0,0.0,0.0,0.0,0.0,0.0,0.0,0.0,0.0,0.0,0.0,0.0,0.0,0.0,0.0,0.0,0.0,0.0,0.0,0.0,0.0,0.0,0.0,0.0,0.0,0.0,0.0,0.0,0.0,0.0,0.0,0.0,0.0,0.0,0.0,0.0,0.0,0.0,0.0,0.0,0.0,0.0,0.0,0.0,0.0,0.0,0.0,0.0,0.0,0.0,0.0,0.0,0.0,0.0,0.0,0.0,0.0,0.0,0.0,0.0,0.0,0.0,0.0,0.0,0.0,0.0,0.0,0.0,0.0,0.0,0.0,0.0,0.0,0.0,0.0,0.0,0.0,0.0,0.0,0.0,0.0,0.0,0.0,0.0,0.0,0.0,0.0,0.0,0.0,0.0,0.0,0.0,0.0,0.0,0.0,0.0,0.0,0.0,0.0,0.0,0.0,0.0,0.0,0.0,0.0,0.0,0.0,0.0,0.0,0.0,0.0,0.0,0.0,0.0,0.0,0.0,0.0,0.0,0.0,0.0,2.2511,0.0,0.0,0.0,0.0,0.0,0.0,0.0,0.0,0.0,0.0,0.0,0.0,0.0,0.0,0.0,0.0,0.0,0.0,0.0,0.0,0.0,0.0,0.0,0.0,0.0,0.0,0.0,0.0,0.0,0.0,0.0,0.0,0.0,0.0,0.0,0.0,0.0,0.0,0.0,2.3313,2.4112,2.4908,2.4908,2.47,2.4336,0.0,0.0,0.0,0.0,0.0,0.0,0.0,0.0,0.0,0.0,0.0,0.0,0.0,0.0,0.0,0.0,0.0,0.0,0.0,0.0,0.0,0.0,0.0,0.0,0.0,0.0,0.0,0.0,0.0,0.0,0.0,0.0,0.0,0.0,0.0,0.0,0.0,0.0,0.0,0.0,0.0,0.0,0.0,0.0,0.0,0.0,0.0,0.0,0.0,0.0,0.0,0.0,0.0,0.0,0.0,0.0,0.0,0.0,0.0,0.0,0.0,0.0,0.0,0.0,0.0,0.0,0.0,0.0,0.0,0.0,0.0,2.4083,0.0,0.0,0.0,0.0,0.0,0.0,0.0,0.0,0.0,0.0,0.0,0.0,0.0,0.0,0.0,0.0,0.0,0.0,0.0,0.0,0.0,0.0,0.0,0.0,2.0525,2.1545,2.1555,2.1864,0.0,0.0,0.0,0.0,0.0,0.0,0.0,2.2882,2.3025,2.3152,2.4833,2.6349,2.7718,2.8021,2.7411,2.6065,2.5629,0.0,0.0,0.0,0.0,0.0,0.0,0.0,0.0,0.0,0.0,0.0,0.0,0.0,0.0,0.0,0.0,0.0,0.0,0.0,0.0,0.0,0.0,0.0,0.0,0.0,0.0,0.0,0.0,0.0,0.0,0.0,0.0,0.0,0.0,0.0,0.0,0.0,0.0,0.0,0.0,0.0,0.0,0.0,0.0,0.0,0.0,0.0,0.0,0.0,0.0,0.0,0.0,0.0,0.0,0.0,0.0,0.0,0.0,0.0,0.0,0.0,0.0,0.0,2.8641,2.9317,3.0608,3.0815,3.0923,3.0765,2.7872,2.6473,2.6196,2.5921,0.0,0.0,0.0,0.0,0.0,0.0,0.0,0.0,0.0,0.0,0.0,0.0,0.0,0.0,0.0,0.0,0.0,0.0,0.0,0.0,0.0,2.0674,2.0844,2.2468,2.1926,2.1869,0.0,0.0,0.0,0.0,0.0,0.0,2.3718,2.4407,2.5095,2.5806,2.7414,2.8324,2.857,3.0033,3.0583,3.028,2.8131,2.7168,2.7111,0.0,0.0,0.0,0.0,0.0,0.0,0.0,0.0,0.0,0.0,0.0,0.0,0.0,0.0,0.0,0.0,0.0,0.0,0.0,0.0,0.0,0.0,0.0,0.0,0.0,0.0,0.0,0.0,0.0,0.0,0.0,0.0,0.0,0.0,0.0,0.0,0.0,0.0,0.0,0.0,0.0,2.6672,2.6779,0.0,0.0,0.0,0.0,0.0,0.0,0.0,0.0,0.0,0.0,0.0,0.0,0.0,2.8445,2.9127,3.0509,3.1304,3.1567,3.2292,3.2758,3.2957,3.2986,3.3001,3.2983,3.2513,0.0,2.8635,2.8656,0.0,0.0,0.0,0.0,0.0,0.0,0.0,0.0,0.0,0.0,0.0,0.0,0.0,0.0,0.0,0.0,0.0,0.0,0.0,0.0,0.0,2.098,2.1544,2.2801,2.3456,2.397,2.4341,2.481,0.0,0.0,0.0,2.4732,2.4732,2.5469,2.6918,2.9117,3.0265,3.1326,3.2256,3.2946,3.3278,3.324,3.2145,3.0364,2.8123,2.7278,0.0,0.0,0.0,0.0,0.0,0.0,0.0,0.0,0.0,0.0,0.0,0.0,0.0,0.0,0.0,0.0,0.0,0.0,0.0,0.0,0.0,0.0,0.0,0.0,0.0,0.0,0.0,0.0,0.0,0.0,0.0,0.0,0.0,0.0,0.0,0.0,0.0,0.0,0.0,2.7509,2.8081,2.807,2.7974,2.7743,0.0,0.0,0.0,0.0,0.0,0.0,0.0,0.0,0.0,3.2373,3.2249,3.2538,3.3359,3.3905,3.4622,3.5535,3.592,3.6544,3.7387,3.7387,3.7152,3.6761,3.6761,3.5291,3.2762,3.1379,3.0196,2.917,0.0,0.0,0.0,0.0,2.9075,2.9392,0.0,0.0,0.0,0.0,0.0,0.0,0.0,0.0,0.0,0.0,0.0,0.0,2.0975,2.1846,2.2823,2.3903,2.5396,2.6279,2.6279,2.6611,0.0,0.0,2.5575,2.5538,2.5753,2.6837,2.8485,3.0697,3.2602,3.4177,3.5371,3.5969,3.6131,3.5899,3.5657,3.3468,2.9916,2.8885,2.8321,2.8055,0.0,0.0,0.0,0.0,0.0,0.0,0.0,0.0,0.0,0.0,0.0,0.0,0.0,0.0,0.0,0.0,0.0,0.0,0.0,0.0,0.0,0.0,0.0,0.0,0.0,0.0,0.0,0.0,0.0,0.0,0.0,0.0,0.0,0.0,0.0,0.0,0.0,2.9066,2.9795,2.9588,2.9894,2.9811,0.0,0.0,0.0,0.0,0.0,0.0,3.3902,3.4155,3.5043,3.6702,3.6519,3.6784,3.7662,3.7388,3.7857,3.9043,3.9043,3.9655,4.0761,4.0761,4.03,3.9523,3.9523,3.8338,3.6246,3.3977,3.2654,3.2005,3.1606,3.1285,3.1062,3.1343,3.1827,3.2266,0.0,0.0,0.0,0.0,0.0,0.0,0.0,0.0,0.0,0.0,0.0,2.1117,2.2772,2.3747,2.4917,2.6552,2.7547,2.8073,2.8073,2.733,2.6881,2.6823,2.5976,2.5885,2.6704,2.8945,2.974,2.9022,3.3963,3.6365,3.639,3.8809,3.9451,3.8567,3.7667,3.586,3.3335,3.1701,3.0564,2.973,2.8093,0.0,0.0,0.0,0.0,0.0,0.0,0.0,0.0,0.0,0.0,0.0,0.0,0.0,0.0,0.0,0.0,0.0,0.0,0.0,0.0,0.0,0.0,0.0,0.0,0.0,0.0,0.0,0.0,0.0,0.0,0.0,0.0,0.0,0.0,0.0,0.0,0.0,0.0,3.1188,3.2331,0.0,0.0,0.0,0.0,3.2803,3.4366,3.5671,3.6466,3.7299,3.848,4.01,4.0135,4.0519,4.1338,4.1255,4.1244,4.1337,4.1337,4.1374,4.1441,4.1441,4.087,3.9871,3.9871,3.9193,3.7947,3.6301,3.4661,3.3217,3.3188,3.3136,3.3068,3.314,3.3188,3.3239,0.0,0.0,0.0,0.0,0.0,0.0,0.0,0.0,2.0499,2.0499,2.0986,2.1999,2.3751,2.5173,2.6692,2.8424,2.8853,2.8795,2.8249,2.7373,2.6906,2.6906,2.6579,2.7291,2.9196,3.1166,3.2787,3.4041,3.6929,3.8598,3.9127,3.9988,4.0184,3.9849,3.9981,3.9209,3.76,3.4234,3.2326,3.1398,2.9711,2.8726,0.0,0.0,0.0,0.0,0.0,0.0,0.0,0.0,0.0,0.0,0.0,0.0,0.0,0.0,0.0,0.0,0.0,0.0,0.0,0.0,0.0,0.0,0.0,0.0,0.0,0.0,0.0,0.0,0.0,0.0,0.0,0.0,0.0,0.0,0.0,0.0,0.0,3.4269,3.5644,0.0,3.5402,3.6028,3.674,3.7391,3.852,3.9764,4.1135,4.1492,4.2435,4.4082,4.3921,4.4198,4.4989,4.4251,4.3869,4.3869,4.3314,4.3036,4.3036,4.3036,4.2548,4.167,4.1163,4.027,3.9154,3.806,3.6843,3.5633,3.5119,3.4896,3.4873,3.4904,3.5245,3.5605,0.0,0.0,0.0,0.0,0.0,0.0,0.0,0.0,2.0499,2.0499,2.1512,2.2894,2.4647,2.6867,2.8678,2.9847,3.0218,3.0004,2.9126,2.7996,2.747,2.7762,2.8054,2.885,3.0171,3.2726,3.513,3.7334,3.9306,4.0837,4.1928,4.2196,4.2117,4.1766,4.2238,4.1943,4.0867,3.7674,3.5461,3.3884,3.164,3.0768,3.0583,0.0,0.0,0.0,0.0,0.0,0.0,0.0,0.0,0.0,0.0,0.0,0.0,0.0,0.0,0.0,0.0,0.0,0.0,0.0,0.0,0.0,0.0,0.0,0.0,0.0,0.0,0.0,0.0,0.0,0.0,0.0,0.0,0.0,0.0,0.0,3.7367,3.7656,3.9165,3.9839,3.8965,3.9688,4.0463,4.1126,4.2236,4.3379,4.4478,4.5085,4.5906,4.7005,4.6834,4.6965,4.7504,4.6464,4.5941,4.5922,4.5084,4.4684,4.4672,4.4358,4.3735,4.2845,4.2304,4.1423,4.0331,3.9792,3.9162,3.8384,3.7102,3.6616,3.6616,3.6616,3.6942,3.7339,0.0,0.0,0.0,0.0,0.0,0.0,0.0,2.0519,2.0538,2.0499,2.2077,2.3849,2.5582,2.8814,3.0858,3.0917,3.1623,3.1701,3.086,2.9145,2.8561,2.9496,3.0373,3.0468,2.9656,3.3705,3.666,3.8374,4.0993,4.3058,4.4573,4.5478,4.5383,4.4446,4.4404,4.3913,4.306,4.2076,4.011,3.7354,3.3927,3.3501,3.4453,0.0,0.0,0.0,0.0,0.0,0.0,0.0,0.0,0.0,0.0,0.0,0.0,0.0,0.0,0.0,0.0,0.0,0.0,0.0,0.0,0.0,0.0,0.0,0.0,0.0,0.0,0.0,0.0,0.0,0.0,0.0,0.0,0.0,3.651,3.8503,4.0393,4.1294,4.2829,4.3493,4.264,4.3341,4.3872,4.3897,4.5432,4.6367,4.6398,4.7921,4.8774,4.8781,4.8755,4.8736,4.8743,4.7883,4.7447,4.7447,4.6594,4.6215,4.6177,4.5299,4.4291,4.3259,4.3241,4.2578,4.1544,4.1533,4.1507,4.1286,3.9112,3.827,3.826,3.8234,3.8216,3.8217,0.0,0.0,0.0,0.0,0.0,0.0,0.0,2.1045,2.1219,2.0577,2.3128,2.5621,2.7334,3.0044,3.2227,3.3453,3.2088,3.1055,3.082,2.858,2.821,3.0352,3.1271,3.2786,3.5013,3.7423,3.9808,4.213,4.3494,4.47,4.5745,4.5998,4.594,4.5667,4.6177,4.6242,4.5958,4.5576,4.4527,4.2717,3.7932,3.5571,3.4718,0.0,0.0,0.0,0.0,0.0,0.0,0.0,0.0,0.0,0.0,0.0,0.0,0.0,0.0,0.0,0.0,0.0,0.0,0.0,0.0,0.0,0.0,0.0,0.0,0.0,0.0,0.0,0.0,0.0,0.0,0.0,0.0,4.0409,4.0723,4.2352,4.4097,4.5665,4.6157,4.6322,4.6178,4.6921,4.7644,4.8213,4.9334,5.0196,5.0744,5.0649,5.0619,5.0653,4.9992,4.9663,4.9708,4.8891,4.8492,4.8473,4.7028,4.6349,4.6305,4.539,4.4799,4.4473,4.388,4.3297,4.2687,4.2153,4.177,4.1385,4.0193,3.973,3.9656,3.9017,3.8658,3.8486,0.0,0.0,0.0,0.0,0.0,0.0,0.0,2.0928,2.1064,2.0577,2.3225,2.5679,2.7003,2.9459,3.1408,3.2382,3.0788,2.9874,3.0225,2.9523,2.9582,3.0751,3.3009,3.5345,3.7681,4.0135,4.2473,4.4694,4.5925,4.6977,4.7815,4.8534,4.8466,4.7762,4.8557,4.849,4.7755,4.7604,4.7167,4.6288,4.2756,3.9814,3.7334,3.5457,3.4643,3.4396,3.3695,3.3771,3.4074,3.324,0.0,0.0,0.0,0.0,0.0,0.0,0.0,0.0,0.0,0.0,0.0,0.0,0.0,0.0,0.0,0.0,0.0,0.0,0.0,0.0,0.0,0.0,0.0,0.0,4.3455,4.5316,4.7556,4.7408,4.7732,4.9486,4.9632,4.9613,4.9695,5.012,5.0589,5.1045,5.1598,5.2099,5.2528,5.211,5.1864,5.191,5.1369,5.1115,5.1154,5.0355,4.9943,4.9924,4.8243,4.7443,4.7424,4.65,4.6083,4.6064,4.5595,4.5076,4.4506,4.4071,4.3548,4.2865,0.0,0.0,0.0,0.0,3.8907,3.8767,0.0,0.0,0.0,0.0,0.0,0.0,0.0,2.0674,2.0713,2.0538,2.2855,2.4803,2.5485,2.7822,2.934,2.9342,2.875,2.8718,2.9595,3.1095,3.1815,3.1522,3.5254,3.7937,3.9185,4.2297,4.4793,4.6649,4.8282,4.9508,5.0326,5.1883,5.1824,5.0463,5.1145,5.0598,4.9138,4.8954,4.8747,4.845,4.7511,4.4882,4.1206,3.8105,3.726,3.7502,3.5903,3.5382,3.5325,3.4415,0.0,0.0,0.0,0.0,0.0,0.0,0.0,0.0,0.0,0.0,0.0,0.0,0.0,0.0,0.0,0.0,0.0,0.0,0.0,0.0,0.0,0.0,0.0,0.0,4.8399,5.0913,5.5025,5.2927,5.1497,5.2881,5.2868,5.2747,5.2767,5.276,5.2754,5.2754,5.2855,5.2913,5.2887,0.0,0.0,0.0,0.0,5.2608,5.2615,5.1916,5.1516,5.1396,4.9828,4.9003,4.8889,4.8,4.76,4.76,4.76,4.7195,4.6536,4.6542,4.6022,4.5019,4.268,4.1278,4.0463,3.9696,3.9315,3.9207,0.0,0.0,0.0,0.0,0.0,0.0,0.0,2.1687,2.2096,2.0674,2.3381,2.5251,2.4705,2.6925,2.8448,2.8459,2.8949,2.9616,3.0483,3.0853,3.2526,3.5811,3.7429,3.9943,4.3589,4.4996,4.6906,4.9354,5.0334,5.1261,5.2097,5.2448,5.2799,5.311,5.2584,5.2152,5.1834,5.1802,5.0882,4.9423,4.922,4.695,4.3546,4.203,4.0696,3.9509,3.8362,3.8376,3.8706,3.7182,3.6675,3.6543,3.5728,3.4529,0.0,0.0,0.0,0.0,0.0,0.0,0.0,0.0,0.0,0.0,0.0,0.0,0.0,0.0,0.0,0.0,0.0,0.0,0.0,4.986,5.201,5.4091,5.6988,5.6809,5.6249,5.5867,5.4547,5.3682,5.3811,5.376,5.3721,5.3727,5.4434,5.4803,5.47,5.409,5.3747,5.3818,5.308,5.2711,5.2755,5.2602,5.2195,5.154,5.0515,0.0,4.9026,4.8096,4.7672,4.7672,4.7672,4.7554,4.7366,4.7426,4.6938,4.5972,4.4151,4.2909,4.2132,4.1975,4.1324,4.054,0.0,0.0,0.0,0.0,0.0,0.0,0.0,2.1609,2.2135,2.1258,2.305,2.422,2.3797,2.4887,2.5826,2.6265,2.7498,2.8603,2.944,3.1536,3.4099,3.7115,3.9726,4.2295,4.4841,4.6614,4.8147,4.9445,5.1121,5.1953,5.1961,5.2838,5.3013,5.2604,5.2604,5.2604,5.2604,5.2604,5.2031,5.1159,5.1111,4.9511,4.6933,4.4914,4.3353,4.2138,4.1221,4.083,4.0559,3.9275,3.8513,3.7948,3.7113,3.624,3.5486,0.0,0.0,0.0,0.0,0.0,0.0,0.0,0.0,0.0,0.0,0.0,0.0,0.0,0.0,4.3228,0.0,0.0,5.0775,5.4193,5.5778,5.7199,5.8906,5.9154,5.8676,5.7396,5.6076,5.528,5.5339,5.4957,5.4708,5.4695,5.5148,5.5364,5.53,5.4918,5.4721,5.4753,5.4295,5.4066,5.4104,5.3664,5.3244,5.2837,5.1964,5.1123,5.034,4.9866,4.9409,4.8995,4.8995,4.8754,4.8317,4.7915,4.7484,4.6965,4.5707,4.4402,4.3205,4.2748,4.2246,4.1685,0.0,0.0,0.0,0.0,0.0,0.0,0.0,2.1239,2.1804,2.1804,2.2565,2.3095,2.3101,2.326,2.377,2.481,2.6183,2.7563,2.8865,3.2562,3.571,3.7949,4.1671,4.4239,4.5376,4.7465,4.8628,4.8798,5.134,5.2157,5.1345,5.3073,5.3151,5.1832,5.2353,5.2682,5.2857,5.2857,5.2857,5.2836,5.2604,5.1714,5.0184,4.7327,4.5645,4.4694,4.3503,4.2441,4.1489,4.0633,3.9793,3.9038,3.8494,3.8185,3.7895,3.7288,3.7217,0.0,0.0,0.0,0.0,0.0,0.0,0.0,0.0,0.0,4.1411,4.2479,4.5295,4.8094,4.9865,5.2943,5.5927,5.8138,5.9159,5.9867,6.0437,6.0446,5.9843,5.8367,5.741,5.6842,5.6842,5.5976,5.5396,5.5396,5.5396,5.5396,5.5396,5.5396,5.5396,5.5396,5.5396,5.5396,5.5396,5.4696,5.4276,5.4085,5.3397,5.2614,5.1824,5.1824,5.1366,5.0544,5.0378,4.992,4.9276,4.8411,4.8042,4.7966,4.7087,4.5892,4.4532,4.3509,4.3014,4.278,0.0,0.0,0.0,0.0,0.0,0.0,0.0,0.0,2.1804,2.1804,2.2551,2.3101,2.3102,2.379,2.4928,2.6574,2.6894,2.8324,3.1469,3.3574,3.6497,4.0508,4.2615,4.4799,4.7157,4.7506,4.8023,4.8793,5.1356,5.215,5.1348,5.3081,5.3802,5.3588,5.2906,5.3032,5.3753,5.3753,5.3753,5.3695,5.2892,5.2481,5.2031,4.9426,4.7749,4.646,4.3915,4.2448,4.1554,4.0759,4.0398,4.0441,4.1107,4.0787,4.0135,4.0042,0.0,3.6925,3.7501,3.7698,3.7698,3.754,3.8752,4.0559,0.0,0.0,4.522,4.6996,4.9452,5.1852,5.3724,5.6867,5.9484,6.05,6.1233,6.1507,6.1001,6.0634,6.0109,5.9338,5.8355,5.7753,5.7753,5.6339,5.5396,5.5396,5.5396,5.5396,5.5396,5.5396,5.5396,5.5396,5.5396,5.5396,5.5396,5.5301,5.4861,5.4104,5.4008,5.3492,5.2677,5.2677,5.2212,5.1404,5.064,5.0245,5.0092,4.9295,4.8951,4.8875,4.7985,4.7534,4.7166,4.5586,4.4517,4.3838,0.0,0.0,0.0,0.0,0.0,0.0,0.0,0.0,0.0,2.2492,2.2867,2.3281,2.3796,2.4173,2.469,2.5424,2.6415,2.8231,3.1147,3.3931,3.6928,4.0204,4.2508,4.4436,4.601,4.6534,4.7463,4.8797,4.9866,5.0696,5.1312,5.1574,5.1937,5.2364,5.2006,5.2331,5.3149,5.3149,5.3149,5.311,5.274,5.198,5.0852,4.8826,4.7116,4.559,4.3943,4.2449,0.0,4.0256,3.9904,3.9875,4.0229,4.0416,4.0416,3.9937,3.9416,0.0,3.8832,3.9532,0.0,0.0,4.2644,4.5294,4.632,4.8341,5.0383,5.1676,5.3965,5.6123,5.7388,5.9578,6.1311,0.0,6.1939,6.187,6.1104,6.0311,5.9348,5.8094,5.7473,5.7141,5.7141,5.6091,5.5396,5.5396,5.5396,5.5396,5.5396,5.5396,5.5396,5.5396,5.5396,5.5396,5.5396,5.5396,5.5224,5.4868,5.4868,5.4409,5.3531,5.304,5.2365,5.1576,5.1213,5.106,5.0984,5.0149,4.9811,4.971,4.8869,4.8563,4.8353,4.6634,4.5774,4.5329,0.0,0.0,0.0,0.0,0.0,0.0,0.0,0.0,0.0,0.0,2.2948,2.352,2.4645,2.4767,2.4755,2.4764,2.6125,2.79,2.9977,3.3365,3.6422,3.9,4.1596,4.3506,4.4629,4.5493,4.6541,4.7751,4.8458,4.9293,5.0253,5.0383,5.0647,5.0984,5.1195,5.1772,5.2604,5.2604,5.274,5.2935,5.2701,5.1552,4.9781,4.7873,4.5905,4.4072,4.3213,4.1756,4.0148,3.9505,3.9192,3.9124,3.9356,3.9832,4.0233,3.9893,4.0245,4.0613,4.0025,0.0,0.0,4.3338,4.6645,4.9835,5.0078,5.2565,5.4924,5.5389,5.7304,5.9048,5.9429,6.1096,6.2236,6.1747,6.2039,6.1871,6.0619,5.9689,5.8494,5.6814,5.6232,5.5957,5.5912,5.5594,5.5396,5.5396,5.5396,5.5396,5.5396,5.5396,5.5396,5.5396,5.5396,5.5396,5.5396,5.5396,5.5396,5.5396,5.5396,5.5078,5.4428,5.355,5.2709,5.1926,5.171,5.1461,5.1213,5.0812,5.0531,5.0264,4.992,4.9639,4.9257,4.7761,4.7054,4.6648,0.0,0.0,0.0,0.0,0.0,0.0,0.0,0.0,0.0,0.0,0.0,0.0,0.0,2.5668,2.5668,2.5669,2.6489,2.7387,2.8323,3.1582,3.4646,3.7262,3.982,4.1987,4.3705,4.4591,4.5054,4.5111,4.7596,4.8396,4.7667,5.0191,5.0925,5.0164,5.0948,5.1787,5.2604,5.2604,5.3091,5.3792,5.2935,5.1552,4.9722,4.7191,4.4637,4.2276,4.1479,4.0055,3.8575,3.8536,3.8533,3.8667,3.9525,3.9797,0.0,4.0791,4.1064,4.1083,4.1064,0.0,4.5014,4.6717,5.0225,5.3468,5.4316,5.6492,5.8167,5.7546,5.8762,5.9753,5.9146,6.113,6.2338,6.0624,6.1602,6.1758,5.9384,5.8702,5.7808,5.6137,5.5017,5.432,0.0,5.4919,5.5396,5.5396,5.5396,5.5396,5.5396,5.5396,5.5396,5.5396,5.5396,5.5396,5.5396,5.5396,5.5396,5.5396,5.5396,5.5396,5.532,5.4467,5.3588,5.2715,5.1939,5.1117,5.0397,5.1213,5.106,5.0378,5.1194,5.1003,5.0168,4.9333,4.8487,4.7641,0.0,0.0,0.0,0.0,0.0,0.0,0.0,0.0,0.0,0.0,0.0,0.0,0.0,0.0,0.0,0.0,2.6508,2.7367,2.8244,3.0958,3.3183,3.4646,3.7204,3.937,4.1088,4.1964,4.3269,4.5005,4.5275,4.5834,4.6643,4.6996,4.7589,4.8399,4.8654,4.9251,5.0073,5.0073,5.0248,5.0443,4.9566,4.8514,4.7191,4.4598,4.2375,4.0446,0.0,3.8149,3.7545,3.696,3.7155,3.7681,3.7974,3.848,3.9102,3.9979,4.1831,4.3742,4.4327,4.7153,5.0484,5.2766,5.5237,5.7506,5.8946,5.9485,5.9627,5.9407,5.8461,5.7615,5.7377,5.7594,5.7964,5.8492,5.9007,5.9464,5.9812,5.9137,5.7752,5.5497,5.5813,0.0,0.0,0.0,0.0,5.5358,5.5396,5.5632,5.6167,5.5689,5.5651,5.6186,5.5689,5.5396,5.5396,5.5396,5.5396,5.5396,5.5396,5.5091,5.4543,5.483,5.4486,5.3626,5.2766,5.2231,5.1907,5.1085,5.0569,5.034,5.0627,5.0569,5.0264,4.9996,4.971,4.9265,0.0,0.0,0.0,0.0,0.0,0.0,0.0,0.0,0.0,0.0,0.0,0.0,0.0,0.0,0.0,0.0,0.0,2.6761,2.7327,2.9494,3.125,3.242,3.4685,3.6696,3.8413,3.9292,4.0561,4.2258,4.2006,4.2585,4.3918,4.3691,4.4341,4.569,4.6009,4.6606,4.7386,4.7072,4.7111,4.7328,4.6468,4.5416,4.415,4.2161,4.0349,0.0,3.7253,3.6746,3.6649,3.6084,3.6473,3.7194,3.7194,3.8013,3.9203,4.0379,4.2935,4.5764,4.7562,5.0734,5.414,5.6722,5.8882,6.0534,6.1045,6.1205,6.0621,5.8453,5.6714,5.519,5.396,5.3526,5.3792,5.5197,5.6191,5.7301,5.8745,5.8359,5.7286,5.5578,5.568,5.5354,0.0,0.0,0.0,5.5406,5.5683,5.5938,5.6167,5.5957,5.5938,5.6167,5.567,5.5396,5.5396,5.5396,5.5396,5.5396,5.5396,5.511,5.4581,5.5129,5.4919,5.4065,5.3511,5.2919,5.2308,5.1525,5.0837,5.034,5.064,5.0569,5.0302,5.0302,5.0302,5.0111,0.0,0.0,0.0,0.0,0.0,0.0,0.0,0.0,0.0,0.0,0.0,0.0,0.0,0.0,0.0,0.0,0.0,0.0,2.5707,2.7288,2.8947,3.0547,3.2303,3.406,3.5758,3.6696,3.7184,3.7223,3.8063,3.8864,3.9623,4.0445,4.1293,4.217,4.3007,4.3831,4.4584,4.376,4.3918,4.4623,4.376,4.2453,4.0935,4.0018,3.8636,3.7097,3.6201,3.5929,3.5968,3.5968,3.6553,3.7274,3.737,3.8578,4.0277,4.207,4.4494,4.7326,5.0674,5.3512,5.6135,5.8666,6.1056,6.2352,6.0751,6.1457,6.0794,5.5019,5.3662,5.2519,0.0,0.0,5.0192,5.1146,5.3504,5.553,5.6487,5.6663,5.6595,0.0,0.0,0.0,0.0,0.0,0.0,5.5686,0.0,5.6307,5.5626,5.6262,5.632,5.5549,5.5473,5.5435,5.5396,5.5396,5.5396,5.5396,5.5396,5.5396,5.5396,5.5396,5.4957,5.4161,5.4123,5.3168,5.1729,5.248,5.1811,5.0397,5.1251,5.1079,5.0378,5.0378,5.0378,5.0264,0.0,0.0,0.0,0.0,0.0,0.0,0.0,0.0,0.0,0.0,0.0,0.0,0.0,0.0,0.0,0.0,0.0,0.0,2.5707,2.6722,2.7523,2.7953,3.0216,3.1972,3.3066,3.4588,3.5681,3.6324,3.6559,3.6771,3.6979,3.72,3.7739,3.8535,3.8819,3.9732,4.1081,4.0865,4.1276,4.1999,4.113,4.05,3.9974,3.8444,3.7584,3.7097,3.6201,3.6317,3.6866,3.6879,3.7448,3.8399,3.9691,4.0868,4.2206,4.4532,4.8403,5.2273,5.3817,5.7031,6.0285,6.1595,6.1474,6.0925,6.0499,5.8219,5.5565,5.3377,5.0391,4.7893,0.0,0.0,0.0,5.1011,5.3525,0.0,5.8052,5.8925,0.0,5.7555,0.0,5.8155,5.705,5.7257,0.0,0.0,5.7013,5.7065,5.8109,5.7791,5.7466,5.7275,5.6625,5.6014,5.5415,5.5396,5.5396,5.5396,5.5396,5.5396,5.5396,5.5396,5.5282,5.5033,5.439,5.3492,5.2499,5.2715,5.1811,5.0397,5.1251,5.1461,5.127,5.127,5.127,5.1232,0.0,0.0,0.0,0.0,0.0,0.0,0.0,0.0,0.0,0.0,0.0,0.0,0.0,0.0,0.0,0.0,0.0,0.0,0.0,2.5941,2.643,2.643,2.8167,2.9728,3.0978,3.1954,3.2871,3.3728,3.3728,3.3902,3.4288,3.4293,3.4736,3.5539,3.5566,3.6321,3.7553,3.7553,3.8042,0.0,0.0,3.809,3.7973,3.6992,3.6635,3.6572,3.6072,3.6702,3.7955,0.0,0.0,4.1037,4.2781,4.419,4.5723,4.8304,0.0,5.4942,5.6938,5.9527,6.1843,6.2728,6.1652,6.0009,5.8493,5.5978,5.305,4.9906,4.7348,0.0,4.4164,4.4981,0.0,0.0,0.0,0.0,5.8012,5.8888,5.9141,0.0,5.9434,0.0,5.8332,5.847,5.8735,0.0,5.8193,5.7944,5.8529,5.8566,5.8227,5.7486,5.6981,5.63,5.5415,5.5396,5.5396,5.5396,5.5396,5.5396,5.5396,5.5396,5.5396,5.5358,5.4887,5.418,5.3359,5.3359,5.2594,5.1448,5.1945,5.2136,5.2136,5.2136,5.2136,5.2079,0.0,0.0,0.0,0.0,0.0,0.0,0.0,0.0,0.0,0.0,0.0,0.0,0.0,0.0,0.0,0.0,0.0,0.0,0.0,0.0,2.559,2.5687,2.6411,2.764,2.9397,2.9534,2.9982,3.0801,3.0801,3.1191,3.1934,3.1934,3.2321,3.3054,3.3054,3.3533,3.4352,3.4352,3.4899,3.5739,3.5737,3.5814,3.5912,0.0,3.5901,3.5933,3.6157,3.7222,0.0,0.0,4.3107,4.4115,4.6108,4.7905,4.982,5.2431,5.4592,5.6791,5.9766,6.1282,6.2173,6.2694,6.1341,5.9032,5.5707,5.3932,5.1433,4.5948,0.0,4.379,4.1525,4.2514,4.4576,4.7245,0.0,5.3061,5.7367,5.807,5.8752,6.0373,5.9903,5.9371,5.9197,5.9155,5.9384,5.9952,5.9603,5.9057,5.8349,5.9146,5.8836,5.7145,5.6961,5.6427,5.5434,5.5416,5.5396,5.5396,5.5396,5.5396,5.5396,5.5396,5.5396,5.5396,5.5396,5.49,5.4104,5.4218,5.3683,5.2811,5.2925,5.2964,5.2964,5.2964,5.2964,5.2868,0.0,0.0,0.0,0.0,0.0,0.0,0.0,0.0,0.0,0.0,2.1161,2.1064,0.0,0.0,0.0,0.0,0.0,0.0,0.0,0.0,0.0,2.5668,2.5844,2.6741,2.8498,2.9221,2.9982,3.0801,3.0801,3.0879,3.1035,3.1035,3.1113,3.1247,3.1247,3.1735,3.2552,3.2552,3.3466,3.4903,3.4914,3.5339,3.598,3.5921,0.0,0.0,3.7532,3.8241,3.9017,4.2343,4.4011,4.5228,4.8422,5.0613,5.2528,5.51,5.8097,6.0721,6.1309,6.2636,6.3533,6.2246,5.9571,5.6544,5.3777,5.0283,0.0,0.0,4.2786,4.1634,4.1184,4.2511,4.4774,4.8032,5.0766,5.3962,5.8262,5.9491,6.033,0.0,6.1343,6.1243,6.1192,6.1047,0.0,0.0,6.0806,6.0616,6.047,6.064,5.9925,5.8186,5.7334,5.6467,5.5566,5.5452,5.5396,5.5396,5.5396,5.5396,5.5396,5.5396,5.5396,5.5396,5.5396,0.0,5.4161,5.4887,5.4237,5.2868,5.3588,5.3874,5.3874,5.3874,5.3874,5.3855,0.0,0.0,0.0,0.0,0.0,0.0,0.0,2.0889,2.1336,2.1745,2.1823,2.1843,2.1804,2.1808,0.0,0.0,0.0,0.0,0.0,0.0,0.0,0.0,0.0,0.0,2.7591,2.8473,2.9548,3.0796,0.0,3.0796,3.0796,3.0792,3.079,3.079,3.079,3.1022,3.1487,3.2389,3.3267,3.4102,3.5013,3.5635,3.6003,0.0,0.0,0.0,0.0,0.0,3.9021,4.2474,4.4207,4.5592,4.9527,5.2576,5.5095,5.7229,5.9368,6.133,6.2676,6.3321,6.3418,6.2598,5.8772,5.4555,5.1941,0.0,0.0,0.0,4.1675,4.1109,4.1109,4.2514,0.0,4.6475,4.8642,5.1548,5.5836,5.7202,5.8569,6.0754,6.1417,6.171,0.0,6.1616,6.1539,6.1517,6.1381,6.1223,6.1011,6.0666,6.0039,5.9116,5.7757,5.6745,5.6131,5.5638,5.5396,5.5396,5.5396,5.5396,5.5396,5.5396,5.5396,5.5396,5.5396,5.5167,5.4811,5.5224,5.49,5.4199,5.4619,5.4785,5.4785,5.4785,5.4785,5.4715,0.0,0.0,0.0,0.0,0.0,0.0,0.0,2.1039,2.1603,2.1991,2.2304,2.2383,2.2069,2.1891,2.2001,0.0,0.0,0.0,0.0,0.0,0.0,0.0,0.0,0.0,0.0,0.0,0.0,3.081,3.081,0.0,0.0,0.0,0.0,0.0,3.0798,3.0794,3.0903,3.2454,3.3237,0.0,0.0,3.5827,0.0,0.0,0.0,0.0,0.0,0.0,0.0,0.0,4.3762,4.5314,4.9112,5.2782,5.5982,5.7545,5.9135,6.092,6.3361,6.3517,6.2969,6.2774,5.8187,5.3034,5.0417,4.6495,0.0,4.1421,4.1109,4.1109,4.1109,4.2221,4.3548,0.0,4.6318,4.8895,5.3365,5.4908,5.6704,0.0,6.1055,0.0,6.1446,6.1593,0.0,6.1699,6.163,6.147,6.1158,6.0632,6.0166,5.9781,5.8454,5.7414,5.6665,5.5983,5.5568,5.5396,5.5396,5.5396,5.5396,5.5396,5.5396,5.5396,5.5396,5.5396,5.5396,5.5396,5.5396,5.5396,5.5396,5.5396,5.5396,5.5396,5.5396,5.5301,0.0,0.0,0.0,0.0,0.0,0.0,0.0,2.0399,2.1001,2.2591,2.1486,2.1136,2.263,2.2203,2.1512,0.0,0.0,0.0,0.0,0.0,0.0,0.0,0.0,0.0,0.0,0.0,0.0,3.08,3.08,0.0,0.0,0.0,0.0,0.0,0.0,3.0798,3.0855,3.1811,0.0,0.0,0.0,0.0,0.0,0.0,0.0,0.0,0.0,0.0,0.0,0.0,0.0,4.4158,4.614,4.9668,5.3233,5.418,0.0,0.0,6.2618,6.3067,6.2813,6.2012,5.7289,5.2137,4.952,0.0,4.2259,4.1304,4.1109,4.1109,4.1109,4.1226,4.2143,0.0,0.0,4.8193,5.3288,5.5434,5.7151,5.9006,0.0,0.0,6.0607,6.123,6.1693,6.17,6.1644,6.159,6.1544,6.1493,6.1005,6.0007,5.9708,5.8708,5.6895,5.6613,5.611,5.5396,5.5396,5.5396,5.5396,5.5396,5.5396,5.5396,5.5396,5.5396,5.5396,5.5396,5.5396,5.5396,5.5396,5.5396,5.5396,5.5396,5.5396,5.5396,0.0,0.0,0.0,0.0,0.0,0.0,2.0302,2.0755,2.1324,2.2022,2.1965,2.2138,2.2826,2.2162,2.1534,0.0,0.0,0.0,0.0,0.0,0.0,0.0,0.0,0.0,0.0,0.0,2.7203,2.923,2.9756,0.0,0.0,0.0,0.0,0.0,0.0,3.0796,3.0856,3.1723,0.0,0.0,0.0,0.0,0.0,0.0,0.0,0.0,0.0,0.0,3.9001,0.0,0.0,0.0,4.2953,4.5059,0.0,0.0,5.5532,5.8597,6.0822,6.2208,6.2657,6.1271,5.6372,5.1375,4.9286,0.0,4.1518,4.1167,4.1109,4.1109,4.1109,4.1109,4.144,4.2475,4.2943,0.0,4.8075,5.0086,5.2584,5.6352,5.8324,0.0,0.0,0.0,6.1694,6.17,6.1673,6.1639,6.1594,6.1525,6.1222,6.0674,5.9511,5.8477,5.7568,5.6429,5.5728,5.5396,5.5396,5.5396,5.5396,5.5396,5.5396,5.5396,5.5396,5.5396,5.5396,5.5396,5.5396,5.5396,5.5396,5.5396,5.5396,5.5396,5.5396,5.5396,0.0,0.0,0.0,0.0,0.0,2.0237,2.0237,2.0753,2.1243,2.1486,2.1846,2.2155,2.2404,2.1662,2.1264,2.1515,0.0,0.0,0.0,0.0,0.0,0.0,0.0,0.0,0.0,0.0,2.6511,2.8205,2.9335,3.0191,0.0,0.0,3.08,3.08,0.0,0.0,0.0,0.0,0.0,0.0,0.0,0.0,0.0,0.0,0.0,0.0,0.0,0.0,0.0,0.0,0.0,0.0,0.0,4.1933,4.3926,0.0,5.2819,5.5942,5.8265,6.0334,6.1486,6.0002,5.5298,5.0554,0.0,0.0,4.1109,4.1109,4.1109,4.1109,4.1109,4.1109,4.1109,4.1109,4.1323,4.2397,4.5012,4.6865,4.9501,5.366,0.0,5.8128,6.0842,6.1465,6.1696,6.1706,6.1705,6.1681,6.1631,6.149,6.1327,6.1112,5.9599,5.8513,5.8017,5.6531,5.5651,5.5396,5.5396,5.5396,5.5396,5.5396,5.5396,5.5396,5.5396,5.5396,5.5396,5.5396,5.5396,5.5396,5.5396,5.5396,5.5396,5.5396,5.5396,5.5396,0.0,0.0,0.0,0.0,0.0,0.0,0.0,2.0115,2.0394,2.1195,2.0618,2.0432,2.1233,2.0599,2.0463,2.1333,0.0,0.0,0.0,0.0,0.0,0.0,0.0,0.0,0.0,0.0,2.6516,2.8191,2.9944,3.0781,3.08,3.08,3.08,3.08,0.0,0.0,0.0,0.0,0.0,0.0,0.0,0.0,0.0,0.0,0.0,0.0,0.0,0.0,0.0,0.0,0.0,0.0,0.0,4.1113,4.1642,4.4305,4.872,5.3113,5.4889,5.7211,5.8928,5.805,5.3931,4.9675,0.0,0.0,4.1109,4.1109,4.1109,4.1109,4.1109,4.1109,4.1109,4.1109,4.181,4.3294,4.593,4.7725,4.9442,0.0,0.0,5.569,5.6585,5.9728,6.1699,6.1699,6.1699,6.1698,6.1698,6.1578,6.1373,6.1112,6.0317,5.9276,5.8017,5.7137,5.6257,5.5396,5.5396,5.5396,5.5396,5.5396,5.5396,5.5396,5.5396,5.5396,5.5396,5.5396,5.5396,5.5396,5.5396,5.5396,5.5396,5.5396,5.5396,5.5396,0.0,0.0,0.0,0.0,0.0,0.0,0.0,2.0026,2.0119,2.0381,2.0195,2.0367,2.1219,2.0538,2.0627,2.2097,0.0,0.0,0.0,0.0,0.0,0.0,0.0,0.0,0.0,0.0,2.4646,2.642,2.8125,2.9581,3.08,3.08,3.08,3.08,3.08,3.08,0.0,0.0,0.0,0.0,0.0,0.0,0.0,0.0,0.0,0.0,0.0,0.0,0.0,0.0,0.0,0.0,0.0,0.0,0.0,4.2099,4.5188,0.0,5.04,5.2312,5.3638,5.276,5.0008,4.7217,4.6084,4.3372,4.1109,4.1109,4.1109,4.1109,4.1109,4.1109,4.1499,4.267,4.2611,4.3117,0.0,0.0,0.0,5.1942,5.7193,6.0432,0.0,0.0,6.2343,6.1738,6.1699,6.1699,6.1699,6.1098,6.0631,6.0349,5.9389,5.8327,5.7186,5.6275,5.5677,5.5396,5.5396,5.5396,5.5396,5.5396,5.5396,5.5396,5.5396,5.5396,5.5396,5.5396,5.5396,5.5396,5.5396,5.5396,5.5396,5.5396,5.5396,5.5396,0.0,0.0,0.0,0.0,0.0,0.0,0.0,2.0006,2.0001,2.001,1.9999,2.0211,2.0752,2.0322,2.0563,2.1991,0.0,0.0,0.0,0.0,0.0,0.0,0.0,0.0,0.0,2.2495,2.4094,2.5517,2.7531,2.9259,3.0695,3.0695,3.0695,3.0695,3.0695,3.0695,0.0,0.0,0.0,0.0,0.0,0.0,3.591,0.0,0.0,0.0,0.0,0.0,0.0,0.0,0.0,0.0,0.0,0.0,0.0,0.0,4.2631,4.4778,0.0,4.8857,5.0223,4.9363,4.747,0.0,0.0,4.2748,4.1109,4.1109,4.1109,4.1109,4.1109,4.1109,4.146,4.2533,4.226,4.2513,0.0,0.0,0.0,5.2703,0.0,0.0,0.0,6.1797,6.2285,6.1738,6.1699,6.1699,6.1699,6.0822,6.0071,5.9536,5.8541,5.7632,5.682,5.5884,5.5434,5.5396,5.5396,5.5396,5.5396,5.5396,5.5396,5.5396,5.5396,5.5396,0.0,5.5396,5.5396,5.5396,5.5396,5.5396,5.5396,5.5396,5.5396,5.5396,0.0,0.0,0.0,0.0,0.0,0.0,0.0,0.0,2.0008,1.9998,2.0,2.0008,1.9998,2.0002,2.0325,2.1146,0.0,0.0,0.0,0.0,0.0,0.0,0.0,0.0,0.0,2.3237,2.4519,2.5383,2.789,2.9575,3.0499,3.0499,3.0499,3.0499,3.0499,3.0537,3.0699,0.0,0.0,0.0,0.0,0.0,0.0,0.0,0.0,0.0,0.0,0.0,0.0,0.0,0.0,0.0,0.0,0.0,0.0,0.0,0.0,0.0,0.0,4.6456,4.8076,4.7314,0.0,0.0,0.0,4.226,0.0,4.1109,4.1109,4.1129,4.1187,4.1147,4.1168,4.1343,4.1323,4.1889,0.0,4.5598,0.0,0.0,5.6528,0.0,5.9123,6.0704,6.1699,6.1699,6.1641,6.1602,6.1602,6.0607,5.9581,5.8645,5.7751,5.7108,5.6705,5.5907,5.5477,5.5396,5.5396,5.5396,5.5396,5.5396,5.5396,5.5396,5.5396,5.5396,5.5396,5.5396,5.5396,5.5396,5.5396,5.5396,5.5396,5.5396,5.5396,5.5396,0.0,0.0,0.0,0.0,0.0,0.0,0.0,0.0,0.0,0.0,2.0007,2.001,2.0001,2.0007,2.0088,0.0,0.0,0.0,0.0,0.0,0.0,0.0,0.0,0.0,2.1452,2.2453,2.3746,2.5328,2.7215,2.8949,3.0499,3.0499,3.0499,3.0499,3.0499,3.0842,3.1495,3.2578,0.0,0.0,0.0,0.0,0.0,0.0,0.0,0.0,3.6727,3.7679,0.0,0.0,0.0,0.0,0.0,0.0,0.0,0.0,4.1109,4.1226,4.185,0.0,4.2865,4.267,4.2319,4.1967,0.0,0.0,0.0,0.0,0.0,4.1304,4.1967,4.1557,4.1753,4.3762,4.3528,4.3705,4.5442,4.9442,0.0,5.6528,5.9202,6.0606,6.0139,6.1075,6.1699,6.1699,6.1075,6.0705,6.0705,5.9125,5.806,5.7729,5.6769,5.6111,5.5817,5.56,5.5477,5.5396,5.5396,5.5396,5.5396,5.5396,5.5396,5.5396,5.5396,5.5396,5.5396,5.5396,5.5396,5.5396,5.5396,5.5396,5.5396,5.5396,5.5396,5.5396,0.0,0.0,0.0,0.0,0.0,0.0,0.0,0.0,0.0,0.0,0.0,0.0,0.0,0.0,0.0,0.0,0.0,0.0,0.0,0.0,0.0,0.0,0.0,2.1844,2.1407,2.2185,2.3462,2.5257,2.6938,2.8655,3.0366,3.0748,3.0729,3.0366,3.0366,3.0595,3.1095,3.2397,3.3233,0.0,3.5085,0.0,0.0,0.0,0.0,0.0,3.6226,3.7313,0.0,3.9044,4.0057,4.1094,0.0,0.0,0.0,0.0,4.1109,4.1109,4.1109,4.1109,4.1109,4.1109,4.1109,4.1109,4.1109,0.0,0.0,0.0,0.0,4.1245,4.1713,4.1421,4.1694,4.3508,4.3411,4.4114,0.0,0.0,5.4947,5.7505,5.9768,6.1075,6.0998,6.1426,6.1699,6.1699,6.0881,6.0393,6.0393,5.8564,5.7462,5.7395,5.6362,5.5714,5.5504,5.5504,5.5477,5.5396,5.5396,5.5396,5.5396,5.5396,5.5396,5.5396,5.5396,5.5396,5.5396,5.5396,5.5396,5.5396,5.5396,5.5396,5.5396,5.5396,5.5396,5.5339,0.0,0.0,0.0,0.0,0.0,0.0,0.0,0.0,0.0,0.0,0.0,0.0,0.0,0.0,0.0,0.0,0.0,0.0,0.0,0.0,0.0,0.0,0.0,2.1514,2.1782,2.2448,2.3711,2.5571,2.7128,2.8676,3.0227,3.1022,3.1041,3.0399,3.0399,3.0399,3.0505,3.217,3.2952,3.3212,3.4878,0.0,0.0,0.0,0.0,0.0,0.0,0.0,0.0,3.85,3.9667,4.1094,4.1103,0.0,0.0,0.0,0.0,0.0,4.1107,4.1108,4.1109,4.1109,4.1109,4.1109,4.1109,0.0,0.0,0.0,0.0,0.0,4.1265,4.1401,0.0,4.2668,4.3117,0.0,4.9013,5.237,5.524,5.7524,5.9456,6.0842,6.1446,6.1621,6.1641,6.1504,6.0686,6.0135,5.9972,5.8216,5.7188,5.7165,5.6208,5.5649,5.5504,5.5504,5.5477,5.5396,5.5396,5.5396,5.5396,5.5396,5.5396,5.5396,5.5396,5.5396,5.5396,5.5396,5.5396,5.5396,5.5396,5.5396,5.5396,5.5396,5.5396,5.5282,0.0,0.0,0.0,0.0,0.0,0.0,0.0,0.0,0.0,0.0,0.0,0.0,0.0,0.0,0.0,0.0,0.0,0.0,0.0,0.0,0.0,2.3879,2.2244,2.2015,2.3481,2.3637,2.489,2.7319,2.8268,2.9226,3.0227,3.1022,3.1366,3.1293,3.1232,3.1251,3.135,3.2328,3.3165,3.3918,3.4875,0.0,0.0,0.0,0.0,0.0,0.0,0.0,0.0,3.85,3.9667,4.1093,4.1092,0.0,0.0,0.0,0.0,0.0,4.1098,4.1103,4.1109,4.1109,4.1109,4.1109,4.1109,0.0,0.0,0.0,0.0,0.0,0.0,4.2806,4.3587,0.0,0.0,4.9072,0.0,0.0,5.6606,5.766,5.9983,6.125,6.0666,6.127,6.1387,6.0666,5.9786,5.8928,5.8089,5.692,5.6257,5.6136,5.5856,5.5649,5.5504,5.5504,5.5477,5.5396,5.5396,5.5396,5.5396,5.5396,5.5396,5.5396,5.5396,5.5396,5.5396,5.5396,5.5396,5.5396,5.5396,5.5396,5.5396,5.5396,5.5396,5.5282,0.0,0.0,0.0,0.0,0.0,0.0,0.0,0.0,0.0,0.0,0.0,0.0,0.0,0.0,0.0,0.0,0.0,0.0,0.0,0.0,0.0,2.3828,2.3102,2.3081,2.3877,2.4352,2.5622,2.7698,2.8077,2.8921,3.0208,3.0586,3.1251,3.2126,3.1652,3.1442,3.1538,3.2856,3.3624,3.4067,0.0,0.0,0.0,0.0,0.0,0.0,0.0,0.0,0.0,0.0,3.9667,4.1093,4.1091,0.0,0.0,0.0,0.0,0.0,4.1102,4.1105,4.1109,4.1109,4.1109,4.1109,4.1109,0.0,0.0,0.0,0.0,0.0,0.0,0.0,4.4446,4.669,0.0,5.163,5.3717,5.5103,5.6372,5.7642,5.8851,5.9612,5.969,6.006,6.0138,5.9729,5.8823,5.8084,5.7617,5.6589,5.5955,5.5892,5.5759,5.5649,5.5504,5.5504,5.5477,5.5396,5.5396,5.5396,5.5396,5.5396,5.5129,5.4715,5.5205,5.5129,5.4696,5.4696,5.4982,5.5339,5.4887,5.5002,5.5396,5.5396,5.5091,5.4715,0.0,0.0,0.0,0.0,0.0,0.0,0.0,0.0,0.0,0.0,0.0,0.0,0.0,0.0,0.0,0.0,0.0,0.0,0.0,0.0,2.3594,2.3795,2.385,2.407,2.448,2.5144,2.6294,2.7985,2.7985,2.8844,3.0513,3.0701,3.1461,3.2676,3.2264,3.1939,3.1801,3.336,3.3991,3.4067,0.0,0.0,0.0,0.0,0.0,0.0,0.0,0.0,0.0,0.0,0.0,0.0,0.0,0.0,0.0,4.11,4.1109,4.1095,4.1104,4.1107,4.1109,4.1109,0.0,0.0,0.0,0.0,0.0,0.0,0.0,0.0,0.0,4.4036,0.0,4.919,5.1903,5.3855,5.4517,5.5513,5.6665,5.7953,5.8109,5.8441,5.9318,5.922,5.9025,5.8811,5.8053,5.7509,5.725,5.6387,5.5889,5.5844,5.5753,5.5649,5.5504,5.5504,5.5477,5.5396,5.5396,5.5396,5.5396,5.5186,5.4728,5.4123,5.46,5.4409,5.3798,5.3798,5.4199,5.4715,5.4065,5.4333,5.511,5.532,5.4982,5.4505,0.0,0.0,0.0,0.0,0.0,0.0,0.0,0.0,0.0,0.0,0.0,0.0,0.0,0.0,0.0,0.0,0.0,0.0,0.0,0.0,2.2952,2.3765,2.3807,2.4567,2.6174,2.6278,2.7125,2.8818,2.8818,2.97,3.1427,3.2164,3.2581,3.2734,3.3471,3.3375,3.268,3.3605,3.3991,3.4067,3.4885,0.0,0.0,0.0,0.0,0.0,0.0,0.0,0.0,0.0,0.0,0.0,0.0,0.0,4.1096,4.1098,4.1097,4.1094,4.1095,4.1102,4.1109,4.1109,4.1109,0.0,4.3138,4.3509,0.0,4.5598,0.0,0.0,0.0,4.6807,4.9306,5.1981,5.4615,5.6332,5.639,5.7815,5.8869,5.8986,5.9006,5.9357,6.0217,5.9572,5.8752,5.7953,5.7702,5.7186,5.6255,5.6013,5.5831,5.5716,5.5714,5.5649,5.5504,5.5504,5.5477,5.5396,5.5396,5.5396,5.5358,5.4562,5.4161,5.4065,5.3301,5.2944,5.2887,5.2887,5.2925,5.2983,5.2925,5.3441,5.4295,5.5091,5.5358,5.532,0.0,0.0,0.0,0.0,0.0,0.0,0.0,0.0,0.0,0.0,0.0,0.0,0.0,0.0,0.0,0.0,0.0,0.0,0.0,2.3235,2.3545,2.4496,2.5066,2.5923,2.7122,2.7189,2.8026,2.9704,3.0258,3.0831,3.1461,3.2298,3.2986,3.3528,3.3857,3.3819,3.3566,3.4388,3.4751,3.477,3.5072,3.5274,0.0,0.0,0.0,0.0,0.0,0.0,0.0,0.0,4.0115,4.1109,4.1109,4.1094,4.1103,4.1102,4.1093,4.1105,4.11,4.1106,4.1109,4.1109,4.1109,0.0,0.0,4.4114,4.4855,4.6047,4.7139,0.0,0.0,0.0,5.1551,5.2547,5.4888,5.6761,5.7289,5.7465,5.7737,5.8226,5.7854,5.7678,5.7992,5.7737,5.7405,5.7074,5.6814,5.6502,5.612,5.5887,5.5753,5.5708,5.5708,5.5404,5.4762,5.5255,5.4921,5.3798,5.4333,5.4314,5.376,5.3435,5.3015,5.255,5.2728,5.2518,5.2053,5.2053,5.2671,5.3664,5.4218,5.4619,5.4957,5.5282,5.5396,5.5396,0.0,0.0,0.0,0.0,0.0,0.0,0.0,0.0,0.0,0.0,0.0,0.0,0.0,0.0,0.0,0.0,0.0,0.0,2.3655,2.3621,2.3872,2.4556,2.544,2.6317,2.7162,2.7259,2.8103,2.9784,3.0392,3.0946,3.1442,3.2298,3.3161,3.401,3.4277,3.4373,3.4411,3.498,3.5205,3.5205,3.5205,3.548,0.0,0.0,0.0,0.0,0.0,0.0,0.0,0.0,4.0388,4.1109,4.1109,4.1093,4.1103,4.1107,4.1097,4.1105,4.1104,4.1109,4.1109,4.1109,0.0,0.0,4.4406,4.5382,4.6299,4.7979,4.8798,4.9286,4.9579,0.0,0.0,5.2664,5.5103,5.7074,5.7387,5.7172,5.7172,5.7739,5.7094,5.6702,5.6957,5.6689,5.6503,5.6503,5.622,5.6045,5.6045,5.5822,5.5708,5.5708,5.5458,5.5001,5.4308,5.457,5.3945,5.2422,5.3034,5.3129,5.2792,5.2537,5.2117,5.1614,5.1888,5.1849,5.1595,5.1595,5.2283,5.3397,5.4256,5.4581,5.4619,5.4887,5.5167,5.5396,0.0,0.0,0.0,0.0,0.0,0.0,0.0,0.0,0.0,0.0,0.0,0.0,0.0,0.0,0.0,0.0,0.0,0.0,2.4355,2.3959,2.3708,2.3711,2.4604,2.5482,2.6298,2.6394,2.724,2.8895,2.8914,2.9815,3.1522,3.2336,3.318,3.4048,3.4846,3.5205,3.5205,3.5205,3.5205,3.5205,3.5209,3.5895,3.6914,0.0,0.0,0.0,0.0,0.0,0.0,0.0,4.0388,4.1109,4.1109,4.1102,4.1098,4.109,4.1103,4.1095,4.1106,4.1109,4.1109,4.1109,0.0,0.0,4.6826,4.7607,4.8583,5.202,5.1336,5.0398,5.1277,5.1433,0.0,5.2566,5.5573,5.7504,5.6702,5.7289,5.7798,5.7798,5.7073,5.6917,5.7719,5.6884,5.631,5.631,5.6044,5.5911,5.5911,5.5764,5.5689,5.5689,5.4914,5.4419,5.4288,5.3439,5.2528,5.1595,5.1595,5.2015,5.2753,5.1939,5.1595,5.1538,5.0659,5.0799,5.1595,5.1595,5.1595,5.1691,5.2499,5.2811,5.2925,5.3779,5.4639,5.5377,0.0,0.0,0.0,0.0,0.0,0.0,0.0,0.0,0.0,0.0,0.0,0.0,0.0,0.0,0.0,0.0,0.0,0.0,2.4546,2.3908,2.382,2.458,2.5468,2.6327,2.7122,2.8353,2.8684,2.8058,2.9857,3.1289,3.2355,3.3223,3.4044,3.4846,3.5091,3.5205,3.5205,3.5205,3.5549,3.6111,3.6216,3.6857,3.7743,0.0,0.0,0.0,0.0,0.0,0.0,0.0,0.0,0.0,4.1109,4.1102,4.1098,4.109,4.1103,4.1095,4.1106,4.1109,4.1245,4.1869,0.0,0.0,0.0,4.8447,0.0,0.0,5.3639,5.2916,5.3171,5.3737,5.403,5.3678,5.5493,5.6879,5.6624,5.68,5.6957,5.6957,5.6611,5.6484,5.6718,5.6381,5.6155,5.6155,5.6001,5.5911,5.5911,5.5244,5.4857,5.4857,5.3979,5.3196,5.2543,5.2845,5.2227,5.0678,5.1342,5.1451,5.1028,5.0799,5.0678,5.0659,5.0411,5.0455,5.0735,5.1347,5.192,5.2537,5.3378,5.3702,5.3741,5.4008,5.3874,5.3664,0.0,0.0,0.0,0.0,0.0,0.0,0.0,0.0,0.0,0.0,0.0,0.0,0.0,0.0,0.0,0.0,0.0,0.0,0.0,2.4272,2.4468,2.5436,2.6005,2.6682,2.7527,2.9244,2.9489,2.8172,3.0372,3.1901,3.2714,3.3586,3.4617,3.5721,3.5721,3.5721,3.574,3.6065,3.6313,3.6532,3.6941,3.7711,3.8636,0.0,0.0,0.0,0.0,0.0,0.0,0.0,0.0,0.0,4.1097,4.1091,4.1106,4.1098,4.1091,4.1101,4.1108,4.1109,4.1382,4.2611,4.3567,4.5207,4.8974,0.0,0.0,0.0,5.4849,5.4108,5.4459,5.4654,5.4713,5.4556,5.5689,5.6605,5.6605,5.6605,5.6579,5.6499,5.6359,5.6275,5.6234,5.6097,5.6027,5.6027,5.5597,5.5335,5.5335,5.4486,5.3972,5.3972,5.3074,5.2321,5.1809,5.1935,5.1464,5.0396,5.0924,5.0887,5.0337,5.0314,5.0302,5.0321,5.0665,5.0812,5.0869,5.1735,5.2174,5.2384,5.29,5.3301,5.3531,5.3225,5.3206,5.3397,0.0,0.0,0.0,0.0,0.0,0.0,0.0,0.0,0.0,0.0,0.0,0.0,0.0,0.0,0.0,0.0,0.0,0.0,0.0,0.0,2.5325,2.6065,2.6365,2.693,2.7801,2.9385,2.9838,2.9124,3.0655,3.1859,3.2714,3.3662,3.4961,3.65,3.6576,3.6615,3.6653,3.7387,3.733,3.6791,3.7541,3.8519,3.9515,3.9558,0.0,0.0,0.0,0.0,0.0,0.0,0.0,0.0,4.1091,4.1104,4.1096,4.1109,4.1101,4.1109,4.1109,4.1167,4.1635,4.3373,4.4719,0.0,5.0711,5.3541,5.5514,5.6313,0.0,5.4478,5.528,5.4771,5.4498,5.5299,5.6079,5.6605,5.6605,5.6523,5.6425,5.6301,5.6219,5.6149,5.6091,5.5897,5.5769,5.5769,5.4911,5.4376,5.4376,5.3568,5.3082,5.3082,5.2185,5.1698,5.1698,5.0902,5.0505,5.05,5.044,5.0412,5.0401,5.0325,5.0302,5.034,5.1137,5.148,5.1538,5.227,5.2193,5.1595,5.1595,5.2059,5.2594,5.1868,5.2512,5.3779,0.0,0.0,0.0,0.0,0.0,0.0,0.0,0.0,0.0,0.0,0.0,0.0,0.0,0.0,0.0,0.0,0.0,0.0,0.0,0.0,2.5079,2.525,2.7182,2.868,2.9533,2.9922,3.0359,3.0866,3.1209,3.1859,3.2734,3.4231,3.5492,3.6538,3.7154,3.7445,3.7445,3.7636,3.7999,3.8503,3.8882,3.9593,4.0431,4.0643,4.0889,0.0,0.0,0.0,0.0,0.0,0.0,0.0,4.1091,4.1104,4.1096,4.1109,4.1101,4.1109,4.1109,4.1596,0.0,4.4288,4.7392,5.0614,5.2917,5.44,5.5358,5.5533,5.5825,5.6097,5.6294,5.6175,5.6097,5.6294,5.6488,5.6605,5.6605,5.5927,5.5634,5.6234,5.5556,5.5285,5.5877,5.5243,5.4794,5.4794,5.3978,5.3491,5.3491,5.2659,5.2178,5.2178,5.132,5.0867,5.0867,5.0664,5.0542,5.0505,5.0489,5.0451,5.0401,5.0325,5.0302,5.0302,5.0506,5.0588,5.0583,5.0779,5.1142,5.1595,5.1595,5.171,5.1843,5.1652,5.1404,5.1219,0.0,0.0,0.0,0.0,0.0,0.0,0.0,0.0,0.0,0.0,0.0,0.0,0.0,0.0,0.0,0.0,0.0,0.0,0.0,0.0,2.5943,2.6772,2.8498,2.9646,3.0082,3.0543,3.0985,3.1442,3.2248,3.2879,3.3352,3.5033,3.6275,3.7116,3.7941,3.8323,3.8343,3.8763,3.8973,3.9048,3.9607,4.0172,4.0712,4.0854,4.0941,4.1001,4.1078,0.0,0.0,0.0,0.0,0.0,0.0,0.0,4.1109,4.1108,4.1097,4.1103,4.1108,4.1732,0.0,4.5596,0.0,5.2254,5.3171,5.4049,5.4791,5.5202,5.5981,5.6605,5.6605,5.6605,5.6605,5.6605,5.6255,5.5954,5.5889,5.5075,5.4586,5.4888,5.4412,5.4227,5.4568,5.4154,5.3876,5.3876,5.3063,5.2582,5.2582,5.1774,5.1337,5.1337,5.0859,5.0613,5.0643,5.0613,5.0588,5.0562,5.0516,5.0457,5.0342,5.0314,5.0302,5.0302,5.0302,5.0302,5.0302,5.0302,5.0569,5.0984,5.0984,5.1232,5.1557,5.1137,5.0946,5.0984,0.0,0.0,0.0,0.0,0.0,0.0,0.0,0.0,0.0,0.0,0.0,0.0,0.0,0.0,0.0,0.0,0.0,0.0,0.0,0.0,0.0,2.8738,2.9626,3.0162,3.0315,3.1099,3.1637,3.1923,3.3322,3.4144,3.4468,3.5989,3.7058,3.7736,3.8763,3.9217,3.9274,4.0,3.9885,3.9298,4.0037,4.0464,4.0665,4.0687,4.0762,4.0876,4.1025,4.0992,4.0921,4.1047,0.0,0.0,0.0,0.0,4.1104,4.1107,4.1095,4.1098,4.1107,4.1967,4.3605,4.6806,4.993,0.0,5.2625,5.3269,5.4029,5.4909,5.5767,5.641,5.6566,5.6605,5.6605,5.6605,5.5858,5.5233,5.512,5.4184,5.3472,5.341,5.3253,5.3167,5.3199,5.3063,5.2986,5.2986,5.2178,5.1697,5.1697,5.1048,5.0707,5.0707,5.0643,5.0638,5.0707,5.0504,5.0397,5.0367,5.0305,5.0199,5.0092,5.0245,5.0302,5.0302,5.0302,5.0302,5.0302,5.0302,5.0302,5.0302,5.0302,5.0735,5.1289,5.0569,5.0755,5.1385,0.0,0.0,0.0,0.0,0.0,0.0,0.0,0.0,0.0,0.0,0.0,0.0,0.0,0.0,0.0,0.0,0.0,0.0,0.0,0.0,0.0,2.8757,2.9626,3.0452,3.1207,3.1408,3.221,3.3666,3.3895,3.4732,3.6194,3.712,3.7597,3.7774,3.9408,4.0134,4.0134,4.0248,4.0229,4.0148,4.0377,4.0489,4.0542,4.0652,4.0706,0.0,0.0,4.0919,4.0921,4.1047,4.1109,0.0,0.0,0.0,4.1095,4.1109,4.11,4.1108,4.1108,0.0,4.5128,0.0,4.9032,5.0847,0.0,0.0,5.3113,0.0,5.4869,5.5708,5.6468,5.6605,5.6605,5.6605,5.5768,5.5122,5.5093,5.3493,5.2597,5.3305,5.2625,5.2381,5.3126,5.2524,5.2077,5.2077,5.1318,5.0861,5.0861,5.0765,5.0707,5.0707,5.0683,5.0683,5.0707,4.9947,4.9538,4.9475,4.9348,4.928,4.9276,4.9977,5.0302,5.0302,5.0302,5.0302,5.0302,5.0302,5.0302,5.0302,5.0302,5.0378,5.0449,5.034,5.0378,5.0474,0.0,0.0,0.0,0.0,0.0,0.0,0.0,0.0,0.0,0.0,0.0,0.0,0.0,0.0,0.0,0.0,0.0,0.0,0.0,0.0,0.0,2.9486,3.0395,3.1057,3.1443,3.2416,3.3265,3.3991,3.4445,3.5301,0.0,3.733,3.796,3.8476,3.9733,4.0306,4.0306,4.0306,4.0306,4.031,4.0363,4.048,4.0612,0.0,0.0,0.0,0.0,0.0,0.0,0.0,4.1109,4.1091,4.1099,0.0,0.0,0.0,4.1092,4.1219,4.1692,4.3021,4.4699,0.0,4.7782,4.9149,5.0847,5.1238,5.1629,5.2995,5.3582,5.4109,5.4986,5.5141,5.5141,5.5141,5.4297,5.363,5.3536,5.2324,5.1539,5.1843,5.1496,5.1375,5.176,5.1452,5.1221,5.1221,5.0899,5.0707,5.0707,5.0707,5.0707,5.0707,5.0707,5.0476,4.9976,4.9543,4.9067,4.8506,4.8411,4.8376,4.8372,4.873,4.9398,5.0302,5.0302,5.0302,5.0302,5.0302,5.0302,5.0302,5.0302,5.0302,5.0302,5.0302,5.0302,5.0302,0.0,0.0,0.0,0.0,0.0,0.0,0.0,0.0,0.0,0.0,0.0,0.0,0.0,0.0,0.0,0.0,0.0,0.0,0.0,0.0,0.0,3.0391,3.1118,3.1694,3.2134,3.336,3.4105,3.4296,0.0,0.0,3.6829,3.7426,3.8285,0.0,4.0019,4.0306,0.0,0.0,0.0,4.0306,4.0342,0.0,0.0,0.0,0.0,0.0,0.0,0.0,0.0,0.0,0.0,0.0,4.1094,4.1107,0.0,0.0,0.0,4.1222,4.1884,0.0,4.3724,4.5266,4.6456,4.7665,0.0,0.0,5.0203,5.1726,5.2039,5.2312,5.3171,5.3698,5.401,5.401,5.3132,5.2415,5.2313,5.1469,5.0819,5.0707,5.0707,5.0707,5.0707,5.0707,5.0707,5.0707,5.0707,5.0707,5.0707,5.0707,5.0707,5.0707,5.0495,5.0053,4.9413,4.8889,4.8181,4.726,4.7406,4.7469,4.7488,4.7693,4.8596,4.9996,4.9996,5.0111,5.0302,5.0302,5.0302,5.0302,5.0302,5.0302,5.0302,5.0302,5.0302,5.0302,0.0,0.0,0.0,0.0,0.0,0.0,0.0,0.0,0.0,0.0,0.0,0.0,0.0,2.3994,2.4438,2.5272,0.0,0.0,0.0,0.0,0.0,3.1283,3.1447,0.0,3.3838,3.3952,3.4373,3.5148,0.0,0.0,3.7636,3.7678,3.861,4.0229,4.0287,4.0306,4.0306,0.0,0.0,0.0,0.0,0.0,0.0,0.0,0.0,0.0,0.0,0.0,0.0,0.0,0.0,0.0,0.0,0.0,0.0,0.0,0.0,0.0,0.0,4.1791,0.0,4.3607,4.511,4.6612,0.0,0.0,4.913,5.0047,5.0241,5.0495,5.1375,5.2897,5.401,5.401,5.3046,5.2308,5.2302,5.1389,5.0702,5.0693,5.0707,5.0707,5.0707,5.0707,5.0707,5.0707,5.0707,5.0707,5.0707,5.0707,5.0707,5.0707,4.9899,4.9452,4.9394,4.7698,4.6392,4.5537,4.624,4.6571,4.659,4.7412,4.8296,4.9161,4.9161,4.9601,5.0302,5.0302,5.0302,5.0302,5.0302,5.0302,5.0302,5.0302,5.0302,5.0302,0.0,0.0,0.0,0.0,0.0,0.0,0.0,0.0,0.0,0.0,0.0,0.0,0.0,2.5012,2.5449,2.6292,2.7089,0.0,0.0,0.0,0.0,3.1367,3.197,3.2818,3.3972,3.4503,3.4904,3.5205,0.0,3.6069,3.7697,3.7697,3.8629,4.0306,4.0306,4.0306,4.0306,4.0306,0.0,0.0,0.0,0.0,0.0,0.0,0.0,0.0,0.0,0.0,0.0,0.0,0.0,0.0,0.0,0.0,0.0,0.0,0.0,0.0,0.0,0.0,0.0,4.245,4.3635,4.493,4.6318,4.7356,4.8251,4.909,4.9266,4.9364,4.9677,5.116,5.2331,5.2331,5.183,5.1474,5.1474,5.1025,5.0707,5.0707,5.0707,5.0707,5.0707,5.0188,4.988,4.988,4.9356,4.9279,4.9841,4.9336,4.9298,4.9861,4.9029,4.8298,4.7751,4.6494,4.5702,4.5403,4.5615,4.5741,4.5736,4.6042,4.6959,4.8277,4.8277,4.9041,5.0302,5.0302,5.0302,5.0302,5.0302,5.0302,5.0302,5.0302,5.0302,5.0302,0.0,0.0,0.0,0.0,0.0,0.0,0.0,0.0,0.0,0.0,0.0,0.0,0.0,0.0,2.6556,2.7454,2.8462,2.9032,2.9033,3.0,3.0955,3.1801,3.2665,3.3524,3.4373,3.4655,3.4923,3.5205,3.4923,3.5783,3.7697,3.7697,3.8629,4.0306,4.0306,4.0306,0.0,0.0,0.0,4.0504,0.0,0.0,4.089,0.0,0.0,0.0,0.0,0.0,0.0,0.0,0.0,0.0,0.0,0.0,0.0,0.0,0.0,0.0,4.0781,0.0,0.0,0.0,4.2382,4.3406,4.4564,4.579,4.6908,4.7781,4.8163,4.8424,4.8718,4.9679,5.0434,5.0491,5.0517,5.0536,5.0536,5.0389,5.0265,5.0265,5.0265,5.0149,4.9861,4.9298,4.8952,4.8952,4.8432,4.8355,4.8933,4.8413,4.8235,4.8548,4.8005,4.7265,4.6335,4.5707,4.539,4.5378,4.5323,4.5302,4.5302,4.5588,4.6462,4.7813,4.8118,4.9022,5.0302,5.0302,5.0302,5.0302,5.0302,5.0302,5.0302,5.0302,5.0302,5.0302,0.0,0.0,0.0,0.0,0.0,0.0,0.0,0.0,0.0,2.5293,0.0,0.0,0.0,0.0,0.0,2.8828,2.9687,3.0178,3.0178,3.1019,3.1901,3.2699,0.0,0.0,0.0,3.4426,3.443,3.5205,3.4449,3.5328,3.7697,3.7736,3.8648,4.0306,4.0306,4.0306,4.0315,0.0,4.0492,4.0523,0.0,4.0905,4.0958,0.0,0.0,0.0,4.1175,4.1725,0.0,4.2362,0.0,0.0,0.0,0.0,0.0,0.0,0.0,0.0,0.0,0.0,0.0,0.0,0.0,0.0,4.2263,4.3587,4.507,4.6055,4.6843,4.7616,4.8459,4.8528,4.8492,4.86,4.9143,4.9563,4.9563,4.9444,4.9356,4.9356,4.9356,4.9029,4.8178,4.8082,4.8062,4.8062,4.8043,4.8043,4.8062,4.8062,4.7697,4.6889,4.687,4.6382,4.541,4.5405,4.537,4.5307,4.5302,4.5302,4.5359,4.6137,4.6991,4.7889,4.8741,4.9563,5.0302,5.0302,5.0302,5.0302,5.0302,5.0302,5.0302,5.0302,5.0302,5.0302,0.0,0.0,0.0,0.0,0.0,0.0,0.0,0.0,2.5922,0.0,0.0,0.0,2.7995,2.9323,3.0535,3.1462,3.1767,3.1905,3.1905,3.2203,3.276,3.3605,3.3876,3.4373,3.5186,3.498,3.498,3.5205,3.5606,3.647,3.7716,3.8343,3.9236,0.0,4.0306,4.0306,4.0306,4.0346,0.0,4.0516,4.0684,4.115,0.0,0.0,0.0,0.0,0.0,4.3088,4.3334,0.0,4.2831,4.2114,0.0,0.0,0.0,0.0,0.0,0.0,4.0572,0.0,0.0,0.0,0.0,0.0,4.2061,4.3452,4.4813,4.5092,4.5773,4.6394,4.663,4.7075,4.723,4.6696,4.7759,4.8654,4.8654,4.8538,4.8471,4.8471,4.8471,4.8351,4.812,4.7562,4.7235,4.7235,4.6644,4.6567,4.7197,4.7235,4.6836,4.5994,4.5901,4.5754,4.5481,4.5424,4.5394,4.5364,4.5323,4.5607,4.6175,4.6405,4.7322,4.8754,4.8989,4.9563,5.0302,5.0302,5.0302,5.0302,5.0302,5.0302,5.0302,5.0302,5.0302,5.0302,0.0,0.0,0.0,0.0,0.0,0.0,2.582,2.6372,2.6925,0.0,0.0,0.0,3.0066,3.1206,3.208,3.2595,3.2638,3.263,3.263,3.3016,3.3471,3.3972,3.4315,3.4885,3.5721,3.5396,3.553,3.6241,3.6428,3.7096,3.8247,3.8763,3.9465,4.0306,0.0,0.0,0.0,0.0,0.0,0.0,4.1074,0.0,0.0,4.2615,4.3114,0.0,0.0,0.0,4.4122,4.4179,4.3768,0.0,0.0,0.0,0.0,0.0,0.0,0.0,0.0,0.0,0.0,0.0,0.0,0.0,4.1944,4.2797,4.3679,4.409,4.4777,4.5422,4.5791,4.6155,4.626,4.5781,4.6542,4.7295,4.7657,4.7658,4.7601,4.7601,4.7601,4.7466,4.7086,4.6624,4.6355,4.6355,4.5861,4.5771,4.6285,4.6346,4.6115,4.5583,4.5517,4.5481,4.5458,4.5419,4.5393,4.5353,4.5661,4.6042,4.6514,4.7245,4.8143,4.9123,4.9448,4.9862,5.0302,5.0302,5.0302,5.0302,5.0302,5.0302,5.0302,5.0302,5.0302,5.0302,0.0,0.0,0.0,0.0,0.0,0.0,2.7256,2.7365,2.7808,0.0,2.9612,3.0797,3.2565,3.2817,3.289,3.2967,3.2986,3.3024,3.3119,3.3757,3.422,3.4392,3.5018,3.5759,3.6615,3.5874,3.6203,3.7697,3.7077,3.7536,3.9011,3.9102,3.9561,4.0306,0.0,0.0,0.0,0.0,0.0,4.0708,4.1661,4.2086,0.0,0.0,4.3663,4.3756,4.3744,4.4223,4.4839,4.4856,4.4742,0.0,0.0,0.0,0.0,0.0,4.2485,0.0,0.0,0.0,0.0,0.0,0.0,0.0,4.1894,4.2012,4.2321,4.3064,4.3814,4.4583,4.5357,4.5487,4.5455,4.5455,4.5537,4.5879,4.6639,4.6755,4.6755,4.6755,4.6755,4.6451,4.5686,4.5594,4.5594,4.5594,4.5535,4.5508,4.5499,4.5568,4.5573,4.5504,4.5495,4.5467,4.5408,4.5398,4.5411,4.5436,4.6156,4.659,4.6844,4.8397,4.9142,4.9276,4.9996,5.0302,5.0302,5.0302,5.0302,5.0302,5.0302,5.0302,5.0302,5.0302,5.0302,5.0302,0.0,0.0,0.0,0.0,0.0,0.0,0.0,2.9701,3.0607,3.1445,3.1897,3.2542,3.3612,3.3738,3.4006,3.4651,3.4709,3.5014,3.5717,3.5263,3.5572,3.6914,3.6504,3.6638,3.7445,3.7292,3.7368,3.7697,3.8247,3.8682,3.903,3.9713,4.0134,4.0306,0.0,0.0,0.0,0.0,0.0,4.133,4.1659,0.0,4.2903,4.3917,4.4712,4.5273,4.5334,4.5455,4.5473,4.4812,4.4543,4.4369,0.0,0.0,0.0,0.0,0.0,0.0,0.0,0.0,0.0,0.0,0.0,0.0,4.199,4.2364,4.2741,4.2213,4.2772,4.3427,4.36,4.413,4.4551,4.4551,4.5148,4.5667,4.5821,4.5859,4.5859,4.5859,4.5859,4.5782,4.5614,4.5594,4.5594,4.5594,4.5586,4.5564,4.5504,4.5568,4.5573,4.5504,4.5443,4.541,4.5408,4.5343,4.5637,4.6271,4.6418,4.7226,4.8607,4.8932,4.9448,5.0073,5.0225,5.0302,5.0302,5.0302,5.0302,5.0302,5.0302,5.0302,5.0302,5.0302,5.0302,5.0302,0.0,0.0,0.0,0.0,0.0,0.0,0.0,3.1518,3.2038,3.2446,3.3007,3.3662,3.4503,3.4999,3.5415,3.5817,3.6218,3.6623,3.7077,3.67,3.6814,3.7659,3.7311,3.7483,3.8323,3.8343,3.8553,3.9011,3.9427,3.9656,3.9656,4.0095,4.0306,4.0306,0.0,0.0,0.0,0.0,4.0764,4.1557,4.2115,0.0,4.3661,4.4665,4.5298,4.5653,4.569,4.577,4.5762,4.5272,4.5112,0.0,0.0,4.4391,4.4263,0.0,4.4013,4.4244,0.0,0.0,0.0,4.4359,0.0,0.0,0.0,4.2446,4.2331,4.1889,4.2158,4.2581,4.3028,4.3758,4.4297,4.4297,4.5032,4.5594,4.5594,4.5594,4.5594,4.5594,4.5594,4.5594,4.5594,4.5594,4.5573,4.5504,4.5564,4.5559,4.5467,4.5555,4.5559,4.5448,4.5419,4.5577,4.5955,4.5924,4.6328,4.7144,4.7589,4.8244,4.9104,4.9524,4.992,5.0302,5.0302,5.0302,5.0302,5.0302,5.0302,5.0302,5.0302,5.0302,5.0302,5.0302,5.0302,5.0302,0.0,0.0,0.0,0.0,0.0,0.0,0.0,0.0,3.3062,3.3387,3.404,3.4789,3.5587,0.0,0.0,0.0,3.733,3.7774,0.0,0.0,0.0,3.819,3.8037,3.8362,3.9236,3.9255,3.9599,4.0306,4.0306,4.0306,4.0306,4.0306,4.0306,0.0,0.0,0.0,0.0,0.0,0.0,4.1839,0.0,4.3544,4.4197,4.5201,4.5562,4.557,4.5603,4.5705,4.5812,4.5747,4.5741,4.576,4.576,4.5688,0.0,0.0,0.0,0.0,0.0,0.0,0.0,0.0,0.0,4.434,0.0,0.0,0.0,4.2081,4.2043,4.2273,4.297,4.3758,4.4239,4.4085,4.4936,4.5537,4.5359,4.534,4.5417,4.5575,4.5594,4.5594,4.5594,4.5594,4.5555,4.5429,4.5513,4.5527,4.5424,4.5508,4.5508,4.541,4.5549,4.5916,4.65,4.6667,4.7182,4.8061,4.876,4.918,4.9352,4.9996,5.0302,5.0302,5.0302,5.0302,5.0302,5.0302,5.0302,5.0302,5.0302,5.0302,5.0302,5.0302,5.0302,5.0302,2.8003,2.8675,0.0,0.0,0.0,0.0,0.0,0.0,3.4388,3.587,3.6156,3.6523,0.0,0.0,0.0,0.0,0.0,0.0,3.8801,0.0,0.0,3.9943,3.9255,3.9255,4.0134,4.0153,4.021,4.0306,4.0306,4.0306,4.0306,4.0306,4.0306,0.0,4.0306,0.0,0.0,0.0,4.1858,0.0,4.354,4.3936,0.0,4.5126,4.5463,4.5448,4.5622,4.5622,4.5573,0.0,4.5708,4.5625,0.0,4.5607,4.5575,4.5475,0.0,0.0,0.0,0.0,0.0,0.0,4.5537,0.0,0.0,0.0,4.3816,4.3104,0.0,4.2989,4.3085,0.0,0.0,4.3355,4.4571,4.5321,4.4571,4.4455,4.4724,4.5518,4.5594,4.5594,4.5594,4.5594,4.5573,4.5495,4.5504,4.5504,4.5495,4.5443,4.5419,4.5405,4.6084,4.6487,4.65,4.7278,4.808,4.8951,4.9047,4.9467,5.0168,5.0264,5.0302,5.0302,5.0302,5.0302,5.0302,5.0302,5.0302,5.0302,5.0302,5.0302,5.0302,5.0302,5.0302,5.0302,2.9927,3.0128,0.0,0.0,0.0,0.0,0.0,3.5102,3.5702,3.6405,3.6905,0.0,0.0,0.0,0.0,0.0,0.0,3.935,0.0,0.0,0.0,0.0,0.0,0.0,0.0,4.0306,4.0306,4.0306,4.0306,4.0306,4.0306,4.0306,4.0306,0.0,4.0306,0.0,4.1017,0.0,4.2278,0.0,0.0,0.0,0.0,4.5218,4.5395,4.5414,4.5538,4.5552,4.5522,0.0,4.5654,0.0,0.0,0.0,0.0,0.0,0.0,0.0,0.0,0.0,0.0,0.0,0.0,0.0,4.4494,0.0,4.4066,0.0,0.0,0.0,0.0,0.0,0.0,0.0,4.4801,4.5302,4.4417,4.4297,4.4628,4.5498,4.5148,4.5032,4.5556,4.5594,4.5559,4.5443,4.5485,4.5476,4.5434,4.5419,4.539,4.54,4.6174,4.6802,4.7259,4.8124,4.8965,4.9811,4.9811,4.9977,5.0302,5.0302,5.0302,5.0302,5.0302,5.0302,5.0302,5.0302,5.0302,5.0302,5.0302,5.0302,5.0302,5.0302,5.0302,5.0302,3.1875,0.0,0.0,0.0,0.0,0.0,0.0,0.0,0.0,0.0,0.0,0.0,3.8381,3.8973,0.0,0.0,3.9924,4.0306,0.0,0.0,4.0306,0.0,0.0,0.0,0.0,4.0306,4.0306,4.0306,4.0306,4.0306,4.0306,4.0306,4.042,4.063,0.0,4.1094,4.1863,0.0,4.2884,4.4025,4.426,4.4753,4.5328,4.5324,4.54,4.5485,4.5571,4.5566,4.5535,4.5637,4.5633,0.0,4.5594,0.0,0.0,0.0,0.0,0.0,4.5956,0.0,0.0,0.0,0.0,0.0,0.0,0.0,0.0,0.0,0.0,0.0,0.0,0.0,4.459,0.0,0.0,4.5225,4.4124,4.397,4.4201,4.4808,4.4534,4.4645,4.5496,4.5573,4.5527,4.5434,4.5453,4.5453,4.539,4.5375,4.537,4.5408,4.6397,4.7207,4.7788,4.8888,4.971,5.0302,5.0302,5.0302,5.0302,5.0302,5.0302,5.0302,5.0302,5.0302,5.0302,5.0302,5.0302,5.0302,5.0302,5.0302,5.0302,5.0302,5.0302,5.0302,3.375,3.323,0.0,0.0,0.0,0.0,0.0,0.0,0.0,0.0,0.0,0.0,0.0,0.0,0.0,0.0,0.0,4.0306,4.0306,0.0,4.0306,0.0,0.0,4.0306,0.0,4.0306,4.0306,4.0306,4.0306,4.0306,4.0306,4.0306,4.0726,4.1461,4.1461,4.1934,4.2813,4.3591,4.3949,4.4064,4.4914,4.5314,4.5408,0.0,4.5509,4.5703,4.5763,0.0,0.0,4.5746,4.5715,0.0,0.0,0.0,0.0,0.0,0.0,0.0,0.0,0.0,0.0,4.6851,0.0,0.0,0.0,0.0,4.5556,0.0,0.0,0.0,4.5518,4.5537,4.5282,0.0,0.0,0.0,0.0,4.3143,4.3111,4.3092,4.3794,4.4616,4.5427,4.5504,4.5504,4.5499,4.5448,4.5395,4.54,4.5345,4.5333,4.5403,4.6947,4.7775,4.7794,4.9436,5.0264,5.0302,5.0302,5.0302,5.0302,5.0302,5.0302,5.0302,5.0302,5.0302,5.0302,5.0302,5.0302,5.0302,5.0302,5.0302,5.0302,5.0302,5.0302,5.0302,0.0,0.0,0.0,0.0,0.0,0.0,0.0,3.744,0.0,0.0,0.0,0.0,0.0,4.1948,4.1948,0.0,0.0,4.1094,4.1094,4.0592,0.0,0.0,0.0,4.0306,0.0,0.0,4.0306,4.0306,4.0306,4.0306,4.0306,4.0306,4.0458,4.0726,0.0,4.1972,0.0,0.0,0.0,0.0,0.0,4.5388,4.5394,0.0,4.548,4.5582,4.5647,4.5646,0.0,4.5643,4.5646,4.5594,4.5594,4.5594,4.5594,4.5594,4.5802,4.6033,0.0,0.0,4.6908,4.6908,0.0,0.0,0.0,0.0,0.0,0.0,0.0,0.0,0.0,0.0,0.0,0.0,0.0,0.0,0.0,4.3391,4.3011,4.2935,0.0,0.0,0.0,4.4712,4.4449,4.3826,4.4283,4.4566,4.4474,4.4993,4.5555,4.6106,4.7212,4.808,4.864,4.9748,5.0302,5.0302,5.0302,5.0302,5.0302,5.0302,5.0302,5.0302,5.0302,5.0302,5.0302,5.0302,5.0302,5.0302,5.0302,5.0302,5.0302,5.0302,5.0302,5.0302,3.5606,0.0,0.0,0.0,0.0,0.0,0.0,0.0,0.0,0.0,4.2163,0.0,4.3634,0.0,4.3228,0.0,4.245,4.1824,4.1519,4.1304,0.0,4.0325,4.0573,0.0,0.0,0.0,4.0306,4.0306,4.0306,4.0306,4.0306,4.0592,4.0726,0.0,0.0,4.2698,4.3286,4.4152,4.4812,0.0,0.0,4.5404,0.0,0.0,4.5443,4.5481,0.0,4.5594,4.5594,4.5594,4.5802,4.6071,4.6071,4.6263,4.6494,4.6494,4.6706,4.6956,4.6956,4.7355,0.0,4.7408,4.7331,0.0,4.6567,0.0,4.6417,0.0,0.0,0.0,0.0,0.0,0.0,0.0,0.0,0.0,0.0,4.3785,0.0,4.3363,0.0,0.0,0.0,4.3965,4.3534,4.2909,4.3666,4.4125,4.4011,4.4838,4.5665,4.6476,4.7354,4.822,4.9085,4.9901,5.0302,5.0302,5.0302,5.0302,5.0302,5.0302,5.0302,5.0302,5.0302,5.0302,5.0302,5.0302,5.0302,5.0302,5.0302,5.0302,5.0302,5.0302,5.0302,5.0302,0.0,0.0,0.0,0.0,3.7287,0.0,0.0,0.0,4.1882,0.0,4.4327,4.5378,4.5416,4.468,4.4178,4.4121,4.3381,4.2545,4.1691,4.2354,0.0,0.0,4.1151,4.1208,4.0439,0.0,0.0,0.0,4.0363,4.0344,4.0325,4.1074,4.1461,0.0,4.3214,0.0,4.4074,4.5,4.5389,4.5399,4.541,4.5438,4.5499,4.5504,4.5452,4.5424,4.5559,4.5594,4.5594,4.5594,4.6144,4.6831,4.6831,4.7351,4.7985,4.7985,4.8567,4.9202,4.9202,4.926,4.9144,4.8312,4.812,0.0,0.0,0.0,4.787,0.0,0.0,0.0,0.0,0.0,0.0,0.0,0.0,0.0,0.0,0.0,4.425,0.0,0.0,0.0,0.0,4.3302,4.2794,4.2685,4.3518,4.401,4.3935,4.48,4.5684,4.6533,4.7373,4.8233,4.9142,4.992,5.0302,5.0302,5.0302,5.0302,5.0302,5.0302,5.0302,5.0302,5.0302,5.0302,5.0302,5.0302,5.0302,5.0302,5.0302,5.0302,5.0302,5.0302,5.0302,5.0302,3.7349,3.7899,3.8567,0.0,3.8968,3.8744,0.0,0.0,0.0,0.0,4.5158,4.6443,4.7087,4.6953,4.6571,4.5903,4.5125,0.0,0.0,0.0,0.0,4.2183,4.2354,4.2374,4.2163,4.2163,0.0,4.1189,0.0,0.0,4.0301,4.0516,0.0,0.0,0.0,0.0,4.4129,4.5016,4.5429,4.5462,4.5476,4.549,4.5504,0.0,4.5527,4.549,4.5573,4.5594,4.5594,4.5594,4.5744,4.5936,4.5936,4.6071,4.6244,4.6244,4.6398,4.6571,4.6571,4.7471,4.8375,4.8159,4.8586,4.8952,0.0,0.0,0.0,0.0,0.0,0.0,0.0,0.0,0.0,0.0,0.0,0.0,0.0,0.0,0.0,4.4269,0.0,0.0,4.3177,4.2445,4.1661,4.0996,4.2297,4.3135,4.3119,4.4499,4.5965,4.7412,4.7679,4.852,4.9977,5.0206,5.0302,5.0302,5.0302,5.0302,5.0302,5.0302,5.0302,5.0302,5.0302,5.0302,5.0302,5.0302,5.0302,5.0302,5.0302,5.0302,5.0302,5.0302,5.0302,5.0302,3.819,0.0,0.0,4.021,0.0,0.0,4.0654,4.1877,0.0,4.4413,4.6036,0.0,4.7755,4.8138,4.8162,4.7685,4.6863,0.0,4.4642,0.0,0.0,4.2851,4.3133,4.3152,4.2813,4.2794,0.0,4.15,0.0,0.0,4.0325,0.0,0.0,0.0,0.0,4.3976,4.4154,4.5036,4.5434,4.5504,4.5522,4.5531,0.0,4.5581,4.5577,4.5555,4.5581,4.5594,4.5594,4.5594,4.609,4.6687,4.6687,4.7225,4.7826,4.7826,4.7826,4.7826,4.7826,4.8245,4.8586,4.8197,4.8759,4.9202,4.8471,4.8798,4.9125,0.0,4.8663,4.8529,0.0,0.0,0.0,0.0,0.0,0.0,0.0,0.0,0.0,0.0,4.392,0.0,4.3412,4.1967,4.0963,4.0835,4.2058,4.2943,4.331,4.4571,4.6061,4.7755,4.7794,4.8596,5.0283,5.0302,5.0302,5.0302,5.0302,5.0302,5.0302,5.0302,5.0302,5.0302,5.0302,5.0302,5.0302,5.0302,5.0302,5.0302,5.0302,5.0302,5.0359,5.0735,5.0621,5.0397,3.903,0.0,0.0,0.0,0.0,0.0,0.0,4.331,0.0,4.5436,0.0,4.8138,4.8138,4.8793,4.9219,4.9104,0.0,4.7297,4.5741,4.629,4.5654,4.3386,4.3954,4.3954,4.3157,4.3138,4.2641,0.0,0.0,0.0,0.0,0.0,0.0,0.0,0.0,0.0,0.0,4.5089,4.5443,4.5513,4.5577,4.5594,4.5594,4.5594,4.5594,4.5594,4.5594,4.5594,4.5594,4.5594,4.6571,4.7798,4.7908,4.8971,5.0207,5.0207,5.0284,5.0303,5.0091,4.9726,4.9183,4.8317,4.8836,4.9183,4.7735,4.9106,5.0495,4.9726,4.9572,4.9534,4.9413,0.0,0.0,0.0,0.0,0.0,0.0,0.0,0.0,0.0,0.0,0.0,4.4092,4.1982,4.0911,4.1614,4.2475,4.3259,4.3954,4.4838,4.6061,4.7755,4.7794,4.8596,5.0283,5.0302,5.0302,5.0302,5.0302,5.0302,5.0302,5.0302,5.0302,5.0302,5.0302,5.0302,5.0302,5.0302,5.0302,5.0302,5.0302,5.0378,5.0569,5.1442,5.127,5.0837,0.0,0.0,0.0,0.0,0.0,4.3271,4.4652,4.6042,4.703,4.7316,4.8825,4.9862,4.9862,4.9996,4.9824,4.9161,4.8951,0.0,0.0,0.0,0.0,4.5903,4.5979,4.5698,4.4881,4.4862,4.4117,0.0,0.0,0.0,0.0,0.0,0.0,0.0,0.0,0.0,4.526,4.5428,0.0,4.5581,4.5609,4.5594,4.5594,4.5594,4.5594,4.5594,4.5594,4.5594,4.5594,4.5594,4.5802,4.6167,4.687,4.7312,4.7562,4.7562,4.8048,4.8259,4.686,4.7918,4.9183,4.8317,4.9298,5.0399,5.0091,5.038,5.0649,5.0495,5.0476,5.0245,4.9529,0.0,0.0,0.0,0.0,0.0,0.0,0.0,0.0,0.0,0.0,4.4092,0.0,4.3043,4.2422,4.2565,4.3334,4.3845,4.3987,4.4838,4.6061,4.7755,4.7794,4.8596,5.0283,5.0302,5.0302,5.0302,5.0302,5.0302,5.0302,5.0302,5.0302,5.0302,5.0302,5.0302,5.0302,5.0302,5.0302,5.0302,5.0302,5.0735,5.1461,5.2289,5.2486,5.2409,0.0,0.0,0.0,0.0,0.0,0.0,0.0,4.8315,4.8787,4.7908,4.85,4.8997,4.8997,4.978,5.0149,4.9754,4.971,4.9366,4.8525,4.8468,4.7876,4.6552,4.6495,4.6118,4.5321,4.5302,4.4701,4.3464,0.0,0.0,0.0,0.0,0.0,0.0,0.0,4.4681,0.0,0.0,4.5782,4.6184,4.5774,4.5879,4.622,4.5763,4.5594,4.5594,4.5594,4.5594,4.5594,4.5594,4.6186,4.6971,4.7389,4.8144,4.8875,4.8875,4.9144,4.9264,4.8456,4.8803,4.9298,4.8875,4.9413,5.0034,5.0034,5.038,5.0707,5.0707,5.0707,5.0438,4.9548,4.8337,0.0,0.0,0.0,0.0,0.0,0.0,0.0,0.0,0.0,0.0,0.0,0.0,0.0,0.0,0.0,4.4202,4.4647,4.5073,4.6061,4.7755,4.7794,4.8596,5.0283,5.0302,5.0302,5.0302,5.0302,5.0302,5.0302,5.0302,5.0302,5.0302,5.0302,5.0302,5.0302,5.0302,5.0302,5.034,5.0799,5.1232,5.1748,5.3015,5.3473,5.3531,0.0,4.2794,0.0,0.0,4.5566,4.7005,4.884,5.0121,5.0319,4.8806,4.8443,4.8329,4.8329,4.9513,5.0302,5.0302,5.0302,5.0034,4.9391,4.9352,4.8588,4.6858,4.6781,4.6309,4.5321,4.5312,4.4917,0.0,0.0,0.0,0.0,0.0,0.0,0.0,0.0,0.0,0.0,4.5755,4.6287,4.7007,4.6207,4.6394,4.7043,4.5994,4.5725,4.584,4.5667,4.5594,4.5594,4.5594,4.6605,4.7908,4.8255,4.9317,5.0418,5.0418,5.0553,5.0611,5.0245,4.9918,4.963,4.9452,4.9534,4.9687,4.9687,5.0207,5.0707,5.0707,5.0707,5.0438,4.9548,4.8836,0.0,0.0,0.0,0.0,0.0,0.0,0.0,0.0,0.0,0.0,4.5374,4.5338,4.5026,4.4336,4.4279,4.4584,4.5264,4.5302,4.6061,4.7755,4.7794,4.8596,5.0283,5.0302,5.0302,5.0302,5.0302,5.0302,5.0302,5.0302,5.0302,5.0302,5.0302,5.0302,5.0302,5.0506,5.0588,5.0665,5.1519,5.1977,5.2283,5.3607,5.4218,5.4467,0.0,0.0,0.0,0.0,0.0,4.9767,4.9275,5.1165,5.2322,5.1372,5.0563,5.0073,5.0073,5.0206,5.0302,5.0302,5.0302,5.0264,5.0187,5.0187,4.9442,4.7755,4.7679,4.6934,4.5321,4.5353,4.4977,0.0,0.0,4.3206,0.0,0.0,0.0,0.0,0.0,4.587,4.6666,4.6676,4.7189,4.7904,4.7101,4.7255,4.7812,4.6206,4.609,4.6678,4.5879,4.5594,4.5594,4.5594,4.622,4.7274,4.8798,4.9394,4.951,4.951,5.0072,5.0361,4.8779,4.9433,5.038,4.961,4.9995,5.0572,5.0572,5.063,5.0707,5.0707,5.0707,5.0438,4.9548,4.9336,4.899,0.0,0.0,0.0,0.0,0.0,4.643,0.0,0.0,0.0,4.5328,4.5353,4.5339,4.5192,4.5187,4.5206,4.5302,4.5302,4.6061,4.7755,4.7794,4.8596,5.0283,5.0302,5.0302,5.0302,5.0302,5.0302,5.0302,5.0302,5.0302,5.0302,5.0302,5.0302,5.0359,5.1156,5.148,5.1557,5.2365,5.3168,5.3874,5.4046,5.46,5.5282,0.0,0.0,0.0,0.0,0.0,0.0,0.0,5.1105,5.1454,5.1641,5.1313,5.0869,5.0359,5.0302,5.0302,5.0302,5.0302,5.0302,5.0302,5.0331,4.9602,4.7939,4.79,4.7122,4.5399,4.5385,4.5256,0.0,0.0,0.0,0.0,0.0,4.3894,4.4268,4.5125,4.6003,4.6777,4.6276,4.6856,4.8024,4.7216,4.7081,4.7351,4.7163,4.6682,4.6144,4.6317,4.6033,4.5686,4.6201,4.6601,4.7101,4.8259,4.8971,4.949,5.0034,5.0438,5.0553,4.9861,5.0168,5.0611,5.0265,5.0438,5.0678,5.0643,5.0633,5.0633,5.0633,5.0663,5.0592,5.0245,4.9745,4.9269,4.8885,0.0,0.0,0.0,0.0,0.0,0.0,0.0,0.0,0.0,4.5343,4.5328,0.0,0.0,0.0,4.5302,4.5755,4.6577,4.7755,4.8315,4.9137,5.0283,5.0302,5.0302,5.0302,5.0302,5.0302,5.0302,5.0302,5.0302,5.0302,5.0302,5.0302,5.0378,5.1232,5.1595,5.1729,5.3053,5.3798,5.4161,5.4696,5.5091,5.5396,4.8109,0.0,4.8349,0.0,4.988,5.008,5.1817,5.1584,5.1212,5.1318,5.1494,5.1298,5.0421,5.0342,5.0354,5.0354,5.0354,5.0354,5.0354,5.0393,4.9688,4.8003,4.7968,0.0,4.5443,4.5419,4.5448,4.5499,4.5499,0.0,0.0,4.459,4.4429,4.4673,4.5323,4.6068,4.6781,4.6226,4.6951,4.8413,4.7582,4.7408,4.7639,4.7716,4.7009,4.6033,4.6394,4.6124,4.5686,4.6317,4.6697,4.7081,4.8139,4.9086,4.9899,5.0515,5.0707,5.0707,5.0707,5.0707,5.0707,5.0707,5.0707,5.0697,5.0638,5.0628,5.0623,5.0603,5.0633,5.0658,5.0643,5.0139,4.9701,4.9656,0.0,0.0,0.0,4.7236,0.0,0.0,4.5534,4.5399,4.5364,4.5343,0.0,0.0,0.0,0.0,4.5302,4.6061,4.6896,4.7775,4.864,4.9486,5.0283,5.0302,5.0302,5.0302,5.0302,5.0302,5.0302,5.0302,5.0302,5.0302,5.0302,5.0302,5.0397,5.1505,5.1939,5.2117,5.3817,5.4486,5.4562,5.5167,5.5396,5.5396,4.9034,4.9873,5.1001,5.2748,5.3037,5.3034,5.2979,5.3037,5.2431,5.0648,5.1165,5.1368,5.0483,5.0462,5.05,5.05,5.05,5.05,5.05,5.05,4.9758,0.0,0.0,4.7188,4.5443,4.5457,4.5499,4.5499,0.0,0.0,4.4321,4.4297,4.4718,4.5485,4.5573,4.6086,4.6908,4.6889,4.7851,4.9317,4.8432,4.8606,4.9183,4.7543,4.6908,4.6774,4.5917,4.5614,4.5594,4.5614,4.6182,4.7197,4.8856,4.9976,5.0688,5.0707,5.0707,5.0707,5.0707,5.0707,5.0707,5.0707,5.0707,5.0707,5.0707,5.0707,5.0673,5.0613,5.0598,5.0582,5.0516,5.0486,5.0486,5.0486,0.0,0.0,0.0,4.8487,0.0,4.6705,4.5888,4.5361,4.5312,4.5353,0.0,0.0,0.0,0.0,4.5302,4.6061,4.6896,4.7775,4.864,4.9486,5.0283,5.0302,5.0302,5.0302,5.0302,5.0302,5.0302,5.0302,5.0302,5.0302,5.0302,5.0302,5.0436,5.2098,5.2792,5.2964,5.4696,5.5377,5.5396,5.5396,5.5396,5.5396,5.038,5.0618,5.0945,5.1498,5.1982,5.2085,5.1522,5.1881,5.1816,5.0685,5.0773,5.083,5.0565,5.0511,5.0505,0.0,5.0505,5.0505,0.0,5.0537,5.0038,4.887,4.8346,4.7521,4.6374,4.5829,4.5568,4.5568,4.616,4.6318,4.6062,4.6062,4.5885,4.5573,4.5586,4.6398,4.7678,4.7139,4.7524,4.849,4.8216,4.7586,4.6937,4.8144,4.7889,4.7005,4.7875,4.7451,4.649,4.649,4.7043,4.7812,4.8355,4.9106,4.9938,5.0534,5.0707,5.0707,5.0707,5.0707,5.0707,5.0707,5.0707,5.0697,5.0638,5.0628,5.0623,5.0603,5.0633,5.0643,5.0588,5.0577,5.0551,5.0451,5.0435,0.0,4.8447,0.0,4.7332,4.5882,4.5969,4.6136,4.6123,4.6134,0.0,0.0,0.0,0.0,4.6099,4.6915,4.7794,4.8659,4.948,5.0034,5.0302,5.0302,5.0302,5.0302,5.0302,5.0608,5.1194,5.1194,5.1486,5.2002,5.2002,5.1697,5.1328,5.2996,5.3346,5.2964,5.4715,5.5396,5.5396,5.5396,5.5396,5.5396,5.0997,5.0944,5.101,5.1293,5.1411,5.1365,5.1139,5.1278,5.1205,5.068,5.0618,5.0633,5.0633,5.0608,5.0588,5.0588,5.0588,5.0588,5.0588,5.0618,5.008,4.883,4.8356,4.7548,4.6367,4.5865,4.5594,4.5594,4.6144,4.6413,4.6413,4.6413,4.6124,4.5614,4.5936,4.649,4.7144,4.6966,4.7197,4.7658,4.7658,4.7201,4.6706,4.8317,4.8259,4.7447,4.8182,4.7793,4.6851,4.6528,4.7163,4.8101,4.8101,4.8913,4.9995,5.0534,5.0707,5.0707,5.0707,5.0707,5.0707,5.0707,5.0707,5.0697,5.0643,5.0633,5.0628,5.0603,5.0628,5.0638,5.0563,5.0553,5.0546,5.0451,5.044,5.006,4.8922,0.0,4.7898,0.0,0.0,4.6991,4.6991,4.6991,4.6858,0.0,0.0,4.6462,4.6953,4.7507,4.8195,4.9066,4.9882,5.0302,5.0302,5.0302,5.0302,5.0302,5.0621,5.1238,5.2053,5.2053,5.2327,5.2811,5.2811,5.2499,5.2136,5.3187,5.3473,5.3397,5.4486,5.511,5.5396,5.5396,5.5396,5.5396,5.105,5.1017,5.1215,5.19,5.1343,5.1,5.1636,5.1192,5.0745,5.0613,5.0653,5.0707,5.0707,5.0707,5.0707,5.0707,5.0707,5.0707,5.0707,5.0707,4.9971,4.8346,4.8159,4.7375,4.5797,4.5667,4.5594,4.5594,4.5594,4.5594,4.5594,4.5594,4.5594,4.5633,4.6451,4.6394,4.5744,4.6567,4.6908,4.6908,4.6966,4.7408,4.8024,4.8139,4.8139,4.8005,4.7312,4.7005,4.6774,4.6033,4.6817,4.8101,4.8178,4.9356,5.0707,5.0707,5.0707,5.0707,5.0707,5.0707,5.0707,5.0707,5.0707,5.0683,5.0683,5.0683,5.0687,5.0613,5.0598,5.0582,5.0511,5.05,5.0495,5.0489,5.0489,5.0429,5.033,4.9617,4.9084,4.9014,4.8353,4.7889,4.7889,4.7889,4.7545,4.6743,0.0,0.0,4.7889,4.7889,4.829,4.9161,4.9901,5.0302,5.0302,5.0302,5.034,5.0397,5.127,5.2117,5.2887,5.2887,5.2925,5.2983,5.2983,5.2944,5.2887,5.2964,5.3416,5.4104,5.418,5.4696,5.5396,5.5396,5.5396,5.5396,5.1436,5.1653,5.1823,5.1344,5.146,5.1467,5.1034,5.1327,5.139,5.0764,5.0683,5.0707,5.0707,5.0707,5.0707,5.0707,5.0707,5.0707,5.0707,5.0707,5.0495,5.0023,4.8774,4.7895,4.7434,4.6226,4.5594,4.5594,4.5594,4.5594,4.5594,4.5594,4.5594,4.5614,4.5821,4.6163,4.6601,4.6812,4.6908,4.6947,4.7562,4.7562,4.7312,4.8606,4.8682,4.8159,4.8644,4.799,4.6966,4.7375,4.7778,4.8216,4.8875,4.9822,5.0707,5.0707,5.0707,5.0707,5.0707,5.0707,5.0707,5.0707,5.0653,5.0618,5.0618,5.0618,5.0618,5.0603,5.0598,5.0582,5.0511,5.0462,5.0412,5.0354,5.0342,5.0132,4.9509,4.9236,4.8848,4.82,4.8506,4.8798,4.8798,4.8798,4.8703,4.8493,0.0,4.808,4.876,4.8798,4.9175,4.9996,5.0206,5.0302,5.0302,5.0302,5.0621,5.1308,5.2117,5.2957,5.3798,5.3798,5.4161,5.4785,5.4785,5.4409,5.3836,5.4505,5.4505,5.418,5.483,5.5224,5.5396,5.5396,5.5396,5.5396,5.2098,5.2531,5.2829,5.2282,5.2086,5.1813,5.1313,5.1318,5.1183,5.0765,5.0707,5.0707,5.0707,5.0707,5.0707,5.0707,5.0707,5.0707,5.0707,5.0707,5.05,5.0062,4.9188,4.8495,4.8063,4.7188,4.6567,4.6182,4.5802,4.5594,4.5594,4.5594,4.5594,4.5614,4.6013,4.624,4.6336,4.6735,4.6678,4.6336,4.6778,4.6932,4.7005,4.7908,4.8202,4.8159,4.8644,4.8221,4.7524,4.7947,4.8351,4.8779,4.924,4.9995,5.0707,5.0707,5.0707,5.0707,5.0707,5.0707,5.0707,5.0707,5.0643,5.0598,5.0598,5.0582,5.0542,5.0542,5.0542,5.0537,5.0511,5.0473,5.0421,5.0393,5.0388,5.0223,4.9755,4.9692,4.9509,4.9003,4.9366,4.9652,4.9652,4.9652,4.9505,4.9123,4.9003,4.8984,4.9085,4.9448,4.9843,5.0283,5.0302,5.0302,5.0302,5.0703,5.1519,5.2741,5.3187,5.3855,5.4696,5.4696,5.4957,5.5396,5.5396,5.5129,5.4696,5.4766,5.4753,5.4696,5.4785,5.5052,5.5396,5.5396,5.5396,5.5396,5.2918,5.3499,5.3907,5.3657,5.2768,5.2056,5.1919,5.1221,5.0707,5.0707,5.0707,5.0707,5.0707,5.0707,5.0707,5.0707,5.0707,5.0707,5.0707,5.0707,5.0361,4.963,4.9471,4.9048,4.8312,4.8043,4.7524,4.6697,4.5956,4.5594,4.5594,4.5594,4.5594,4.5633,4.6374,4.6297,4.5648,4.6394,4.6278,4.5614,4.5744,4.624,4.6908,4.7024,4.7505,4.8101,4.8101,4.8101,4.812,4.8255,4.8798,4.9413,4.9548,5.0091,5.0707,5.0707,5.0707,5.0707,5.0707,5.0683,5.0673,5.0668,5.0618,5.0572,5.0572,5.0521,5.0489,5.0489,5.0489,5.0489,5.0489,5.0484,5.0478,5.0478,5.0478,5.0457,5.0401,5.0371,5.0354,5.0308,5.0302,5.0302,5.0302,5.0302,5.0015,4.9333,4.9901,4.9996,4.9314,4.992,5.0302,5.0302,5.0436,5.0544,5.0684,5.1538,5.2684,5.4104,5.4237,5.4677,5.5396,5.5396,5.5396,5.5396,5.5396,5.5396,5.5339,5.46,5.4728,5.532,5.46,5.4753,5.5396,5.5396,5.5396,5.5396,5.3932,5.4398,5.4613,5.3754,5.2768,5.2056,5.1919,5.1221,5.0707,5.0707,5.0707,5.0707,5.0707,5.0707,5.0707,5.0707,5.0707,5.0707,5.0707,5.0707,5.063,5.0495,4.9784,4.9336,4.9202,4.7812,4.6663,4.5802,4.5667,4.5594,4.5594,4.5594,4.5594,4.5614,4.5744,4.5725,4.5614,4.5744,4.5725,4.5667,4.6394,4.6774,4.6966,4.7658,4.7985,4.8101,4.8101,4.8101,4.8216,4.8952,4.9298,4.9529,5.0265,5.0592,5.0707,5.0707,5.0707,5.0707,5.0707,5.0653,5.0603,5.0542,5.0484,5.0429,5.0429,5.0424,5.0418,5.0418,5.0418,5.0418,5.0418,5.0359,5.0331,5.0331,5.0331,5.0325,5.0314,5.0314,5.0314,5.0302,5.0302,5.0302,5.0302,5.0302,5.0245,5.013,5.0225,5.0245,5.013,5.0225,5.0302,5.0302,5.1003,5.171,5.2409,5.3282,5.3836,5.4104,5.4849,5.5263,5.5396,5.5396,5.5396,5.5396,5.5396,5.5396,5.5396,5.5244,5.5282,5.5396,5.5244,5.5282,5.5396,5.5396,5.5396,5.5396,5.4771,5.5359,5.5697,5.5065,5.3822,5.2845,5.2637,5.151,5.0707,5.0707,5.0707,5.0707,5.0707,5.0707,5.0707,5.0707,5.0707,5.0707,5.0707,5.0707,5.0707,5.0707,5.0303,5.0091,5.0091,4.8875,4.7817,4.6951,4.6509,4.6071,4.5594,4.5594,4.5594,4.5594,4.5594,4.5594,4.5594,4.5594,4.5594,4.5686,4.6547,4.6908,4.6985,4.7793,4.8101,4.8159,4.8625,4.8798,4.8933,4.9803,5.0091,5.0168,5.0572,5.0707,5.0707,5.0707,5.0707,5.0683,5.0648,5.0618,5.0588,5.0516,5.0451,5.0401,5.0401,5.0359,5.0356,5.0356,5.0356,5.0356,5.0356,5.0319,5.0302,5.0302,5.0302,5.0302,5.0302,5.0302,5.0302,5.0302,5.0302,5.0302,5.0302,5.0302,5.0302,5.0302,5.0302,5.0302,5.0302,5.0302,5.0302,5.0302,5.1156,5.1983,5.2792,5.3664,5.4333,5.4811,5.5205,5.5396,5.5396,5.5396,5.5396,5.5396,5.5396,5.5396,5.5396,5.5396,5.5396,5.5396,5.5396,5.5396,5.5396,5.5396,5.5396,5.5396,5.5592,5.6109,5.6434,5.6157,5.4854,5.3715,5.3277,5.2106,5.1207,5.1015,5.0976,5.1053,5.1265,5.0938,5.0784,5.0957,5.0803,5.0707,5.0707,5.0707,5.0707,5.0707,5.0707,5.0611,5.0399,4.9745,4.8875,4.7812,4.7197,4.6451,4.5594,4.5594,4.5594,4.5594,4.5594,4.5594,4.5594,4.5594,4.5725,4.5956,4.662,4.7005,4.7255,4.7851,4.8235,4.849,4.9163,4.9529,4.9803,5.0476,5.0707,5.0707,5.0707,5.0707,5.0707,5.0707,5.0707,5.0673,5.0603,5.0572,5.0546,5.0473,5.0404,5.0384,5.0384,5.0331,5.0302,5.0302,5.0302,5.0302,5.0302,5.0302,5.0302,5.0302,5.0302,5.0302,5.0302,5.0302,5.0302,5.0302,5.0302,5.0302,5.0302,5.0302,5.0302,5.0302,5.0302,5.0302,5.0302,5.0302,5.0397,5.0602,5.1423,5.2365,5.3397,5.4065,5.4734,5.5396,5.5396,5.5396,5.5396,5.5396,5.5396,5.5396,5.5396,5.5396,5.5396,5.5396,5.5396,5.5396,5.5396,5.5396,5.5396,5.5396,5.5396,5.5396,5.6507,5.6407,5.6288,5.6122,5.5272,5.4295,5.3353,5.3101,5.2736,5.1928,5.1813,5.212,5.2928,5.163,5.0996,5.1755,5.1125,5.0707,5.0707,5.0707,5.0707,5.0707,5.0707,5.0322,4.951,4.9433,4.8606,4.6985,4.6928,4.6451,4.5594,4.5594,4.5594,4.5594,4.5594,4.5594,4.5594,4.5594,4.6071,4.6812,4.687,4.7351,4.8024,4.8082,4.8606,4.9317,4.9375,4.9918,5.0611,5.0668,5.0707,5.0707,5.0707,5.0707,5.0707,5.0707,5.0707,5.0668,5.0537,5.0462,5.0401,5.0325,5.0314,5.0308,5.0308,5.0302,5.0302,5.0302,5.0302,5.0302,5.0302,5.0302,5.0302,5.0302,5.0302,5.0302,5.0302,5.0302,5.0302,5.0302,5.0302,5.0302,5.0302,5.0302,5.0302,5.0302,5.0302,5.0302,5.0302,5.0302,5.0659,5.148,5.2289,5.3511,5.5186,5.5263,5.5339,5.5396,5.5396,5.5396,5.5396,5.5396,5.5396,5.5396,5.5396,5.5396,5.5396,5.5396,5.5396,5.5396,5.5396,5.5396,5.5396,5.5396,5.5396,5.5396,5.6488,5.6532,5.6402,5.6154,5.5397,5.4634,5.4086,5.3082,5.2467,5.2678,5.2236,5.2236,5.3101,5.214,5.1563,5.1865,5.1164,5.0707,5.0707,5.0707,5.0707,5.0707,5.0707,5.0553,5.0207,5.0207,4.963,4.8452,4.8452,4.8009,4.7144,4.7144,4.7144,4.7144,4.7144,4.7144,4.7144,4.7144,4.7336,4.7697,4.824,4.8625,4.8971,4.9514,4.9918,5.0207,5.0207,5.0418,5.0707,5.0707,5.0707,5.0707,5.0707,5.0707,5.0707,5.0707,5.0643,5.0558,5.0516,5.0484,5.0446,5.0325,5.0302,5.0302,5.0302,5.0302,5.0302,5.0302,5.0302,5.0302,5.0302,5.0302,5.0302,5.0302,5.0302,5.0302,5.0302,5.0302,5.0302,5.0302,5.0302,5.0302,5.0302,5.0302,5.0531,5.106,5.1117,5.1314,5.1811,5.1849,5.2251,5.3129,5.3454,5.3913,5.46,5.5129,5.5396,5.5396,5.5396,5.5396,5.5396,5.5396,5.5396,5.5396,5.5396,5.5396,5.5396,5.5396,5.5396,5.5396,5.5396,5.5396,5.5396,5.5396,5.5396,5.5396,5.6429,5.6554,5.6427,5.6157,5.5614,5.5048,5.4567,5.3703,5.3217,5.3568,5.3082,5.3044,5.3895,5.2736,5.212,5.2678,5.1471,5.0803,5.1048,5.0842,5.0707,5.0707,5.0707,5.0707,5.0707,5.0707,5.0265,4.9394,4.9394,4.8952,4.8101,4.8101,4.8101,4.8101,4.8101,4.8101,4.8101,4.8101,4.8255,4.8567,4.9163,4.9548,4.988,5.0476,5.0707,5.0707,5.0707,5.0707,5.0707,5.0707,5.0707,5.0707,5.0707,5.0707,5.0707,5.0668,5.0608,5.0521,5.0484,5.0473,5.0446,5.0325,5.0302,5.0302,5.0302,5.0302,5.0378,5.0646,5.0703,5.0799,5.1047,5.0875,5.0703,5.0703,5.0474,5.0302,5.0302,5.0302,5.0302,5.0302,5.0302,5.0417,5.0678,5.0703,5.106,5.1901,5.1983,5.2212,5.2772,5.2811,5.3212,5.4065,5.4104,5.4237,5.4505,5.5091,5.5396,5.5396,5.5396,5.5396,5.5396,5.5396,5.5396,5.5396,5.5396,5.5396,5.5396,5.5396,5.5396,5.5396,5.5396,5.5396,5.5396,5.5396,5.5396,5.5396,5.6429,5.6443,5.6261,5.6122,5.599,5.5579,5.4643,5.5189,5.5401,5.4607,5.4491,5.4799,5.5593,5.3428,5.2601,5.4337,5.2169,5.1053,5.1846,5.1144,5.0707,5.0707,5.0707,5.0707,5.0707,5.0707,5.0284,4.9413,4.9413,4.8971,4.812,4.812,4.812,4.812,4.812,4.812,4.812,4.812,4.8625,4.9413,4.9413,4.9938,5.0707,5.0707,5.0707,5.0707,5.0707,5.0707,5.0707,5.0707,5.0707,5.0707,5.0707,5.0707,5.0697,5.0618,5.0598,5.0572,5.0435,5.0401,5.039,5.0314,5.0302,5.0302,5.0302,5.0302,5.0569,5.1423,5.1614,5.1843,5.2652,5.2155,5.1614,5.1595,5.0869,5.0321,5.0302,5.0321,5.0321,5.0321,5.0321,5.0665,5.1538,5.1614,5.1939,5.2753,5.283,5.283,5.283,5.283,5.3225,5.4085,5.4104,5.4524,5.5396,5.5396,5.5396,5.5396,5.5396,5.5396,5.5396,5.5396,5.5396,5.5396,5.5396,5.5396,5.5396,5.5396,5.5396,5.5396,5.5396,5.5396,5.5396,5.5396,5.5396,5.5396,5.6429,5.6554,5.6429,5.6157,5.6061,5.5688,5.4669,5.4703,5.4761,5.453,5.4491,5.4587,5.4818,5.4184,5.3433,5.2736,5.1986,5.1395,5.1087,5.0822,5.0707,5.0707,5.0707,5.0707,5.0707,5.0707,5.0572,5.0303,5.0303,5.0188,4.9918,4.9918,4.9918,4.9918,4.9918,4.9918,4.9918,4.9918,5.0072,5.0303,5.0303,5.0476,5.0707,5.0707,5.0707,5.0707,5.0707,5.0707,5.0707,5.0707,5.0707,5.0707,5.0707,5.0663,5.0623,5.0603,5.0521,5.0585,5.1165,5.1278,5.1084,5.0455,5.0302,5.0302,5.0302,5.0774,5.1289,5.1557,5.2059,5.2518,5.2753,5.2594,5.227,5.1691,5.1868,5.1868,5.1289,5.1697,5.204,5.204,5.204,5.2161,5.2422,5.2442,5.2805,5.3645,5.4276,5.4619,5.4619,5.4619,5.4734,5.4995,5.5014,5.5129,5.5396,5.5396,5.5396,5.5396,5.5396,5.5396,5.5396,5.5396,5.5396,5.5396,5.5396,5.5396,5.5396,5.5396,5.5396,5.5396,5.5396,5.5396,5.5396,5.5396,5.5396,5.5396,5.6429,5.6605,5.6491,5.6163,5.6097,5.5842,5.5083,5.4972,5.4972,5.4972,5.4972,5.4972,5.4972,5.4684,5.4087,5.3024,5.2294,5.1563,5.0745,5.0707,5.0707,5.0707,5.0707,5.0707,5.0707,5.0707,5.0707,5.0707,5.0707,5.0707,5.0707,5.0707,5.0707,5.0707,5.0707,5.0707,5.0707,5.0707,5.0707,5.0707,5.0707,5.0707,5.0707,5.0707,5.0707,5.0707,5.0707,5.0707,5.0707,5.0707,5.0707,5.0707,5.0663,5.0628,5.0593,5.0546,5.0462,5.0573,5.1431,5.1625,5.1557,5.1334,5.1295,5.1295,5.1295,5.1697,5.2174,5.2512,5.2977,5.3416,5.376,5.355,5.3148,5.2671,5.2709,5.2639,5.2136,5.248,5.2811,5.2811,5.2811,5.2944,5.3282,5.3301,5.3683,5.4543,5.5091,5.5396,5.5396,5.5396,5.5396,5.5396,5.5396,5.5396,5.5396,5.5396,5.5396,5.5396,5.5396,5.5396,5.5396,5.5396,5.5396,5.5396,5.5396,5.5396,5.5396,5.5396,5.5396,5.5396,5.5396,5.5396,5.5396,5.5396,5.5396,5.5396,5.6449,5.6605,5.6491,5.6163,5.6097,5.5958,5.5545,5.5593,5.5651,5.5497,5.5612,5.567,5.5593,5.4934,5.4434,5.428,5.2755,5.1486,5.0745,5.0707,5.0707,5.0707,5.0707,5.0707,5.0707,5.0707,5.0707,5.0707,5.0707,5.0707,5.0707,5.0707,5.0707,5.0707,5.0707,5.0707,5.0707,5.0707,5.0707,5.0707,5.0707,5.0707,5.0707,5.0707,5.0707,5.0707,5.0707,5.0707,5.0707,5.0784,5.0803,5.0813,5.083,5.0828,5.0783,5.067,5.0612,5.0786,5.1594,5.1824,5.2015,5.2824,5.304,5.2983,5.2849,5.2868,5.3135,5.3932,5.4161,5.4467,5.5244,5.4753,5.4199,5.4104,5.3492,5.3021,5.2925,5.2983,5.304,5.304,5.304,5.3339,5.4142,5.4218,5.4543,5.5339,5.5396,5.5396,5.5396,5.5396,5.5396,5.5396,5.5396,5.5396,5.5396,5.5396,5.5396,5.5396,5.5396,5.5396,5.5396,5.5396,5.5396,5.5396,5.5396,5.5396,5.5396,5.5396,5.5396,5.5396,5.5396,5.5396,5.5396,5.5396,5.5396,5.5396,5.6566,5.6605,5.6491,5.6163,5.6097,5.5574,5.398,5.4857,5.5222,5.3914,5.4876,5.5458,5.4818,5.4607,5.3953,5.2582,5.1548,5.0899,5.0707,5.0707,5.0707,5.0707,5.0707,5.0707,5.0707,5.0707,5.0707,5.0707,5.0707,5.0707,5.0707,5.0707,5.0707,5.0707,5.0707,5.0707,5.0707,5.0707,5.0707,5.0707,5.0707,5.0707,5.0707,5.0707,5.0707,5.0707,5.0707,5.0707,5.0803,5.1433,5.164,5.1745,5.2361,5.2524,5.2461,5.2382,5.2324,5.246,5.3327,5.3569,5.376,5.4619,5.4849,5.4486,5.3116,5.3327,5.3874,5.4065,5.4632,5.5186,5.5358,5.5244,5.4887,5.4218,5.4505,5.46,5.3913,5.4409,5.4849,5.4849,5.4849,5.49,5.5091,5.5116,5.5205,5.5396,5.5396,5.5396,5.5396,5.5396,5.5396,5.5396,5.5396,5.5396,5.5396,5.5396,5.5396,5.5396,5.5396,5.5396,5.5396,5.5396,5.5396,5.5396,5.5396,5.5396,5.5396,5.5396,5.5396,5.5396,5.5396,5.5396,5.5396,5.5396,5.5396,5.5396,5.6605,5.6527,5.6373,5.6131,5.6059,5.5632,5.4562,5.5145,5.5401,5.4511,5.4818,5.4972,5.4549,5.4126,5.3356,5.2019,5.1164,5.0707,5.0707,5.0707,5.0707,5.0707,5.0707,5.0707,5.0707,5.0707,5.0707,5.0707,5.0707,5.0707,5.0707,5.0707,5.0707,5.0707,5.0707,5.0707,5.0707,5.0707,5.0707,5.0707,5.0707,5.0707,5.0707,5.0707,5.0707,5.0745,5.1125,5.1548,5.1952,5.237,5.2524,5.2591,5.2981,5.3078,5.302,5.293,5.2883,5.3025,5.3868,5.4104,5.4314,5.5186,5.5396,5.5154,5.4256,5.439,5.4715,5.4715,5.5072,5.5396,5.5396,5.5396,5.5244,5.4791,5.5091,5.5244,5.4785,5.511,5.5396,5.5396,5.5396,5.5396,5.5396,5.5396,5.5396,5.5396,5.5396,5.5396,5.5396,5.5396,5.5396,5.5396,5.5396,5.5396,5.5396,5.5396,5.5396,5.5396,5.5396,5.5396,5.5396,5.5396,5.5396,5.5396,5.5396,5.5396,5.5396,5.5396,5.5396,5.5396,5.5396,5.5396,5.5396,5.5396,5.5396,5.5396,5.6555,5.6415,5.6254,5.6091,5.5971,5.581,5.5548,5.5612,5.5651,5.5516,5.4914,5.4491,5.4491,5.3587,5.262,5.1774,5.1087,5.0765,5.0899,5.0784,5.0765,5.0899,5.0765,5.0707,5.0707,5.0707,5.0707,5.0707,5.0707,5.0707,5.0707,5.0707,5.0707,5.0707,5.0707,5.0707,5.0707,5.0707,5.0784,5.0919,5.0919,5.0996,5.1111,5.0957,5.0996,5.1207,5.1717,5.2467,5.3217,5.3371,5.3414,5.3423,5.3505,5.3522,5.3489,5.3363,5.3322,5.347,5.4142,5.4314,5.4505,5.5224,5.5396,5.5396,5.5396,5.5396,5.5396,5.5396,5.5396,5.5396,5.5396,5.5396,5.5396,5.5396,5.5396,5.5396,5.5396,5.5396,5.5396,5.5396,5.5396,5.5396,5.5396,5.5396,5.5396,5.5396,5.5396,5.5396,5.5396,5.5396,5.5396,5.5396,5.5396,5.5396,5.5396,5.5396,5.5396,5.5396,5.5396,5.5396,5.5396,5.5396,5.5396,5.5396,5.5396,5.5396,5.5396,5.5396,5.5396,5.5396,5.5396,5.5396,5.5396,5.5396,5.5396,5.5396,5.6361,5.6318,5.621,5.5967,5.5909,5.5617,5.4797,5.5247,5.5458,5.4741,5.4568,5.4491,5.4491,5.3044,5.1755,5.0938,5.0765,5.0996,5.1697,5.1087,5.1015,5.1717,5.1068,5.0707,5.0707,5.0707,5.0707,5.0707,5.0707,5.0707,5.0707,5.0707,5.0707,5.0707,5.0707,5.0707,5.0707,5.0707,5.1106,5.1736,5.1736,5.2197,5.2779,5.2024,5.2217,5.2779,5.214,5.2467,5.3313,5.4068,5.4318,5.4423,5.5061,5.5217,5.5153,5.5081,5.5058,5.5084,5.5193,5.5224,5.5244,5.5358,5.5396,5.5396,5.5396,5.5396,5.5396,5.5396,5.5396,5.5396,5.5396,5.5396,5.5396,5.5396,5.5396,5.5396,5.5396,5.5396,5.5396,5.5396,5.5396,5.5396,5.5396,5.5396,5.5396,5.5396,5.5396,5.5396,5.5396,5.5396,5.5396,5.5396,5.5396,5.5396,5.5396,5.5396,5.5396,5.5396,5.5396,5.5396,5.5396,5.5396,5.5396,5.5396,5.5396,5.5396,5.5396,5.5396,5.5396,5.5396,5.5396,5.5396,5.5396,5.5396,5.5396,5.5396,5.6318,5.6175,5.6049,5.5917,5.5841,5.5643,5.5219,5.5478,5.5574,5.5228,5.478,5.4491,5.4491,5.2947,5.1947,5.2087,5.1246,5.1246,5.2544,5.1832,5.1755,5.2582,5.2299,5.1875,5.1375,5.1375,5.1375,5.1375,5.0919,5.0707,5.0707,5.0707,5.0707,5.0707,5.0707,5.0707,5.0707,5.0707,5.0899,5.1279,5.1717,5.214,5.2486,5.2582,5.287,5.3217,5.3313,5.3895,5.4664,5.503,5.517,5.5222,5.5541,5.5607,5.5545,5.548,5.5433,5.5409,5.5409,5.5396,5.5396,5.5396,5.5396,5.5396,5.5396,5.5396,5.5396,5.5396,5.5396,5.5396,5.5396,5.5396,5.5396,5.5396,5.5396,5.5396,5.5396,5.5396,5.5396,5.5396,5.5396,5.5396,5.5396,5.5396,5.5396,5.5396,5.5396,5.5396,5.5396,5.5396,5.5396,5.5396,5.5396,5.5396,5.5396,5.5396,5.5396,5.5396,5.5396,5.5396,5.5396,5.5396,5.5396,5.5396,5.5396,5.5396,5.5396,5.5396,5.5396,5.5396,5.5396,5.5396,5.5396,5.5396,5.5396,5.5396]}]]